GFSGBSN_sfc_rhum_000.txt.gz
RH
57 55 59 56 56 62 66 66 74 78 88 76 79 76 82 77 73 66 67 70 71 72 72 78 82 82 92 92 86 61 60 58 70 73 81 71 92 87 87 86 84 88 87 74 68 68 70
56 56 55 56 58 58 61 69 68 72 79 85 76 79 82 82 76 74 72 72 71 70 76 76 81 78 89 96 58 51 50 58 66 81 91 88 91 88 91 88 84 76 76 74 67 70 68
56 55 56 57 55 57 62 66 69 69 70 85 86 81 82 84 79 76 76 75 75 73 74 73 78 76 93 81 57 59 49 58 58 69 84 86 84 92 88 92 80 80 87 76 71 66 67
55 54 54 54 52 52 59 63 64 65 68 71 84 86 82 83 84 81 80 78 78 80 79 74 78 88 94 61 67 61 55 56 53 63 56 70 76 86 89 78 71 80 86 96 70 67 65
54 54 55 53 53 54 52 51 60 64 64 68 72 84 87 83 86 84 86 81 81 78 77 76 84 86 89 56 74 63 57 55 53 54 56 41 57 70 77 89 90 89 94 91 74 64 66
57 53 53 52 51 52 51 50 57 63 62 65 68 76 83 89 84 87 88 82 81 82 81 73 74 93 77 71 66 60 65 55 60 62 62 67 75 88 86 91 95 90 91 77 68 62 71
54 52 53 53 52 52 51 51 57 64 61 60 68 78 84 88 86 88 87 89 91 94 91 86 84 77 64 64 58 66 61 62 65 72 90 80 96 89 78 79 74 91 94 94 78 60 68
52 54 53 58 57 55 52 50 58 61 65 63 66 74 85 86 88 90 82 86 82 71 95 85 85 81 68 64 74 70 58 74 80 92 87 85 91 79 75 79 79 83 86 85 77 61 63
61 58 58 60 59 56 54 53 52 64 64 70 68 75 80 87 92 94 80 85 81 74 89 79 85 84 78 68 74 78 66 77 89 95 85 90 74 68 76 85 89 92 93 90 84 64 57
64 59 60 60 58 55 56 55 60 66 69 73 71 73 78 88 99 90 90 84 83 68 93 74 96 86 81 70 80 62 62 72 86 88 89 94 76 75 83 85 85 93 79 78 79 87 95
60 57 57 61 57 60 59 64 70 70 73 81 72 73 79 86 97 94 86 86 83 70 92 77 94 66 74 72 67 82 63 64 90 88 84 84 89 87 84 77 74 75 72 79 81 92 94
66 65 66 64 60 60 61 66 67 76 76 77 80 77 80 90 98 85 81 79 83 87 89 91 87 90 90 79 71 78 68 61 63 75 78 78 75 76 79 68 65 66 77 77 82 80 94
68 66 67 67 63 61 61 61 60 80 81 84 79 78 87 80 97 87 78 84 96 93 78 90 81 84 79 84 79 78 82 89 93 99 98 95 89 76 76 83 75 73 83 98 99 98 89
66 67 66 67 65 63 63 57 58 73 76 81 86 82 91 78 92 85 82 92 94 69 86 75 70 74 84 78 74 82 89 94 83 92 99 97 96 90 78 76 85 80 77 93 90 92 88
68 68 66 65 64 62 58 57 58 71 81 90 88 96 97 89 91 83 83 90 80 71 80 88 77 84 86 79 80 86 88 81 68 91 97 96 94 86 81 69 67 96 97 69 75 64 88
62 67 66 63 65 62 57 59 61 72 84 89 98 97 96 90 91 90 85 84 72 70 79 79 90 81 87 84 91 96 85 76 73 74 75 84 96 81 83 73 69 88 73 97 97 96 94
65 68 64 62 65 62 59 58 64 70 78 89 97 98 91 85 93 98 98 87 73 79 72 79 81 86 67 72 81 85 78 71 74 74 78 89 95 92 93 95 84 92 97 96 80 88 94
67 67 64 62 65 61 57 58 66 72 81 89 98 98 96 91 99 98 95 73 67 92 87 77 75 68 75 83 96 92 88 75 70 77 86 80 97 96 86 75 64 66 71 76 88 88 87
67 66 61 64 62 62 56 61 67 75 79 98 98 98 97 88 100 99 85 77 77 94 94 86 85 74 73 81 88 91 82 62 70 79 87 80 98 98 96 89 84 94 80 65 67 80 86
67 66 61 62 64 63 56 60 69 78 80 97 98 100 99 98 92 78 77 80 85 76 80 77 78 77 83 85 84 87 84 66 69 70 68 71 99 98 87 95 96 98 87 78 74 95 76
65 65 60 61 63 62 57 59 70 80 83 99 97 98 91 100 97 74 71 77 82 84 81 76 85 80 89 98 88 92 79 71 70 66 77 92 100 100 93 80 99 98 95 84 92 78 77
64 64 62 63 63 60 58 64 69 83 87 98 99 96 90 87 75 75 83 89 83 78 83 85 86 75 86 95 79 75 82 78 82 74 81 92 98 100 99 96 96 98 94 96 94 73 66
65 63 64 62 64 58 59 66 71 80 88 97 96 95 79 81 82 83 84 85 78 75 74 78 80 87 89 80 74 70 64 73 74 77 95 98 100 100 95 90 96 98 88 79 77 78 62
65 65 61 62 63 59 60 62 66 75 85 98 96 99 96 94 82 76 74 72 85 80 81 87 78 86 73 74 71 80 87 83 82 80 79 97 100 100 98 99 98 80 78 70 73 70 65
64 63 61 62 64 61 61 62 66 72 77 97 98 99 98 93 74 73 79 83 74 83 88 86 76 77 80 84 95 94 91 91 88 86 88 81 98 99 99 99 82 84 85 79 80 78 61
64 62 62 62 63 64 62 64 65 71 74 92 96 98 99 94 85 64 76 86 96 96 95 90 88 91 91 96 94 88 94 81 91 89 90 90 83 97 92 98 78 64 88 82 75 95 66
60 62 62 62 63 65 63 66 65 69 73 90 97 98 99 96 89 76 80 86 87 90 91 93 93 94 91 96 95 98 96 81 95 94 87 93 96 96 89 86 82 69 70 76 88 69 66
65 60 64 65 64 65 64 66 64 68 74 89 95 97 99 98 90 76 76 90 92 88 90 94 94 98 99 99 98 98 98 93 93 83 91 91 92 90 94 95 80 72 70 80 63 71 73
66 66 66 66 65 66 64 65 64 64 73 82 96 87 91 100 93 91 82 81 74 72 86 93 91 94 93 98 96 92 94 96 91 92 88 93 79 83 82 76 65 75 72 71 69 71 82

GFSGBSN_sfc_rhum_003.txt.gz
RH
57 57 56 56 57 55 54 61 64 64 67 71 77 85 78 77 81 75 68 66 71 71 73 74 79 82 88 92 83 56 55 58 69 71 71 76 81 72 75 75 70 82 78 70 64 66 66
56 56 56 56 55 54 54 52 57 62 64 67 70 83 83 81 82 81 76 72 72 71 74 75 80 74 82 95 54 49 44 51 69 68 78 71 86 78 78 80 73 69 71 68 63 59 61
56 56 56 56 54 53 54 55 52 51 60 64 66 75 82 86 79 83 75 76 74 73 75 74 78 73 87 79 54 54 48 51 51 67 89 82 76 81 84 89 72 72 78 69 65 59 58
56 55 54 54 53 53 53 53 52 52 54 63 62 65 81 81 85 84 82 78 77 78 77 73 77 82 91 61 64 59 51 49 49 55 58 73 75 81 84 74 66 74 75 85 60 60 58
53 53 54 52 57 56 56 53 53 52 53 62 62 61 68 82 83 87 86 84 83 80 78 80 81 81 86 55 75 64 52 50 51 52 52 46 54 64 76 83 81 82 82 88 69 57 56
53 53 54 54 57 57 58 56 54 52 53 61 59 61 66 75 85 89 93 84 81 84 79 72 74 88 78 69 66 64 62 52 57 60 60 64 74 82 83 85 76 80 95 77 71 58 61
60 66 59 57 60 58 56 55 54 54 53 54 61 65 68 72 88 90 95 95 95 98 96 85 82 79 67 63 57 66 60 60 62 69 86 77 92 93 80 79 67 80 85 80 65 59 68
60 60 58 57 58 58 59 57 56 56 55 60 65 69 69 72 82 89 90 90 77 70 96 87 86 82 72 66 74 70 59 73 75 90 82 85 90 74 71 74 77 78 81 78 58 62 64
59 60 58 57 59 60 61 58 59 63 66 68 70 76 73 70 79 93 92 83 77 64 78 79 86 86 78 69 74 79 65 76 84 93 89 89 73 67 73 82 78 71 76 66 65 64 60
59 61 64 62 62 65 63 60 62 66 71 79 76 75 76 72 90 89 94 87 83 61 88 72 92 87 80 70 75 64 62 70 82 86 73 75 67 76 88 89 82 83 73 75 78 83 82
65 64 64 64 65 65 66 61 63 67 66 77 76 76 78 74 92 97 93 85 75 66 82 78 92 66 76 74 67 80 63 61 90 88 87 80 86 94 84 80 77 74 70 75 80 88 92
63 65 65 66 67 65 67 62 64 60 74 77 71 74 79 84 91 90 90 88 79 88 88 92 91 94 90 80 77 74 71 60 62 75 75 74 72 71 74 68 68 65 74 72 74 78 93
62 63 64 65 68 66 67 64 60 57 63 76 76 75 82 81 83 87 94 94 99 94 76 96 90 91 77 86 81 77 83 88 92 99 96 78 78 78 74 78 74 71 97 95 96 97 83
57 62 64 67 67 66 67 62 58 58 63 72 83 87 83 83 90 96 91 99 97 73 85 68 67 82 86 70 75 81 83 90 81 92 93 97 89 76 76 71 81 83 80 92 89 84 73
58 57 67 67 65 66 66 61 58 64 72 81 89 99 98 98 90 96 97 99 85 76 81 75 70 85 88 74 72 78 87 85 74 83 98 96 90 80 81 73 64 98 98 70 95 85 93
58 62 68 66 63 68 65 62 56 66 77 85 98 96 98 91 90 97 99 97 74 79 73 72 88 74 83 83 89 87 87 78 74 70 67 79 94 79 80 74 73 82 78 96 98 96 90
65 65 66 63 63 67 65 62 59 66 76 85 96 95 92 89 94 99 100 96 75 78 71 78 83 87 77 82 84 93 80 67 75 82 74 81 96 90 91 90 81 93 98 99 97 96 87
64 64 65 63 64 64 66 61 60 68 80 87 98 98 96 96 99 99 99 74 71 87 84 81 73 73 78 75 85 84 83 70 68 80 92 80 91 98 84 70 65 65 72 72 90 89 87
65 64 64 62 64 65 64 58 62 69 79 98 98 97 96 91 99 100 88 81 78 93 93 83 83 78 77 81 90 88 84 66 76 76 87 85 98 97 90 87 78 97 80 71 69 77 87
66 64 64 64 64 66 59 61 63 70 78 97 98 100 100 97 93 92 84 85 83 78 90 81 82 78 86 87 76 89 88 71 70 73 69 73 94 94 80 83 98 98 81 84 95 94 76
66 66 65 63 64 66 60 64 68 74 86 99 99 98 90 100 98 78 76 76 87 88 82 80 85 76 81 93 87 96 90 78 75 72 76 85 99 98 93 79 95 99 94 85 98 81 80
66 66 66 63 61 66 60 66 71 75 87 98 99 97 94 96 81 71 86 87 81 84 83 88 86 74 79 88 70 84 82 82 78 79 84 87 99 100 97 94 97 99 97 90 84 78 74
65 65 64 63 61 66 61 69 70 74 86 98 97 94 96 82 80 80 87 84 84 77 78 78 77 79 87 80 68 69 69 68 73 75 87 98 100 100 93 90 99 98 92 93 87 78 76
62 63 62 63 64 64 64 65 68 73 80 98 97 99 98 94 78 73 73 74 82 82 89 85 78 86 76 81 78 85 86 95 90 85 76 97 100 100 98 98 98 92 74 70 74 62 69
64 58 61 63 63 65 65 65 66 68 71 95 96 99 99 95 76 72 76 76 78 85 86 86 80 78 78 90 93 97 93 93 92 91 92 83 97 100 99 99 88 66 72 77 79 78 60
64 65 63 65 65 66 66 65 65 66 69 89 98 99 100 98 87 63 75 87 96 96 96 89 89 92 93 96 96 99 95 86 89 89 94 87 88 99 99 98 93 58 84 67 73 74 63
65 65 65 66 66 65 66 65 66 66 68 86 97 95 99 99 91 78 86 92 86 91 91 90 90 95 94 96 99 99 95 84 93 91 96 98 97 98 97 95 81 67 72 76 79 69 67
64 63 64 65 65 65 64 64 68 66 67 84 92 93 98 98 94 83 86 91 92 92 91 89 95 97 99 98 99 98 90 92 94 83 90 90 97 97 92 96 80 72 84 86 65 67 70
63 64 65 66 66 65 64 65 66 65 66 76 94 86 88 99 95 93 84 81 75 73 86 92 90 90 93 98 97 95 97 90 92 92 89 95 79 83 83 74 62 69 68 66 69 72 73

GFSGBSN_sfc_rhum_006.txt.gz
RH
56 56 56 56 56 54 55 56 56 55 53 56 62 65 72 82 81 80 79 72 67 73 73 71 77 77 76 83 76 45 53 57 55 62 64 62 54 47 51 47 51 56 42 46 44 51 47
56 55 55 54 54 54 55 54 54 53 53 53 57 63 67 78 82 84 83 76 70 72 72 74 77 72 61 81 43 39 40 52 56 64 63 64 57 51 50 50 52 48 54 49 46 44 42
54 54 55 55 54 57 57 57 56 54 53 51 56 65 64 67 80 81 84 76 74 73 76 74 75 59 68 47 38 38 38 44 48 59 71 66 57 58 54 60 56 53 57 42 40 41 44
53 54 54 53 54 56 58 58 57 55 55 51 52 62 63 62 74 86 88 79 79 78 77 74 73 58 58 50 44 46 37 40 42 44 58 59 60 58 55 58 52 56 56 55 40 43 38
57 60 66 57 55 58 57 58 57 55 55 54 55 55 62 61 68 86 86 90 83 81 76 77 64 57 64 52 59 45 37 43 41 40 45 49 45 50 57 56 56 53 46 55 45 39 42
60 56 58 61 60 61 60 60 60 56 55 56 57 56 59 66 68 80 87 91 81 78 70 62 66 76 64 58 56 51 42 39 45 48 52 53 55 58 56 60 47 41 56 46 41 38 46
57 60 62 62 62 58 59 64 64 60 57 60 62 62 66 69 68 73 88 99 99 96 74 60 62 58 59 53 48 55 42 45 44 49 63 60 72 73 50 50 42 46 49 47 40 40 48
60 63 64 63 64 61 63 63 63 62 59 64 70 72 75 74 72 71 91 96 69 55 84 68 62 62 60 51 62 60 44 51 55 60 59 70 79 48 49 49 55 52 52 48 40 38 44
65 64 64 65 67 64 66 63 64 64 63 68 80 76 78 73 76 74 90 91 78 76 68 84 68 67 62 56 58 64 50 53 56 66 64 60 56 54 57 58 63 55 57 52 50 42 40
63 60 62 66 65 66 67 65 66 64 63 69 74 73 73 72 78 68 79 84 89 89 99 78 83 69 62 57 65 51 45 52 65 59 61 60 47 61 61 62 55 60 44 50 58 60 60
63 63 64 64 66 66 67 65 67 65 65 65 77 70 69 69 92 76 74 87 93 90 98 68 82 57 59 55 59 72 49 53 63 63 63 61 69 71 74 63 55 57 51 51 54 60 62
62 62 58 66 66 67 66 66 66 63 60 62 64 70 70 74 75 66 82 91 92 98 96 88 85 89 86 64 66 68 66 51 49 59 61 53 52 54 53 53 54 51 57 57 57 63 88
58 57 62 65 67 66 64 68 64 61 59 61 66 73 74 70 89 66 93 94 99 98 63 94 83 80 70 71 76 68 79 82 76 96 94 65 62 57 53 61 57 58 70 79 84 93 65
62 67 66 66 65 61 66 66 62 60 59 69 80 90 88 79 72 79 97 99 98 73 61 61 69 66 70 62 76 71 82 90 68 70 78 80 71 61 58 60 55 65 61 67 63 45 40
63 67 65 65 61 62 66 64 66 61 69 76 86 88 84 78 71 88 98 99 90 58 58 66 74 80 80 60 63 72 75 67 56 62 88 86 80 59 58 53 54 73 92 54 78 67 89
63 64 63 62 62 65 66 66 59 61 72 79 94 84 83 78 84 93 99 99 75 58 54 55 69 56 68 69 67 66 71 55 57 54 48 61 86 54 55 61 60 65 56 88 97 87 71
62 66 62 61 64 65 66 59 58 64 71 82 92 96 91 79 86 98 100 100 75 56 52 60 64 62 54 64 61 60 58 53 52 57 53 58 67 72 77 81 61 81 91 94 77 77 69
62 66 64 63 65 66 68 58 63 65 74 87 93 100 83 94 99 99 99 92 71 67 67 63 54 54 55 60 66 62 62 52 45 59 74 58 72 90 72 43 44 44 56 61 94 88 86
64 66 65 64 64 65 65 60 65 66 75 98 97 96 90 98 99 99 88 85 76 74 73 66 67 57 55 60 71 58 59 50 54 57 59 60 96 90 78 70 58 74 57 59 91 91 89
62 63 64 63 63 65 64 61 67 69 78 96 99 100 97 95 78 79 68 73 80 69 75 65 67 62 63 63 60 68 67 60 52 53 64 62 68 92 69 76 64 100 71 85 97 93 66
65 62 63 63 62 65 65 64 70 77 84 97 97 98 89 100 82 60 60 67 73 75 69 63 69 62 63 68 70 71 66 63 61 64 61 65 100 95 74 69 81 92 91 94 100 75 78
58 59 59 60 61 63 65 66 74 77 81 96 99 98 72 83 66 59 74 67 67 75 66 71 69 66 63 63 64 68 67 67 61 59 65 70 93 100 98 79 77 97 93 95 95 82 63
64 65 62 63 62 65 66 69 72 75 80 97 97 90 87 89 79 60 69 63 64 62 67 70 63 70 72 70 59 55 56 56 60 61 70 88 100 100 91 63 70 97 94 94 94 81 65
64 64 64 63 64 65 66 65 68 71 77 95 97 97 93 96 72 59 60 64 62 59 77 71 71 76 68 66 69 77 70 85 79 66 59 85 100 100 99 87 96 72 76 79 82 80 65
64 62 63 64 66 65 66 65 68 67 70 89 97 99 98 85 64 61 59 58 67 67 71 71 72 62 65 72 89 90 91 87 72 74 73 66 83 100 98 96 64 54 62 81 75 61 50
63 62 62 62 63 64 64 64 69 66 69 81 97 94 98 98 73 53 63 60 65 67 78 72 80 81 86 91 90 96 73 61 68 76 79 75 80 98 97 95 77 52 54 59 59 64 50
63 62 62 63 64 64 63 65 68 65 66 80 93 88 98 99 71 59 65 71 70 74 90 88 90 91 83 84 97 92 82 62 66 68 84 91 97 96 97 94 62 51 54 67 60 61 54
63 62 62 62 60 60 61 62 62 63 64 77 89 88 94 98 88 76 66 72 77 69 72 79 85 92 97 97 92 85 87 65 71 59 67 64 79 86 76 76 78 51 60 56 50 52 54
63 63 63 61 60 59 59 58 59 62 63 69 84 84 86 98 92 83 75 69 62 60 79 80 82 81 85 94 92 94 83 73 68 61 61 71 58 55 59 51 46 48 50 47 51 55 55

GFSGBSN_sfc_rhum_009.txt.gz
RH
55 55 55 56 54 56 57 56 56 56 54 53 53 53 63 64 68 73 81 83 78 69 74 74 72 76 75 95 80 44 57 56 53 62 55 50 47 42 46 37 36 42 37 27 29 34 34
55 54 56 56 55 56 56 58 58 56 56 56 54 51 57 62 63 67 79 82 82 70 74 75 73 78 65 87 46 40 36 43 42 59 57 52 51 39 44 38 42 35 38 35 34 36 36
58 58 60 60 58 55 57 57 58 58 58 55 55 54 54 58 60 64 71 84 87 73 74 77 74 57 56 52 32 34 38 41 45 53 66 55 58 54 46 51 39 44 50 39 35 34 37
61 62 60 58 61 59 60 60 61 60 59 56 56 56 57 57 60 63 68 84 86 81 76 76 72 50 53 43 32 36 35 43 43 44 48 52 55 54 48 46 45 49 44 48 31 32 29
59 60 58 62 60 63 65 63 62 64 62 60 57 58 60 59 58 63 69 80 85 85 77 75 60 54 53 52 50 34 33 44 40 42 47 46 57 51 48 52 45 44 44 41 36 28 32
60 60 62 64 66 63 66 66 65 61 62 62 58 61 66 66 65 69 71 78 85 89 76 64 57 67 51 52 47 41 33 37 41 43 49 47 47 50 48 47 48 40 46 37 33 25 34
64 63 67 66 64 67 69 70 66 62 65 65 65 67 67 69 74 73 71 93 99 100 92 62 58 49 50 46 43 47 36 41 41 46 59 56 68 63 43 41 39 37 38 34 27 25 34
61 59 63 64 64 65 70 66 64 65 66 66 66 74 72 75 75 75 72 94 94 83 94 55 49 48 46 43 58 50 36 48 53 63 50 72 78 45 38 38 41 43 43 40 31 28 33
63 64 64 63 62 66 66 67 66 66 67 66 68 73 71 74 70 68 66 82 95 88 85 74 54 55 56 50 50 59 43 42 49 53 52 59 47 44 44 48 49 43 46 42 39 34 34
64 56 57 59 64 67 68 67 65 67 67 68 67 73 73 68 66 75 71 82 95 92 100 96 84 58 56 51 59 44 39 44 52 53 52 53 39 49 47 52 44 50 34 37 44 50 50
61 60 67 68 66 67 68 66 66 67 66 64 60 64 68 66 72 73 67 84 94 93 98 86 76 46 52 50 55 60 39 50 53 49 50 55 54 54 58 49 42 49 47 46 48 54 56
61 66 67 67 66 64 63 66 65 64 63 64 60 64 68 62 67 57 70 92 86 100 98 95 82 80 72 49 58 58 57 46 40 48 48 43 41 46 46 43 44 45 50 52 53 64 82
63 66 65 63 62 62 64 66 64 63 60 62 68 72 85 65 76 50 78 94 99 98 77 93 76 73 69 64 65 68 72 71 69 93 84 58 53 48 43 55 50 53 66 75 81 93 65
63 67 66 64 62 64 66 66 62 57 64 70 79 83 78 74 74 62 90 100 99 78 67 55 71 69 78 62 57 58 66 75 54 53 66 78 75 56 52 54 53 62 58 62 57 42 34
67 67 68 65 62 65 66 67 57 65 69 77 79 67 81 81 70 78 98 96 77 64 54 68 66 79 78 62 66 62 60 64 49 49 78 70 70 46 46 45 47 60 81 48 72 53 67
66 66 67 65 63 66 68 61 59 63 72 78 94 79 81 71 62 93 99 100 93 45 48 52 66 60 73 64 74 63 61 46 54 44 41 54 75 48 45 50 48 54 46 84 93 83 59
65 68 65 65 62 62 69 59 64 68 72 77 93 93 91 71 74 96 97 100 79 44 45 51 52 52 51 55 52 55 54 46 40 44 42 47 55 68 65 68 51 66 76 90 64 72 76
66 68 65 66 64 66 68 62 67 69 79 85 87 100 89 68 98 98 99 95 72 56 60 52 44 41 42 44 48 46 47 44 39 43 59 47 62 84 64 41 38 43 57 58 90 72 79
61 64 59 64 63 64 65 65 68 71 78 97 87 95 85 91 99 99 95 89 60 69 66 54 53 44 40 45 54 46 46 41 41 48 50 51 79 86 81 57 43 56 47 47 63 81 93
58 60 61 63 63 64 65 65 69 73 79 96 97 100 98 97 84 68 94 93 78 71 60 53 54 45 46 48 48 50 55 54 43 45 66 53 62 88 65 78 55 90 70 65 87 97 69
60 64 63 62 63 65 65 66 70 77 80 83 98 94 78 96 82 76 69 72 80 74 58 50 54 48 46 53 52 55 52 55 53 58 52 57 100 86 64 58 66 72 72 72 99 93 96
61 62 63 62 64 64 66 69 74 77 78 94 98 97 83 68 51 50 62 60 61 62 55 55 52 49 48 48 50 59 53 52 55 55 58 65 89 95 94 67 66 82 66 78 90 91 95
62 62 61 64 66 64 66 72 73 75 77 96 93 80 97 87 58 51 55 54 57 56 62 56 53 54 58 57 53 53 50 48 50 55 64 77 98 99 85 54 60 88 83 94 94 83 87
62 61 60 60 62 64 64 66 69 70 76 93 95 97 94 93 55 50 52 52 54 58 67 63 57 59 65 54 60 64 64 63 65 69 65 80 96 97 99 84 94 54 56 66 80 68 58
61 61 60 61 62 64 64 67 68 65 69 86 91 96 97 74 51 51 50 57 51 54 64 67 67 61 60 64 69 73 88 89 72 77 78 62 75 95 98 79 56 57 49 74 90 70 52
62 61 60 61 60 60 62 63 63 64 65 64 91 92 97 98 57 45 49 49 57 58 63 62 70 67 68 82 83 97 89 54 66 84 72 66 70 93 79 94 80 48 48 57 70 65 49
63 62 62 61 61 60 59 59 59 62 64 66 80 75 95 97 62 58 54 55 49 52 83 85 82 85 81 85 88 99 93 56 62 62 78 93 96 95 91 97 60 38 45 59 66 58 51
64 63 63 62 61 61 59 59 58 60 61 65 71 74 87 97 86 65 52 54 65 60 74 75 81 82 87 92 98 96 96 61 61 48 61 66 78 81 82 92 79 41 45 58 51 46 48
62 66 63 63 63 62 61 59 58 59 60 62 74 63 80 96 88 77 66 64 62 53 54 72 75 69 74 91 94 94 96 64 55 60 47 61 46 51 52 49 38 40 45 41 45 50 48

GFSGBSN_sfc_rhum_012.txt.gz
RH
59 58 58 61 60 60 57 58 57 58 58 58 55 56 55 54 56 59 64 70 80 82 75 74 74 74 76 96 75 57 62 61 58 67 63 46 50 49 54 43 37 44 38 30 30 32 34
59 61 61 59 59 58 58 58 60 61 60 59 58 57 57 56 56 58 61 66 77 84 86 75 74 77 78 92 52 40 41 44 52 69 65 53 53 49 48 44 42 41 40 39 37 35 37
60 59 59 60 58 62 61 64 64 66 64 63 61 60 59 59 59 59 58 65 70 84 91 75 75 65 62 63 36 47 51 40 41 58 73 53 53 57 53 55 44 43 57 48 43 40 43
64 61 63 62 65 65 69 67 70 71 66 63 61 61 60 59 62 61 60 61 71 79 86 78 74 61 66 38 38 36 44 48 44 50 62 58 58 63 55 49 47 59 57 68 37 37 37
60 64 62 63 60 61 63 67 71 72 69 62 64 64 64 65 65 66 64 67 71 75 85 78 69 66 63 52 48 34 37 48 46 52 61 51 58 60 52 65 64 58 66 58 47 37 38
66 63 63 65 63 61 60 69 70 65 65 66 65 66 66 66 67 69 72 70 71 77 90 77 58 73 54 58 45 39 35 40 45 54 54 59 58 63 62 65 74 58 60 50 46 38 39
62 63 64 59 58 62 66 67 67 66 66 64 66 67 70 70 72 72 76 80 96 100 96 85 70 51 46 45 43 44 38 43 42 54 64 58 73 77 56 53 48 48 52 49 37 28 36
63 61 59 65 68 68 66 68 67 66 65 66 67 69 71 70 73 69 76 80 85 98 98 81 52 50 47 48 60 51 39 52 56 67 56 71 81 51 42 42 47 50 56 53 40 31 38
62 60 66 69 67 66 67 67 66 66 66 67 69 67 68 69 67 73 72 70 88 93 98 82 59 54 56 48 57 59 45 48 57 64 66 67 55 45 50 51 54 54 57 52 48 42 41
63 61 70 67 64 63 65 64 66 65 66 68 67 62 62 71 74 68 70 76 90 95 100 98 85 58 54 56 58 45 41 44 54 65 53 54 46 45 51 54 50 58 44 44 45 59 72
64 60 69 66 65 63 65 66 65 63 63 64 62 61 61 63 78 72 81 90 87 94 98 95 83 46 54 60 61 61 43 46 55 54 56 68 58 59 61 50 44 53 50 51 55 66 75
65 62 69 68 67 63 64 66 67 60 58 65 67 69 72 76 79 61 78 91 88 100 98 99 87 76 74 58 56 57 54 49 42 50 47 53 44 52 52 44 47 47 56 60 63 71 97
64 65 70 69 65 65 64 67 65 56 63 66 70 75 80 76 83 57 85 92 99 98 92 99 96 75 65 66 69 64 72 74 78 90 81 64 58 53 48 62 58 55 69 96 98 99 90
62 66 70 67 63 63 65 68 58 61 64 74 80 83 77 76 75 63 91 99 98 77 97 63 80 72 72 62 70 72 75 82 62 62 78 90 87 58 51 59 66 67 64 92 81 86 74
63 65 69 67 65 64 66 65 59 66 75 78 81 76 87 89 78 75 95 99 96 77 62 74 85 98 94 64 66 69 73 70 56 51 85 83 75 50 52 49 54 71 86 63 82 74 92
66 61 62 64 65 65 68 60 62 70 78 85 92 82 88 73 70 85 98 95 79 88 56 59 71 58 78 68 69 68 68 52 50 47 48 59 86 54 52 54 54 62 51 87 95 98 83
62 60 60 64 64 62 64 61 66 70 81 82 91 90 87 73 77 96 100 100 84 66 47 52 59 56 52 71 63 60 55 47 45 48 42 49 69 72 69 72 69 72 77 84 79 90 96
63 62 61 64 64 64 64 63 66 72 84 84 87 99 87 77 96 100 98 97 87 62 58 48 45 45 49 52 60 57 53 47 41 46 57 48 67 95 82 53 51 54 66 66 92 86 85
60 62 65 62 66 65 65 65 68 72 84 99 92 97 86 88 95 95 91 90 76 70 67 52 49 44 40 48 57 50 50 43 48 50 55 51 88 95 92 68 52 62 56 54 65 78 92
62 62 62 62 65 66 66 67 74 75 76 92 93 97 92 90 90 80 97 91 92 79 57 49 49 44 45 48 50 55 59 58 46 50 64 56 68 88 93 83 74 97 80 65 76 99 83
60 62 60 64 64 63 66 70 73 77 79 91 96 90 82 96 89 81 87 82 87 82 58 49 54 48 48 55 55 56 50 59 53 63 57 64 98 89 77 66 68 75 74 70 90 94 99
61 63 60 60 60 62 64 73 75 76 79 90 98 96 88 67 68 88 74 91 72 58 58 55 56 47 47 53 58 52 54 53 62 59 64 67 98 99 94 72 71 81 73 71 68 77 96
62 62 61 61 61 63 66 73 72 73 76 96 94 84 97 76 63 59 65 57 60 62 63 60 53 54 62 68 60 61 59 53 55 62 68 86 100 98 93 66 75 89 78 83 79 82 86
62 63 61 61 61 61 62 63 64 67 72 94 94 98 97 82 63 52 52 54 58 66 69 63 56 65 70 60 66 69 68 70 65 65 64 87 99 99 98 92 95 64 57 64 75 75 64
62 61 62 61 62 61 60 60 61 64 66 81 93 98 98 89 56 51 51 58 56 60 70 69 70 69 67 73 82 77 87 92 81 73 74 73 88 98 99 94 66 56 62 73 89 79 60
66 60 63 62 62 62 61 60 59 61 63 69 92 92 97 99 62 58 52 55 69 66 74 76 78 78 78 90 87 90 90 72 87 88 76 78 78 94 88 95 88 64 63 64 77 89 65
69 62 65 63 63 63 62 60 59 60 60 69 88 84 97 98 73 78 61 64 59 64 92 87 86 87 83 93 89 98 92 67 77 84 93 94 95 97 97 96 81 52 58 64 90 76 63
70 66 64 64 63 64 63 62 60 59 59 69 76 84 90 96 86 71 69 75 73 73 88 86 89 87 93 91 96 95 97 80 80 64 76 80 87 93 93 98 94 56 61 77 67 66 59
73 64 64 69 65 65 63 61 60 60 58 60 76 66 76 96 89 76 70 69 73 75 75 80 82 78 84 93 96 93 92 92 78 80 58 70 63 70 73 72 50 54 56 59 59 65 64

GFSGBSN_sfc_rhum_015.txt.gz
RH
64 60 58 58 60 59 59 62 63 63 64 63 62 61 59 62 58 58 56 58 61 70 83 88 76 75 81 94 88 66 64 60 61 69 75 75 71 63 64 56 51 53 48 41 40 39 40
58 65 62 64 64 69 66 66 69 73 72 70 66 62 61 59 58 55 59 58 55 70 80 87 82 78 87 91 53 56 58 66 70 73 81 79 61 59 62 57 54 46 46 48 46 46 45
59 61 61 58 64 63 64 63 66 70 71 73 67 60 62 62 62 62 58 60 58 60 79 83 86 71 76 71 50 47 49 49 57 74 76 64 57 64 66 64 54 52 63 58 55 51 50
66 69 63 62 61 58 61 63 63 69 68 66 63 66 66 64 64 63 64 64 62 64 73 81 87 75 88 48 48 52 55 55 47 52 65 62 60 60 59 58 55 64 66 86 55 46 48
65 64 63 62 60 66 66 67 67 67 68 67 67 66 66 65 64 65 67 66 67 67 72 80 91 86 80 51 48 40 50 53 61 79 72 52 64 66 59 62 73 76 88 80 63 41 45
65 63 58 65 69 66 67 65 65 67 67 64 66 66 67 68 67 69 73 69 71 71 75 82 79 86 68 62 53 42 40 49 55 73 85 84 77 71 65 69 85 74 84 62 60 45 46
62 58 64 68 66 63 62 62 62 64 64 65 66 66 66 68 67 72 77 90 97 98 96 88 76 66 55 51 46 52 42 48 55 61 71 67 81 86 84 74 63 65 65 66 53 39 44
65 64 62 66 64 64 61 63 63 64 64 65 66 67 67 65 66 67 81 92 88 97 91 77 65 61 53 50 62 54 45 59 70 80 68 79 92 70 56 58 62 61 66 69 52 41 46
60 58 61 67 65 66 62 63 64 63 61 62 65 66 64 61 68 80 83 81 88 83 97 94 81 62 62 56 66 62 52 56 68 72 70 82 64 56 58 63 59 68 68 66 60 51 51
63 59 63 67 67 66 64 62 65 64 62 60 60 63 64 62 76 81 84 86 92 86 100 100 90 63 58 61 70 50 50 52 61 69 70 63 49 52 63 65 58 74 54 56 59 68 78
60 61 67 69 66 64 63 63 66 64 60 66 66 68 71 73 90 89 83 88 86 91 98 98 86 51 61 72 65 60 48 51 62 66 64 79 63 60 65 58 51 62 56 58 62 75 83
58 60 67 69 65 64 61 65 66 60 63 70 70 72 74 87 93 79 89 87 93 98 97 100 84 78 83 68 64 65 58 52 48 54 57 56 51 56 60 50 53 52 60 62 70 80 98
62 64 62 68 65 65 65 67 62 62 68 73 76 78 84 81 89 75 85 92 97 98 95 99 95 77 78 79 74 68 72 79 81 88 90 65 66 59 52 66 62 64 76 96 94 96 91
62 58 59 63 64 62 61 64 59 62 69 77 84 87 81 80 79 78 90 99 98 98 99 84 79 73 81 70 78 71 77 85 75 73 92 92 92 69 58 66 73 77 71 91 88 96 85
64 60 62 65 65 61 65 62 62 67 76 83 84 91 91 92 72 79 94 98 98 99 84 85 91 99 85 68 82 74 76 72 67 69 85 93 84 60 57 55 62 77 88 67 87 86 96
64 58 65 62 65 64 64 63 65 71 79 85 97 94 94 76 73 84 98 98 99 96 78 64 93 84 97 76 84 76 80 61 60 57 61 68 87 63 63 59 60 66 62 89 95 99 95
61 61 59 62 66 65 65 65 66 73 85 81 92 94 88 77 82 96 100 100 93 73 62 68 70 68 71 84 74 72 76 56 52 56 56 55 72 78 66 76 79 79 90 84 83 95 98
62 61 59 63 67 65 66 68 68 79 81 86 92 99 89 88 99 99 100 97 90 80 75 67 51 55 64 77 76 73 69 58 47 48 63 50 74 97 82 64 59 66 74 78 94 85 94
62 62 59 61 65 67 66 70 70 78 78 99 98 96 88 93 100 99 95 88 85 83 69 57 56 50 52 60 70 58 57 52 48 50 62 51 80 95 86 78 62 73 69 67 75 85 87
64 62 60 60 61 66 67 71 74 74 76 95 97 97 92 96 94 92 98 91 92 78 70 56 52 45 52 53 56 59 74 60 55 58 63 55 80 85 89 85 80 92 80 70 75 98 85
65 62 60 61 60 60 63 67 73 76 78 94 98 92 89 98 93 90 87 90 84 82 62 54 58 52 54 64 61 65 68 66 58 68 58 69 95 94 83 78 82 81 77 74 85 81 97
67 62 61 61 62 62 62 63 71 75 77 96 97 99 90 92 89 91 91 92 80 74 76 62 60 60 64 68 68 65 60 70 73 73 71 72 92 98 98 81 82 89 76 74 76 76 74
68 62 62 61 62 62 62 62 67 72 75 97 94 89 97 85 88 88 81 74 72 73 68 70 67 78 84 81 73 75 59 60 61 66 70 86 99 98 94 75 84 93 80 72 78 79 77
68 63 63 62 62 63 62 61 61 63 68 94 94 98 97 96 84 60 64 62 76 77 78 74 72 81 78 67 74 74 76 76 65 63 66 94 96 98 99 92 92 69 61 69 79 78 77
67 70 60 63 62 63 63 62 60 61 63 90 94 97 98 97 86 62 62 67 72 80 81 80 83 83 77 82 89 86 88 91 85 72 76 76 86 98 97 99 74 62 74 81 91 80 67
69 72 63 64 60 62 63 64 61 60 60 86 94 93 98 99 87 80 70 60 80 86 84 92 87 84 83 95 91 93 96 76 97 91 77 78 78 94 98 99 91 70 66 74 81 89 64
69 72 66 60 67 63 64 62 62 60 59 77 91 86 97 99 82 79 86 75 60 80 91 87 88 88 87 95 95 95 89 84 93 93 97 94 95 97 95 97 84 61 60 74 89 68 70
67 71 66 64 66 66 63 63 60 59 60 74 88 81 91 98 90 70 71 89 95 86 91 88 90 90 96 95 94 92 94 82 89 82 91 89 94 96 98 98 92 56 75 82 62 74 70
66 69 65 60 63 66 63 60 63 65 58 64 91 75 81 97 89 79 72 72 73 77 90 90 88 89 89 96 95 92 88 87 94 95 71 89 76 85 80 77 55 57 58 64 67 68 72

GFSGBSN_sfc_rhum_018.txt.gz
RH
62 60 68 61 58 60 60 56 64 65 68 67 68 73 68 65 62 61 56 52 55 56 57 71 80 86 83 96 90 60 63 66 59 67 75 76 78 68 69 64 61 65 57 48 46 48 48
62 65 62 62 64 59 61 65 65 64 65 68 70 69 61 61 64 63 62 57 58 58 56 62 77 90 92 92 55 62 68 74 69 75 84 81 76 63 67 64 60 53 49 50 49 49 51
64 60 64 63 62 68 68 68 68 65 66 66 65 66 66 67 63 64 61 61 61 61 60 62 75 86 86 73 52 60 60 77 75 73 87 81 74 64 65 69 58 56 65 61 56 55 55
65 62 62 57 68 67 66 61 61 62 64 67 67 66 66 66 65 63 64 64 64 63 64 66 76 89 80 52 46 52 53 57 57 68 68 67 62 66 65 63 60 66 68 81 56 51 49
61 60 64 65 66 66 61 60 61 60 61 63 63 63 65 66 66 66 67 68 68 67 67 64 92 88 74 56 58 54 59 56 69 77 74 60 67 70 68 75 77 75 88 83 68 50 50
65 63 63 64 65 65 63 60 61 61 61 62 65 65 65 66 66 67 71 69 70 70 72 68 88 88 66 67 55 45 48 57 72 82 81 81 89 83 74 68 86 79 91 77 70 47 50
64 65 61 64 67 66 64 61 58 61 62 61 61 65 66 66 66 66 77 92 87 94 88 81 83 66 58 55 47 52 43 60 77 81 93 88 90 93 82 85 64 58 71 74 61 46 48
62 59 61 66 70 63 65 62 64 66 64 60 61 62 64 64 62 65 85 93 88 90 89 81 76 68 54 53 64 54 48 64 79 82 71 76 92 70 64 64 72 72 74 79 60 49 50
64 58 62 66 69 63 65 59 62 68 66 59 60 65 66 67 68 81 83 92 88 76 96 84 80 68 60 57 66 64 55 60 77 72 70 83 67 62 65 67 69 72 71 72 66 56 57
63 61 61 65 68 64 66 64 67 65 59 64 68 67 68 75 78 87 91 91 88 81 99 98 90 81 62 63 73 52 50 57 64 74 69 67 55 66 72 69 62 77 60 58 62 68 80
64 64 57 60 66 64 63 60 66 60 60 70 71 72 75 76 94 87 91 90 89 87 97 94 93 61 64 74 68 64 50 51 71 71 70 80 64 61 65 64 54 65 57 60 67 78 82
58 61 59 61 66 65 59 64 61 60 67 72 77 82 80 89 94 81 90 86 89 95 95 99 91 86 81 71 71 63 58 52 49 62 65 63 54 60 60 53 54 56 60 69 78 83 94
62 61 61 64 63 63 61 62 61 66 66 77 82 73 81 86 89 84 90 94 94 97 97 99 94 75 79 80 77 69 78 73 85 97 100 71 68 60 55 67 62 61 73 90 86 97 85
65 60 60 63 61 65 61 62 63 68 76 82 74 81 84 81 79 82 87 99 94 92 100 81 77 74 90 76 76 75 76 83 73 76 86 90 87 68 59 68 72 74 68 85 72 96 90
65 62 61 60 65 64 64 63 68 76 85 84 77 83 93 86 73 79 95 97 98 99 94 85 76 91 84 85 80 70 73 78 74 71 83 91 83 65 60 59 59 79 90 70 87 88 96
63 60 60 62 61 62 63 66 69 81 83 80 96 89 90 80 72 87 98 99 100 96 79 68 94 87 95 91 86 74 73 63 64 58 65 72 90 69 66 59 64 68 65 89 94 94 93
64 61 60 61 60 63 65 66 70 78 81 77 94 96 84 83 87 97 100 100 97 83 73 70 79 76 84 78 82 82 77 64 56 61 58 66 77 81 72 80 80 82 91 86 84 92 98
64 62 61 62 61 62 64 66 69 75 82 87 93 98 83 87 99 99 100 99 92 80 80 83 59 65 80 75 79 77 84 66 53 57 70 60 81 95 84 69 64 71 78 80 93 84 97
64 62 61 62 62 62 63 65 69 74 80 97 98 97 90 94 99 99 93 87 88 82 85 63 60 56 63 71 76 68 63 54 54 54 64 57 81 95 88 78 74 80 74 74 79 90 95
67 61 62 62 63 62 64 65 68 72 78 93 97 94 92 95 96 96 88 92 86 76 71 61 58 54 55 60 60 74 70 59 52 52 63 61 82 83 89 81 83 90 81 75 81 98 88
68 62 63 62 63 63 64 64 66 74 76 92 98 95 92 99 93 89 81 82 86 87 74 58 58 54 60 68 68 78 71 66 63 67 64 66 90 95 87 79 84 83 80 79 90 76 92
67 64 62 62 62 64 64 63 66 71 76 96 94 98 85 99 90 91 90 92 88 80 80 75 80 71 61 76 70 76 71 73 70 77 74 70 93 92 94 85 90 93 82 79 74 71 69
64 70 61 64 61 64 64 63 63 66 76 98 97 90 96 86 92 92 86 78 81 76 71 76 73 82 86 83 77 75 60 62 66 73 81 82 95 93 96 76 87 94 86 78 79 78 78
67 70 63 62 65 64 64 64 62 62 70 93 96 98 94 92 95 79 67 77 79 79 78 81 79 84 83 74 76 72 76 71 60 61 67 88 92 96 98 89 94 66 61 65 69 72 79
66 69 68 61 64 64 67 64 63 61 62 90 95 98 96 91 87 84 89 80 82 82 86 87 90 87 84 82 87 88 86 84 79 72 76 72 87 99 98 98 74 67 76 78 84 78 73
66 68 71 62 64 67 66 65 63 61 60 89 94 94 98 97 95 87 96 73 86 88 86 92 88 85 84 94 90 93 91 78 98 96 79 74 78 95 95 99 91 63 72 79 80 92 72
65 68 72 62 62 66 63 61 63 58 60 82 92 82 98 99 78 86 94 88 81 87 90 90 88 88 85 94 97 96 92 78 97 90 98 96 96 98 97 96 87 62 63 78 85 66 69
69 69 70 67 55 58 64 60 59 62 59 77 84 87 94 96 85 82 69 83 90 93 90 84 86 89 97 94 94 92 90 83 88 78 94 89 96 98 97 98 94 60 83 83 63 75 76
67 68 69 71 66 61 65 62 60 64 57 63 89 78 86 94 90 86 73 68 73 73 90 91 84 90 91 95 96 95 92 88 92 75 80 89 76 84 85 79 55 56 64 64 69 73 77

GFSGBSN_sfc_rhum_021.txt.gz
RH
64 64 59 64 60 63 71 69 68 65 64 63 64 65 66 59 64 68 67 66 56 56 58 58 61 68 96 97 83 56 64 67 65 76 77 78 80 76 76 71 67 68 63 53 49 49 54
67 65 62 61 61 70 70 64 60 60 60 60 63 66 67 67 65 64 63 63 60 59 60 62 62 71 95 88 49 55 71 80 72 78 84 77 76 66 69 66 69 57 54 51 51 50 52
61 64 62 64 61 66 69 61 62 58 60 58 62 62 63 64 64 64 64 63 61 61 62 62 63 76 96 69 51 57 76 72 76 76 89 78 74 67 69 70 57 59 66 65 58 55 56
64 64 63 64 62 66 68 63 63 57 61 56 62 63 63 64 64 65 66 65 65 65 64 64 63 89 90 56 53 47 62 80 86 82 74 77 72 71 70 64 62 68 71 81 60 54 52
66 63 64 62 62 70 66 64 61 59 58 65 64 63 65 66 66 66 67 68 68 67 66 64 76 96 86 59 66 56 58 67 70 83 81 61 72 74 71 76 82 74 90 84 67 53 54
64 66 57 64 69 69 66 64 60 64 65 66 60 59 65 65 67 68 67 69 71 71 73 68 76 96 74 70 58 56 68 63 76 83 81 81 91 89 86 88 89 83 87 85 79 56 56
58 62 59 64 68 68 66 63 60 63 68 68 61 59 59 61 64 64 78 92 86 85 78 86 84 77 64 57 49 58 56 69 81 83 98 87 96 94 84 80 71 68 78 84 69 52 52
64 60 64 58 64 65 63 68 66 68 71 58 60 61 65 66 69 71 86 94 87 87 92 70 80 75 68 58 64 65 64 79 88 95 87 87 90 82 69 69 75 69 76 87 65 56 55
60 60 59 60 64 65 67 61 59 67 60 56 65 71 68 71 72 80 83 87 87 91 90 81 80 82 66 60 68 68 61 71 77 90 83 88 79 67 74 70 76 85 85 79 71 60 60
61 63 60 64 63 65 61 61 63 58 60 69 73 74 73 77 82 92 90 81 92 86 98 94 90 82 67 64 74 54 55 60 67 76 87 79 57 79 74 74 67 82 61 61 64 70 80
63 63 60 63 61 64 64 58 62 65 73 75 81 85 77 76 94 89 75 93 87 85 94 94 90 72 66 73 69 68 58 54 74 70 71 87 67 79 82 70 59 70 59 63 68 80 82
61 62 61 61 60 67 62 62 66 72 78 84 81 74 75 89 92 79 92 88 86 91 97 100 95 94 79 73 72 68 62 50 54 69 65 64 57 60 62 58 57 58 64 70 84 82 93
64 62 62 60 62 60 62 65 71 77 77 73 73 78 86 80 91 90 93 93 93 96 99 99 96 74 77 79 78 75 76 76 90 99 100 76 68 60 57 67 62 63 75 87 80 94 82
65 63 63 61 60 62 64 67 72 78 76 72 79 82 83 83 88 88 90 100 91 98 98 87 76 76 92 77 78 86 78 84 74 76 95 93 94 68 61 68 73 79 69 82 65 87 87
65 63 62 61 61 63 64 67 71 79 83 77 72 90 88 92 75 80 95 97 98 99 96 88 76 96 98 85 82 86 93 80 73 69 84 88 85 67 61 62 61 83 89 72 86 90 94
67 63 62 63 62 63 65 67 72 75 84 79 92 93 92 85 85 88 98 99 100 97 73 73 91 89 95 95 90 83 78 64 62 65 68 73 93 72 68 62 66 70 67 88 94 74 87
68 63 62 63 64 64 65 66 70 73 83 76 93 93 81 77 90 96 100 100 94 75 77 72 93 82 82 81 77 74 78 67 58 64 64 67 78 80 73 80 83 82 92 87 83 90 92
67 64 63 63 65 65 65 66 68 73 82 87 95 94 84 90 98 99 100 97 89 84 82 84 63 74 74 75 84 84 80 69 56 61 69 63 81 97 84 72 66 74 79 82 88 84 97
67 65 64 63 64 65 66 66 67 70 79 96 97 97 89 93 98 98 90 88 91 89 89 77 63 62 69 72 80 74 71 58 59 60 66 62 84 95 90 81 77 81 79 76 81 86 94
66 69 63 65 64 65 65 66 67 68 76 93 97 96 94 96 94 93 88 92 87 78 81 60 63 59 60 66 66 75 70 66 58 55 64 62 80 82 87 79 85 92 85 80 81 99 90
64 72 64 65 64 65 65 66 66 68 74 92 98 98 96 99 90 90 86 89 91 90 76 63 61 59 63 75 75 82 73 69 64 68 70 66 90 94 89 80 86 81 79 81 90 75 92
66 70 68 64 64 65 66 66 65 68 73 96 96 91 86 96 93 93 88 91 86 82 81 78 72 70 65 75 71 81 71 74 71 66 70 71 96 94 93 84 91 96 87 84 80 76 75
67 69 73 64 65 65 66 66 64 65 76 98 97 90 96 86 93 91 86 84 83 78 78 82 80 86 88 86 83 68 63 60 62 72 81 78 94 93 98 77 87 94 85 81 82 79 74
67 68 72 66 62 68 67 65 64 64 72 94 97 98 90 94 96 89 83 79 82 84 81 87 85 85 85 78 76 71 76 69 67 74 69 84 89 93 99 86 94 65 68 67 70 68 72
66 68 70 69 64 65 67 65 63 63 64 78 96 98 97 88 80 91 91 88 83 81 88 89 92 88 87 82 88 83 82 75 78 70 74 69 85 99 98 93 80 68 82 81 80 76 73
67 66 70 72 65 64 68 60 65 59 62 85 94 96 98 98 94 81 96 90 88 88 85 93 89 86 85 93 88 93 92 77 97 95 80 74 74 94 91 93 94 64 80 82 79 81 70
69 69 68 73 66 61 60 64 59 62 62 80 90 88 95 95 86 89 98 96 89 89 89 92 90 88 84 94 95 96 95 81 96 95 99 99 99 96 90 96 86 63 60 82 85 71 75
72 73 67 71 74 70 60 67 62 60 62 77 84 89 92 92 83 84 81 90 87 95 91 85 86 89 96 92 95 95 94 89 90 78 92 91 97 98 98 98 94 70 84 83 66 77 76
75 80 69 70 71 78 65 57 58 63 63 66 84 80 89 96 89 90 77 73 83 75 87 93 85 90 92 94 95 95 96 89 91 90 87 91 83 92 86 78 59 68 73 67 73 76 78

GFSGBSN_sfc_rhum_024.txt.gz
RH
63 65 64 65 64 62 67 69 67 63 57 61 59 61 63 65 65 66 66 67 68 61 59 60 59 63 81 98 82 66 59 66 59 73 82 82 84 76 76 72 66 71 65 57 53 52 54
64 64 67 67 63 61 68 70 65 63 58 61 58 59 61 61 62 63 63 64 64 61 59 60 60 66 92 97 55 53 63 72 65 82 91 77 80 68 68 72 68 63 58 55 53 51 53
65 64 67 64 62 62 71 72 66 65 58 58 66 66 64 64 65 63 66 64 64 62 60 59 60 65 93 82 66 56 73 77 72 77 85 73 70 69 68 72 61 61 68 66 60 56 55
66 66 64 60 60 66 70 71 67 65 62 64 67 63 59 65 63 66 66 66 66 66 64 60 56 76 92 58 84 69 56 92 86 80 75 74 71 72 74 64 63 71 73 84 62 58 56
66 65 63 64 64 64 67 70 68 65 61 68 68 64 60 61 64 65 67 66 65 66 65 61 75 88 85 64 70 57 60 81 88 83 80 65 69 72 75 78 76 76 93 88 68 57 58
67 63 65 63 58 62 68 66 68 64 67 71 70 61 60 60 62 65 65 68 70 70 73 70 73 98 82 78 63 58 74 75 81 85 80 80 86 87 89 73 88 88 86 87 82 60 65
68 60 65 59 63 62 66 64 59 64 67 67 60 61 66 63 65 68 80 86 85 82 78 81 85 79 70 74 56 66 76 76 83 92 85 77 95 90 77 83 73 73 81 83 76 57 62
66 60 65 60 64 64 65 66 56 60 61 59 62 65 74 69 72 72 84 92 83 85 92 64 65 76 72 67 69 68 73 83 85 97 92 96 94 82 72 68 71 73 84 88 73 58 59
61 63 62 60 62 59 69 60 64 66 70 77 81 72 73 77 76 82 86 84 89 90 94 83 85 87 74 57 69 72 78 81 82 88 89 83 85 79 71 76 76 77 80 84 79 63 63
62 66 63 61 61 61 60 66 70 74 76 78 80 89 81 76 82 92 86 86 92 86 95 84 90 86 79 64 75 57 81 77 85 93 94 83 75 85 90 87 71 78 66 66 66 75 85
62 64 63 61 60 61 68 70 71 76 75 75 72 74 82 78 93 91 83 89 89 86 81 84 86 80 71 71 70 68 74 80 76 86 93 92 88 88 81 78 60 70 60 65 71 80 81
63 64 64 62 61 63 66 68 73 76 72 77 78 76 80 88 93 83 91 89 89 88 99 98 91 91 80 76 78 72 62 57 68 73 66 72 57 64 66 61 56 60 64 70 81 82 89
66 62 65 63 62 63 65 68 71 73 73 75 78 80 83 85 93 86 91 90 91 94 99 99 92 77 81 80 81 75 74 80 92 98 100 74 68 61 59 68 61 64 73 89 74 89 80
65 66 64 64 64 64 66 69 72 72 81 78 70 79 83 87 94 89 92 90 94 94 98 91 77 80 88 78 85 82 76 84 71 84 96 94 92 66 62 68 74 76 67 82 59 81 80
65 64 65 64 65 65 66 68 71 75 82 84 77 91 94 89 80 86 96 97 98 99 98 86 73 89 97 84 83 90 88 84 76 74 85 88 90 68 63 65 64 81 89 74 88 91 92
66 67 65 64 66 66 67 67 70 74 81 81 93 92 88 76 85 94 97 98 100 96 69 76 87 86 95 94 92 95 91 73 70 68 71 76 94 74 69 64 67 70 66 85 92 71 75
66 68 65 65 66 66 67 67 69 72 78 77 94 91 82 83 89 96 99 100 86 75 78 75 94 86 91 85 78 80 84 68 65 69 63 69 81 82 72 80 82 79 90 86 81 89 86
66 69 65 66 66 66 67 67 68 71 80 85 94 92 82 94 98 100 100 98 86 88 86 79 71 76 83 81 86 83 83 69 59 61 70 68 84 98 83 74 70 76 80 80 86 82 96
67 69 67 66 67 67 67 68 67 69 76 97 96 95 85 90 99 97 89 91 91 87 86 82 67 66 70 76 79 76 73 63 61 58 63 65 84 96 89 79 78 85 84 76 79 86 98
68 68 70 66 67 66 67 67 67 68 75 94 96 96 95 92 92 93 86 94 88 78 79 63 68 63 65 69 70 75 74 70 63 58 62 61 78 82 86 78 86 94 87 82 81 97 88
67 67 71 69 67 66 66 67 67 68 74 91 98 96 95 99 94 92 91 90 89 90 80 69 65 65 67 81 82 82 76 75 67 69 70 67 91 92 88 80 84 81 82 86 88 82 86
67 68 70 72 65 68 67 67 66 68 75 96 96 98 79 94 94 93 86 88 90 85 88 79 74 76 69 74 71 81 73 78 78 69 75 75 96 95 95 83 91 97 89 83 84 78 74
68 68 70 73 65 67 70 66 66 65 78 98 97 87 96 86 92 91 88 86 84 82 81 88 83 85 88 89 87 69 62 62 70 75 81 77 94 94 97 82 87 92 88 84 84 81 72
67 68 69 71 68 66 70 66 64 65 74 95 97 98 92 96 96 92 90 87 87 87 85 89 86 79 86 82 81 73 73 73 68 80 70 82 87 94 99 86 90 62 70 68 71 69 73
70 69 68 69 72 68 66 66 64 62 68 88 98 97 98 90 76 92 95 95 83 84 90 89 92 88 87 80 84 84 80 76 82 75 77 70 86 98 97 88 78 69 86 77 76 78 70
70 71 72 68 74 65 64 64 62 61 67 84 95 96 97 92 92 83 82 92 92 89 85 92 90 87 85 91 88 93 82 84 93 95 79 74 81 95 85 84 95 60 80 82 79 83 73
72 73 74 73 71 75 71 64 66 62 65 79 89 90 95 90 80 90 96 92 95 91 90 93 91 90 84 93 94 94 95 87 92 98 98 99 99 93 94 95 86 64 61 82 86 71 73
74 73 75 70 69 71 77 70 60 60 63 71 82 88 86 96 92 81 88 90 84 92 95 87 90 90 95 92 93 95 95 94 93 88 92 90 92 96 90 99 93 72 84 79 67 77 76
75 75 77 76 71 72 72 74 76 60 60 69 79 75 86 93 84 80 65 64 76 68 84 89 89 89 92 94 96 95 96 96 90 95 88 93 85 92 89 82 60 63 75 70 76 73 77

GFSGBSN_sfc_rhum_027.txt.gz
RH
61 63 63 65 63 63 64 71 72 69 65 65 59 62 62 62 61 60 61 63 63 64 67 62 58 54 76 94 84 61 60 60 57 68 81 79 76 71 75 67 63 63 60 54 50 50 49
62 64 65 62 64 66 63 71 71 70 67 66 56 64 68 63 62 64 62 64 61 62 62 59 54 60 87 96 57 63 52 74 61 75 79 75 68 60 64 65 61 59 55 52 49 48 47
62 64 65 65 64 60 63 68 68 69 68 64 66 68 65 60 62 62 64 63 62 63 64 63 63 58 87 80 60 78 59 77 62 75 85 71 65 62 61 71 58 57 63 57 55 51 49
62 64 65 63 59 62 66 66 69 68 66 66 69 73 73 66 60 63 63 65 64 63 65 63 59 71 77 59 77 71 62 80 70 75 72 67 63 66 64 58 60 66 61 73 55 56 51
64 64 60 64 60 65 68 66 69 58 60 67 67 73 65 64 59 62 65 65 64 64 64 60 76 80 85 66 74 68 66 74 88 86 79 65 64 72 63 71 76 72 83 77 60 56 54
68 65 62 60 60 63 60 70 64 60 61 65 66 66 63 70 62 66 68 68 68 71 73 70 72 92 79 79 72 73 63 81 83 91 83 78 78 86 74 72 79 84 79 76 67 53 60
65 61 64 66 59 61 64 60 64 71 71 74 74 75 69 70 71 71 80 82 83 80 84 79 75 78 77 73 62 73 78 86 88 87 95 83 91 87 67 61 66 68 72 72 66 55 56
67 61 66 61 60 61 65 68 71 71 72 70 72 76 86 73 68 69 81 88 79 79 86 70 64 72 66 82 74 75 80 93 85 94 89 93 90 70 65 67 65 67 73 75 65 53 52
63 63 62 62 61 63 66 68 74 72 72 75 75 80 76 74 69 84 87 84 92 91 94 84 83 61 83 83 73 76 86 91 84 95 81 84 87 69 68 76 76 77 77 78 71 57 53
64 63 63 61 62 62 67 71 73 72 74 77 77 75 84 71 82 92 86 89 92 83 93 93 88 89 85 76 80 70 93 88 91 93 88 90 80 74 73 78 72 81 63 65 61 66 72
65 64 65 62 63 63 67 71 74 72 76 75 77 77 80 72 92 90 85 89 87 79 89 80 89 77 75 71 76 88 83 76 84 90 93 97 88 93 83 81 62 69 59 62 64 69 66
66 67 63 63 64 64 66 70 71 74 78 74 74 77 78 89 92 92 90 82 82 87 97 96 88 88 79 75 78 91 87 89 74 86 83 75 90 81 86 76 71 58 59 66 70 69 77
66 65 62 64 65 64 66 67 71 76 79 82 70 75 83 88 98 90 90 85 91 94 95 99 97 77 77 86 82 78 82 83 92 99 99 75 68 72 65 67 59 59 72 87 73 86 72
66 68 65 65 65 66 66 67 69 74 78 82 79 75 81 86 93 85 91 90 91 92 99 89 78 82 91 82 82 77 76 83 70 81 98 92 95 69 59 64 70 67 66 81 62 61 58
66 68 66 65 66 67 67 67 68 72 78 82 76 88 90 82 79 84 93 97 95 99 98 85 71 91 92 85 82 90 88 80 73 71 84 85 91 67 65 62 62 75 85 61 85 83 80
67 71 66 65 67 68 68 68 68 71 80 81 93 91 88 78 89 94 98 98 100 95 77 75 86 86 94 90 93 85 87 75 72 67 67 72 96 72 68 63 65 68 64 81 88 77 60
66 68 67 66 67 67 68 68 68 70 77 76 93 88 79 92 92 97 100 100 89 82 79 77 91 90 91 88 86 88 86 67 62 67 62 69 79 83 71 76 78 75 84 80 75 78 71
67 67 70 67 67 68 68 68 69 68 76 85 94 92 81 92 96 99 100 98 86 88 84 72 74 77 85 83 85 84 79 68 57 58 69 67 82 93 79 70 66 70 74 68 80 80 88
66 66 72 71 68 67 68 68 68 68 75 97 95 93 84 90 98 97 83 84 91 86 83 77 72 70 72 76 80 74 70 62 60 57 65 63 81 96 86 78 75 79 76 68 73 80 96
67 67 69 74 68 69 68 68 68 67 76 94 96 94 94 95 94 92 94 94 88 81 78 66 71 65 68 71 71 76 74 74 63 58 64 59 75 79 75 75 82 91 82 72 77 90 80
69 67 67 71 69 69 70 68 67 66 75 92 98 97 92 98 93 96 94 92 90 91 84 70 69 67 69 82 84 83 79 78 67 70 67 65 91 91 80 71 83 80 80 82 86 75 82
70 68 69 70 71 68 69 68 67 66 73 96 96 97 86 95 94 94 84 91 91 88 91 80 76 82 72 74 68 82 75 82 78 77 72 74 96 94 90 80 88 95 84 82 80 73 74
70 71 68 69 73 69 68 67 66 66 76 95 92 87 96 88 94 93 90 86 87 87 87 88 81 77 87 89 88 79 69 66 67 74 81 74 94 92 91 78 82 93 85 83 79 79 69
70 71 69 70 72 69 65 67 63 66 74 98 99 98 92 96 96 96 93 95 88 88 85 89 87 78 82 78 77 69 73 74 71 79 67 79 87 92 96 81 89 58 67 68 72 69 71
68 68 70 72 69 72 69 66 65 62 67 93 96 93 95 83 79 92 91 97 91 82 89 89 93 88 87 81 83 83 78 74 78 85 84 64 82 97 95 85 71 71 80 78 76 74 64
71 71 73 73 72 72 85 75 68 64 67 82 94 96 95 91 85 77 76 78 98 92 86 91 91 88 85 91 87 90 92 80 96 94 80 82 77 83 86 90 88 59 80 74 74 83 67
75 77 73 74 69 70 71 81 73 62 65 76 88 89 94 97 87 75 91 87 86 95 94 91 93 92 86 93 92 93 92 82 95 88 96 99 99 97 91 89 82 61 61 76 79 71 63
77 77 74 75 75 71 68 69 81 72 61 76 84 87 88 92 87 75 89 95 90 89 95 88 92 91 93 91 88 89 94 94 93 87 74 82 95 84 78 88 94 69 80 75 64 70 70
80 77 74 76 79 78 72 70 80 70 62 72 89 75 83 92 86 70 64 62 72 70 77 83 96 90 92 93 95 95 96 97 93 85 90 95 82 89 81 79 61 65 67 67 72 68 71

GFSGBSN_sfc_rhum_030.txt.gz
RH
62 63 66 67 67 64 58 60 66 70 68 69 69 67 66 67 61 61 61 60 62 59 61 65 63 52 55 69 62 58 73 55 57 51 62 64 65 64 62 52 50 47 45 38 36 42 40
61 66 67 60 65 61 62 71 70 69 67 66 68 67 67 75 66 63 62 62 62 60 60 60 58 58 61 73 31 62 77 62 55 52 59 58 51 49 50 54 49 42 44 39 38 38 40
61 68 65 65 61 62 65 61 71 71 65 59 62 67 74 77 85 68 62 60 62 60 61 62 63 52 64 58 48 70 74 64 53 50 63 53 43 51 48 57 44 45 49 44 44 40 37
66 62 62 64 65 61 66 66 61 62 62 69 66 69 72 69 69 62 62 62 65 64 62 65 62 58 69 36 47 64 68 55 56 50 54 59 44 46 44 43 47 45 42 55 34 37 38
66 62 63 63 59 62 64 62 68 70 73 72 71 72 72 74 68 61 63 68 64 63 62 62 60 58 60 50 64 57 62 63 69 62 60 59 53 52 50 50 54 45 37 38 44 42 34
67 62 61 65 60 62 66 67 67 73 69 71 70 72 76 66 67 69 69 68 68 68 63 56 55 73 54 57 58 64 59 68 75 84 79 74 70 62 47 46 47 51 39 43 36 41 47
67 61 63 62 61 61 67 70 72 73 69 73 72 73 78 66 65 63 64 63 64 69 65 50 47 65 59 53 55 60 68 79 73 76 87 71 80 74 46 41 41 40 42 40 42 47 45
63 63 62 62 62 62 67 70 72 71 67 72 72 79 84 70 65 68 63 61 70 68 62 52 57 62 59 59 69 64 68 91 90 88 82 92 84 49 40 47 48 47 47 47 50 43 42
64 66 62 62 62 63 65 71 71 71 70 72 72 79 70 71 71 67 65 72 72 70 80 79 70 71 65 70 68 71 70 93 80 90 81 92 66 44 51 50 53 50 50 58 47 47 42
64 67 63 63 64 63 65 70 72 75 75 73 74 80 77 68 64 72 69 76 73 65 97 95 92 88 88 87 86 83 87 94 87 96 87 92 78 52 48 57 46 55 52 55 55 53 44
65 68 64 65 64 64 65 68 71 74 78 76 74 74 74 70 70 71 76 72 71 69 90 77 92 79 77 72 81 94 90 82 86 94 92 97 91 65 63 55 48 52 50 50 52 53 52
66 67 64 66 65 65 65 67 69 71 74 80 71 73 72 73 70 78 70 65 67 97 94 98 92 83 81 69 74 80 89 80 72 84 86 92 83 85 86 68 50 45 46 48 50 50 73
66 67 66 66 66 66 66 66 68 69 73 77 81 71 69 70 68 68 69 72 97 91 98 99 90 73 65 80 85 79 90 90 88 99 100 96 97 84 86 86 63 51 59 81 79 90 59
67 68 66 65 67 67 67 67 67 69 73 78 80 71 72 65 70 67 71 81 95 97 100 85 67 64 76 65 92 85 78 82 60 72 82 90 95 96 88 73 87 57 56 64 59 48 40
67 69 67 66 68 68 68 67 68 68 76 79 76 63 70 65 68 71 80 99 98 100 96 66 56 69 74 68 66 65 65 63 55 54 75 77 90 62 57 52 52 63 77 45 67 60 57
66 65 70 67 70 70 69 68 68 68 76 79 71 71 68 63 70 77 87 98 97 89 72 57 67 63 70 73 63 60 64 57 57 52 48 60 92 61 56 51 50 53 46 67 80 74 49
66 66 70 71 69 70 70 69 68 68 74 78 73 71 68 72 76 80 100 100 81 70 65 59 66 63 66 71 63 64 60 57 50 52 45 51 60 76 60 60 57 58 61 58 51 56 49
66 66 68 73 71 70 68 69 68 67 76 81 74 87 70 74 86 86 95 88 82 71 64 54 55 60 59 60 62 61 52 53 45 44 50 52 66 83 68 57 53 52 52 43 53 73 61
68 67 68 72 71 69 70 70 69 67 73 92 79 78 66 76 85 80 68 70 73 65 63 55 56 54 53 56 62 56 58 51 48 46 49 48 67 90 85 66 59 64 57 52 54 64 81
67 67 66 67 74 70 70 69 68 67 70 82 81 89 73 73 76 70 75 73 69 66 59 52 54 48 49 52 50 57 58 61 51 47 63 52 58 73 57 78 63 81 63 56 60 75 54
71 70 67 66 71 70 70 69 67 67 71 74 86 90 79 90 77 74 77 75 71 69 64 53 53 51 48 55 56 57 59 58 54 62 53 50 97 85 58 60 70 66 65 64 81 56 64
70 70 67 68 70 73 68 69 66 68 71 74 86 87 68 75 76 72 71 71 74 70 75 57 55 53 50 49 44 55 54 54 55 59 53 56 92 86 85 68 71 80 63 60 62 57 54
68 71 69 69 70 73 70 68 66 69 67 81 84 78 92 77 73 67 70 71 72 70 68 70 60 58 60 61 60 53 45 43 46 52 58 60 90 89 80 63 65 75 63 62 61 58 54
68 67 70 71 73 72 76 74 70 68 70 78 84 94 80 74 68 71 76 81 76 76 76 68 66 59 60 51 49 45 47 51 50 54 46 61 79 86 86 69 79 52 50 51 56 50 51
69 69 73 71 74 70 75 75 72 67 68 64 79 85 82 64 63 65 74 84 75 66 70 74 73 72 61 59 58 60 61 61 67 65 54 49 60 86 82 71 52 48 62 59 61 58 47
70 76 74 72 74 71 68 73 79 70 65 63 79 81 82 81 55 66 65 68 84 74 64 73 74 69 65 68 65 71 65 55 72 75 63 60 53 61 69 78 57 45 59 55 53 66 52
71 75 75 73 73 73 70 74 76 84 69 68 79 75 78 74 51 67 65 66 70 87 81 70 77 77 68 72 72 69 65 54 70 77 86 77 80 78 74 69 49 38 52 56 66 58 49
73 76 75 74 75 78 78 76 77 84 68 73 77 75 70 78 61 55 64 63 54 63 83 78 80 82 85 85 80 74 66 62 65 57 61 65 75 80 74 79 78 46 57 52 48 50 49
77 76 74 74 76 78 77 74 72 80 82 72 77 69 73 83 68 55 47 43 46 52 65 68 91 82 72 80 76 74 71 70 64 69 58 72 56 54 53 51 40 48 49 51 53 54 54

GFSGBSN_sfc_rhum_033.txt.gz
RH
62 65 66 65 63 61 63 65 67 69 69 68 65 62 66 68 68 65 68 65 63 60 58 61 68 60 53 54 41 57 67 71 67 56 60 49 47 60 58 44 36 42 28 26 26 34 31
63 64 61 64 62 62 64 62 62 63 65 64 67 69 67 68 69 80 76 69 63 59 58 60 60 58 54 65 22 39 66 60 72 75 47 41 39 46 48 41 40 39 35 32 30 36 35
66 64 62 62 67 61 64 64 67 69 72 70 70 70 72 69 62 67 76 69 64 61 59 61 63 52 55 50 30 54 73 56 59 79 42 38 33 49 42 49 37 37 40 38 33 34 34
66 63 63 64 60 62 66 66 68 71 71 66 69 70 71 72 71 66 64 62 63 64 63 64 63 49 59 30 29 37 75 69 61 66 35 42 33 41 42 36 41 43 43 49 36 39 33
66 62 64 64 60 62 65 68 69 71 65 66 72 72 72 72 61 62 64 65 66 63 62 60 58 54 50 40 40 33 70 66 55 69 46 46 44 49 42 46 50 43 44 38 34 32 35
63 63 62 63 62 62 69 73 69 72 66 70 73 75 78 66 65 64 65 66 67 66 60 48 48 63 44 47 49 67 71 82 92 62 78 76 68 50 45 40 46 40 36 28 28 40 35
64 64 64 62 63 63 69 72 70 72 69 71 76 80 74 68 65 66 59 57 64 65 54 46 41 49 57 57 54 73 80 93 66 72 84 75 75 66 42 31 25 23 31 27 24 37 41
65 65 64 63 63 63 67 70 71 73 72 74 77 74 73 68 68 63 52 55 65 65 55 41 44 51 53 54 72 68 72 88 73 78 53 86 78 42 32 30 35 36 34 36 32 36 39
65 66 64 64 64 65 65 68 71 73 75 74 76 69 72 69 65 53 55 66 60 58 80 79 66 66 69 69 64 81 75 86 80 62 68 71 60 41 42 38 42 36 36 35 42 42 36
65 66 65 65 65 66 65 65 68 70 74 78 74 71 69 68 69 58 62 65 62 64 99 96 83 78 70 79 92 82 81 80 89 65 76 76 60 50 49 47 34 42 33 42 50 48 34
66 65 65 66 66 66 66 66 66 67 73 77 77 73 70 68 57 62 65 58 58 67 95 94 91 78 84 85 78 88 81 89 91 91 93 96 82 56 51 42 34 46 43 46 50 52 49
67 67 67 67 67 66 67 67 67 68 69 75 78 77 73 61 57 59 57 55 63 99 97 99 90 90 91 80 77 84 85 83 80 88 84 93 85 78 71 45 36 42 45 47 47 48 74
67 67 68 67 67 70 70 68 68 68 69 74 77 80 69 56 56 53 57 63 99 95 97 96 86 79 70 79 83 80 95 95 97 100 100 98 97 91 79 60 48 46 52 80 80 89 64
67 66 70 67 68 68 73 72 68 69 70 75 79 83 63 51 54 59 65 83 97 91 100 70 67 56 87 83 89 75 90 93 65 71 99 99 98 96 87 77 69 57 50 66 65 58 47
66 66 71 70 70 69 70 73 70 70 75 78 81 53 59 54 56 62 72 100 97 100 82 55 48 62 76 58 69 71 55 61 66 54 84 94 96 87 89 69 56 69 75 41 56 38 47
67 66 69 72 72 70 69 68 70 70 74 79 61 55 56 53 58 72 78 98 90 78 64 48 56 51 60 56 51 46 48 47 52 45 42 54 87 87 84 70 66 65 46 71 78 80 42
66 68 68 69 72 70 70 71 69 69 72 78 61 57 61 57 69 66 97 91 63 57 55 52 51 50 54 57 47 45 48 50 42 44 39 44 54 70 69 66 62 58 65 53 51 51 54
67 69 67 67 74 72 71 71 69 68 72 72 68 85 64 62 72 63 79 76 76 57 51 47 46 48 46 48 49 47 45 46 39 38 44 47 58 82 66 51 46 45 44 41 55 67 47
68 67 68 67 72 72 71 70 69 68 67 83 63 56 60 64 77 58 58 57 59 51 51 45 48 46 44 46 53 48 47 44 43 41 42 43 66 90 78 60 52 59 49 45 45 56 74
69 68 69 67 69 72 70 70 69 68 68 71 67 88 55 50 56 48 54 53 55 59 49 45 45 41 44 45 40 50 51 52 44 42 60 49 49 72 60 76 52 68 53 50 57 73 46
70 61 67 67 69 72 71 70 69 68 67 68 64 82 72 81 58 59 62 60 56 57 53 45 47 44 40 46 42 47 48 51 48 58 45 44 96 80 49 53 62 60 54 54 74 55 56
63 67 68 68 70 71 74 73 71 68 68 62 79 91 66 57 59 59 63 60 62 58 59 48 50 43 39 41 37 44 45 44 46 48 46 48 87 79 90 57 60 70 55 50 52 51 43
61 69 70 70 71 73 74 74 70 70 58 53 59 66 80 64 58 54 57 61 64 61 59 56 51 45 46 45 43 41 35 35 39 46 50 53 84 92 77 57 59 70 56 53 51 47 43
65 68 71 72 72 72 73 73 73 71 63 49 59 82 77 58 52 57 63 66 65 66 68 55 54 53 53 42 39 37 38 40 40 42 39 53 71 80 87 68 83 52 43 41 46 44 43
69 73 75 72 73 73 70 71 75 74 69 58 61 61 60 51 38 46 60 66 61 56 61 64 62 60 45 51 52 57 56 52 52 48 45 39 50 74 80 64 45 35 42 52 52 52 41
69 72 74 73 73 74 71 74 76 78 75 58 69 69 58 60 48 54 50 52 67 57 56 62 63 59 59 58 56 62 60 46 61 61 51 47 44 60 61 69 56 45 48 42 43 60 41
70 73 74 72 74 75 76 74 78 76 69 65 71 68 65 64 35 51 47 60 57 66 69 59 66 70 62 63 67 60 56 43 55 61 68 68 62 72 64 64 46 33 52 48 67 62 48
73 75 74 74 75 76 76 72 72 73 78 72 67 68 62 69 58 49 44 47 40 46 63 71 70 73 79 78 68 61 51 47 46 45 53 58 64 64 58 68 72 37 53 56 49 46 45
75 77 76 75 76 74 77 77 75 74 76 79 76 61 64 81 64 53 49 44 43 42 55 56 79 72 76 73 59 55 51 48 49 54 42 57 45 47 46 47 35 37 37 43 46 48 49

GFSGBSN_sfc_rhum_036.txt.gz
RH
66 67 62 62 63 62 64 64 66 68 70 70 66 69 68 72 67 67 68 71 67 63 65 63 64 72 59 62 53 43 49 55 59 65 55 68 49 64 72 56 44 50 39 31 29 38 38
64 66 62 63 62 64 66 65 67 71 71 63 65 68 69 71 67 63 68 72 69 62 60 58 59 60 60 70 29 42 59 64 66 72 52 56 44 47 56 49 48 41 40 36 31 40 39
65 64 63 63 61 65 67 68 70 72 66 68 70 65 70 73 63 63 65 64 70 69 61 58 60 55 62 53 35 55 58 60 63 70 56 47 38 45 55 59 41 39 50 42 38 41 41
64 64 63 62 62 63 66 68 70 71 70 70 71 71 72 77 65 62 62 60 61 62 62 62 60 54 63 33 32 32 59 70 57 66 70 49 43 40 53 47 47 48 50 61 42 40 38
65 65 67 64 62 61 67 67 71 71 70 71 73 74 70 65 64 62 64 63 63 63 60 60 61 61 57 40 39 32 35 64 57 71 72 70 61 47 58 65 72 56 62 59 46 39 40
66 65 63 64 63 63 64 66 70 72 70 72 74 72 70 67 65 64 63 64 63 65 61 47 45 62 46 42 39 35 43 70 71 86 83 94 78 63 64 75 89 70 57 48 49 43 44
66 65 64 64 64 64 64 68 69 71 72 71 71 73 72 67 67 62 68 69 77 71 57 55 53 49 45 50 43 54 65 84 74 86 95 87 85 80 64 53 49 39 44 42 34 40 45
66 66 65 65 65 65 64 64 67 72 72 75 73 72 72 69 66 64 65 57 63 66 71 43 40 42 45 55 72 71 67 89 86 96 72 89 89 55 48 40 39 38 40 40 35 40 45
66 66 66 67 68 66 66 66 65 66 71 74 77 73 71 70 68 68 61 65 58 58 94 75 66 66 70 80 81 83 78 83 90 88 80 79 62 46 41 41 40 44 43 38 47 48 44
66 67 67 65 66 68 68 67 66 66 66 71 76 77 74 73 77 60 68 62 63 64 100 95 84 83 75 91 94 86 87 86 86 72 66 82 58 52 47 44 35 48 36 37 51 58 62
67 67 68 67 69 69 72 73 68 67 68 68 74 78 78 73 76 64 62 59 59 72 96 89 86 66 80 91 90 96 86 70 86 78 86 96 79 71 60 50 37 44 46 49 55 62 72
67 68 68 68 65 66 67 71 73 69 69 71 72 79 78 66 73 56 60 61 73 100 98 98 88 78 84 71 75 77 80 74 81 78 82 92 82 87 84 54 40 46 54 55 60 62 93
68 67 70 69 70 70 67 67 69 71 70 70 74 75 78 57 70 58 64 76 99 95 97 94 93 87 70 75 79 77 93 96 98 99 100 95 97 85 77 72 56 50 67 92 96 97 91
67 67 69 70 70 69 69 70 68 70 71 75 80 80 76 54 57 65 77 95 90 84 100 69 75 68 76 74 81 87 96 99 90 85 100 98 99 96 86 80 71 63 62 88 78 92 79
68 68 70 70 70 70 70 70 69 71 76 76 83 71 67 65 62 68 90 93 92 100 75 57 52 81 84 66 65 89 89 94 87 82 98 98 99 94 86 79 64 78 89 54 77 52 83
68 69 70 69 68 71 70 70 70 72 74 76 77 66 66 60 64 78 93 88 87 74 62 50 61 53 64 56 58 62 66 69 69 58 53 65 98 94 92 81 76 68 52 81 95 84 69
67 68 68 69 70 70 69 70 70 69 72 77 82 69 72 65 75 86 98 92 61 53 52 55 50 47 53 58 52 48 54 52 44 45 43 53 71 98 94 98 91 84 88 75 69 78 90
68 66 67 66 69 72 72 71 70 69 72 74 85 95 73 73 93 77 92 70 73 53 52 47 50 50 50 50 53 51 55 52 42 43 52 55 69 95 92 59 51 67 68 65 88 82 74
66 66 67 67 70 72 72 72 72 68 67 81 78 69 74 77 91 69 63 56 55 52 52 46 48 49 46 49 54 52 54 50 49 50 54 52 81 95 83 70 59 68 56 56 59 79 86
70 63 65 68 70 72 72 74 72 68 67 81 77 93 79 76 63 65 63 55 60 66 52 46 46 45 50 50 45 56 57 58 50 49 60 56 62 83 89 83 73 80 63 59 72 93 68
67 64 70 69 70 73 73 74 72 70 70 79 67 85 72 97 72 67 64 62 57 62 57 49 51 47 45 52 49 53 56 58 55 62 56 58 92 84 59 59 75 74 66 62 79 70 77
63 68 69 71 70 72 73 74 73 73 70 67 82 91 75 71 62 63 72 63 62 58 59 51 55 46 45 48 45 52 52 54 57 57 59 62 95 90 86 61 68 80 65 57 61 61 59
63 68 70 72 71 72 72 74 75 72 66 58 61 65 85 68 62 63 70 67 63 66 63 56 60 59 53 66 57 50 45 42 49 57 61 67 94 94 89 65 71 86 70 63 59 56 56
69 72 74 72 72 72 72 74 76 74 70 64 69 83 73 68 55 63 62 62 65 67 72 60 61 62 59 47 47 48 51 49 47 52 49 66 84 95 96 86 96 61 52 51 54 51 51
67 72 73 72 73 74 75 74 75 76 72 69 68 73 68 60 39 46 52 56 62 60 68 67 70 68 54 62 66 62 66 60 52 56 55 51 71 91 96 92 63 51 56 57 57 57 45
67 72 74 73 74 76 76 75 77 74 70 72 76 77 69 68 51 43 49 43 73 71 62 69 69 69 72 80 72 77 84 59 72 69 61 52 55 70 76 86 81 67 52 50 52 85 52
68 71 74 73 74 75 76 73 74 74 76 81 81 77 77 70 48 51 61 76 62 72 78 66 70 77 78 83 76 77 75 52 66 61 74 78 76 88 81 73 64 61 58 55 89 78 52
72 74 76 74 75 74 75 77 76 75 74 86 82 75 80 74 65 57 48 54 54 51 68 65 77 78 78 86 85 78 72 58 59 53 66 76 81 79 73 79 85 62 66 79 66 61 60
75 76 79 78 76 74 76 76 73 73 75 82 91 69 67 89 71 64 59 56 56 54 62 62 71 74 93 96 87 77 72 60 62 72 54 68 61 67 62 65 51 49 57 59 59 61 66

GFSGBSN_sfc_rhum_039.txt.gz
RH
64 64 63 63 60 64 64 68 65 67 69 64 68 66 65 68 70 65 63 64 69 65 63 65 68 73 68 75 67 37 45 51 61 71 67 73 67 84 89 70 56 62 49 43 47 58 61
64 65 64 62 61 62 67 68 69 70 66 67 67 67 68 70 65 64 65 65 67 62 60 59 67 73 74 88 41 53 58 50 66 75 68 73 56 66 75 64 61 50 49 45 39 48 45
65 63 65 63 62 62 68 69 70 69 66 68 69 71 74 70 67 64 64 63 63 65 64 58 60 58 72 66 42 60 61 72 67 72 68 63 57 60 61 68 51 48 54 48 46 46 43
65 64 61 64 63 63 62 68 68 69 67 69 69 67 68 66 65 64 64 60 60 62 61 60 59 66 82 41 45 39 60 72 62 77 77 69 68 56 72 60 60 57 55 70 48 46 42
65 65 65 65 64 64 63 69 68 68 69 68 70 72 68 66 65 65 65 63 62 62 60 59 72 77 73 42 51 41 44 59 60 75 79 63 70 69 63 77 83 78 78 71 54 44 44
66 66 66 66 65 65 64 62 67 69 72 72 70 70 72 69 67 64 65 64 61 65 65 54 49 66 58 51 57 42 55 69 72 86 82 78 86 85 82 85 92 79 68 60 60 50 45
66 65 66 66 68 65 65 64 64 64 69 74 75 72 70 70 70 67 75 88 81 85 73 64 62 61 46 51 52 54 75 76 80 79 86 86 97 89 69 75 65 61 59 58 54 43 53
66 66 66 64 64 70 70 69 65 65 63 67 74 77 74 71 71 71 70 73 65 70 87 62 53 50 47 57 73 78 75 82 88 92 82 97 96 71 60 61 64 57 61 57 48 45 51
67 66 66 67 67 66 65 70 74 67 67 67 67 75 76 74 73 77 77 77 70 70 95 77 64 71 77 71 72 88 77 82 88 89 93 93 77 57 59 61 58 57 54 54 54 52 49
67 67 66 67 65 67 68 66 67 73 69 70 69 72 75 77 84 73 82 72 73 76 100 97 87 89 78 81 90 82 83 81 92 87 80 78 65 60 60 59 50 61 44 48 57 60 66
68 68 67 67 70 69 69 69 69 66 70 71 70 71 74 76 90 84 74 69 73 83 97 82 87 84 88 94 84 83 82 89 88 94 86 96 88 74 65 56 45 52 51 58 60 67 67
68 68 70 67 73 69 71 70 69 70 71 71 71 73 73 82 93 69 69 74 78 98 97 99 89 93 96 91 92 88 92 80 74 87 85 91 84 94 87 64 50 50 58 62 66 71 91
68 69 70 68 66 72 71 70 69 70 71 72 72 76 75 70 84 63 75 86 99 97 88 96 92 78 71 79 83 78 92 94 97 99 100 95 97 83 82 76 61 60 73 97 95 96 92
68 70 68 69 68 70 72 71 69 70 72 76 78 82 86 74 72 74 85 97 93 87 100 80 75 73 83 75 89 86 94 97 86 94 99 96 99 94 86 82 82 79 68 88 89 97 89
68 69 69 68 67 64 68 69 70 73 76 76 80 94 89 80 71 78 95 96 95 96 82 70 66 83 79 74 86 91 95 95 89 88 93 99 97 91 84 89 81 79 82 61 75 74 88
68 68 68 68 69 68 68 70 70 73 74 76 98 94 85 77 74 86 94 92 94 83 72 65 69 63 71 66 74 86 94 83 89 71 70 78 98 96 88 82 77 75 58 85 93 92 75
68 66 64 65 69 72 71 72 69 70 74 74 98 92 84 77 88 91 97 90 78 62 61 67 64 62 65 66 61 64 72 73 73 70 58 63 83 99 96 97 96 86 87 76 76 87 91
66 64 64 68 70 72 71 72 72 72 74 83 98 98 86 90 97 97 96 82 72 65 62 62 61 59 62 60 60 70 74 62 46 49 72 57 84 99 98 80 71 72 79 69 89 83 80
67 65 68 69 70 73 72 72 73 71 68 88 99 93 88 90 97 89 75 72 70 65 61 56 57 56 55 56 64 62 66 54 52 56 54 57 85 98 99 90 78 90 82 78 72 79 86
68 66 69 70 70 72 72 73 74 70 69 93 98 93 85 98 74 72 78 69 76 70 65 55 55 53 58 56 51 66 71 62 54 56 64 59 73 82 86 78 81 85 74 75 92 97 74
65 68 69 70 70 72 72 74 76 75 74 93 92 90 80 97 89 81 72 67 62 66 69 57 61 57 55 61 59 65 68 70 61 64 61 66 86 80 70 70 77 74 71 70 81 69 75
63 68 70 70 71 72 73 75 77 77 67 82 83 96 83 97 79 82 80 72 75 72 69 63 64 55 51 70 67 64 62 66 67 70 66 73 94 88 83 65 72 82 72 70 65 61 65
66 72 71 71 72 72 74 76 76 76 73 86 89 88 95 78 76 81 76 74 73 78 68 65 69 72 73 71 70 66 56 52 55 66 70 78 91 94 92 74 77 80 74 68 68 60 58
69 72 72 72 73 75 74 75 75 72 77 86 89 94 95 78 53 57 56 65 74 75 81 72 76 72 62 59 59 57 54 54 55 64 59 84 86 94 96 88 96 53 60 57 57 58 59
68 73 74 73 74 76 75 76 75 75 74 87 91 96 91 88 55 49 55 56 64 73 80 80 84 84 78 77 74 71 73 62 60 60 64 67 83 94 95 97 66 59 61 60 67 64 53
67 71 74 73 75 76 76 74 75 75 76 91 94 94 91 84 70 52 56 62 90 90 76 86 80 78 81 91 85 82 88 73 81 70 66 62 59 78 88 93 88 66 56 52 57 76 56
67 69 74 74 75 74 76 78 76 75 75 92 89 85 95 94 66 66 70 82 63 67 80 81 70 78 82 94 91 83 78 58 80 84 69 78 82 90 83 82 68 52 54 59 86 74 58
71 72 75 76 75 74 76 75 75 75 77 91 94 79 88 96 88 66 58 63 63 70 79 71 84 87 88 90 91 88 81 66 73 67 78 79 88 92 89 87 88 66 68 77 66 69 68
73 75 79 80 76 74 75 76 74 75 74 83 92 82 73 95 88 77 68 65 71 66 74 73 69 76 94 98 96 98 84 74 75 83 72 80 71 77 73 72 52 65 63 64 62 64 71

GFSGBSN_sfc_rhum_042.txt.gz
RH
64 64 64 63 62 61 67 69 69 70 64 64 64 70 70 67 66 65 66 66 64 60 61 61 64 75 78 71 70 44 62 50 50 73 84 69 89 90 90 80 69 63 59 55 62 75 77
65 64 63 64 63 63 64 68 70 70 64 64 63 64 66 66 65 65 66 64 62 65 60 63 72 67 69 85 45 46 59 50 60 78 82 69 77 78 80 75 71 60 52 56 68 71 71
65 64 65 64 64 63 61 68 71 69 67 66 65 67 66 65 64 64 65 63 62 69 62 60 67 69 77 72 47 48 61 69 63 71 78 73 59 75 71 76 62 53 63 57 55 56 55
65 65 65 66 64 63 63 61 69 73 73 67 67 68 67 66 64 64 63 63 64 63 61 60 59 67 82 47 43 46 54 73 71 78 65 75 61 64 74 68 70 61 59 72 53 51 46
65 65 64 66 65 62 65 63 62 65 73 72 71 69 69 69 66 65 66 64 61 62 60 59 75 79 76 44 49 41 48 60 68 80 82 61 68 78 70 78 91 85 83 70 59 48 48
66 64 65 64 64 70 71 68 64 63 60 68 71 76 72 69 70 71 69 66 61 66 66 61 58 82 58 58 54 48 50 61 73 88 89 83 88 90 83 86 85 80 80 59 57 53 49
67 65 66 65 66 65 62 67 66 70 65 64 67 74 76 73 71 72 80 82 82 80 76 74 68 66 52 50 56 73 64 66 78 83 96 92 88 88 84 79 70 67 61 67 60 49 51
67 66 63 66 66 66 67 66 62 62 74 67 68 67 75 75 73 73 77 75 78 73 86 66 63 60 54 63 74 79 62 81 88 91 91 96 87 72 68 68 70 64 65 65 53 47 52
68 67 64 67 68 69 67 66 67 66 65 71 66 67 72 74 77 77 83 84 75 71 90 80 69 75 85 77 75 86 71 79 85 86 93 89 75 68 66 75 76 75 72 62 56 53 50
68 68 64 68 68 68 68 68 68 67 68 70 70 68 72 73 85 81 84 74 76 75 99 97 86 87 76 84 89 82 76 84 89 84 85 86 68 72 71 70 63 79 49 51 57 62 74
69 69 67 67 68 72 70 70 69 69 70 71 71 70 75 71 89 89 76 74 77 84 97 93 95 82 82 86 87 90 84 79 88 89 89 96 81 72 73 66 49 58 51 62 64 68 68
69 69 67 69 69 66 73 70 68 68 71 72 70 72 74 85 96 80 74 77 78 92 96 100 94 93 91 81 85 88 84 81 74 85 85 92 84 88 77 69 51 57 63 67 76 74 88
68 69 68 66 71 68 63 68 68 69 70 71 72 76 74 77 90 73 79 91 96 94 82 90 94 98 91 96 91 77 84 96 97 99 100 97 96 84 87 72 62 62 70 94 92 94 86
68 69 66 68 66 65 66 65 68 66 70 73 76 81 84 81 78 79 83 94 91 84 100 74 81 88 98 94 93 91 96 98 91 87 99 98 100 94 88 83 81 75 67 89 86 97 87
68 69 66 64 65 65 70 66 65 70 75 77 80 96 96 89 78 83 89 96 84 95 78 80 71 86 98 93 90 89 88 89 82 91 90 96 98 88 83 91 84 82 86 69 78 82 91
67 66 65 67 68 71 71 70 71 71 75 74 98 96 90 81 79 88 91 91 92 82 77 77 78 63 74 82 93 95 91 76 82 82 84 89 97 95 88 84 83 80 64 84 93 89 79
66 65 65 67 70 73 71 70 70 71 72 73 97 93 88 82 88 91 96 93 84 70 71 70 72 66 66 68 75 81 88 80 77 80 78 78 85 99 92 97 88 88 96 87 84 82 90
64 64 66 68 71 73 71 71 73 70 74 84 97 97 89 91 99 98 95 84 74 68 65 68 64 64 68 64 68 80 74 68 69 64 86 77 92 99 97 83 72 75 87 68 92 93 88
68 66 68 70 70 71 69 73 74 70 70 94 98 96 94 93 98 91 79 76 73 71 67 62 63 59 60 61 72 73 70 59 63 60 69 63 90 98 98 90 84 96 88 76 71 81 87
66 68 69 69 69 72 73 75 76 71 68 94 96 93 90 96 92 88 84 74 81 72 68 59 60 55 59 57 60 74 75 64 58 55 62 59 80 82 83 77 86 98 89 83 84 94 76
64 68 70 70 71 72 74 76 76 71 66 88 96 92 84 95 78 77 77 76 71 70 70 62 65 61 63 67 67 78 76 71 61 64 64 62 85 83 73 76 80 79 78 81 95 71 86
67 70 70 70 72 73 74 76 74 75 64 82 97 92 94 92 82 81 81 81 76 76 75 76 70 71 68 78 74 72 68 76 71 76 76 76 95 84 82 71 80 81 74 77 79 79 79
71 71 70 72 73 74 75 76 76 75 73 91 96 90 98 76 63 78 78 75 76 81 73 73 74 75 74 73 72 75 60 56 59 67 75 81 91 91 88 79 76 80 72 72 73 66 68
73 73 72 72 73 75 75 75 75 75 78 87 95 96 91 79 57 58 49 53 57 75 80 75 81 71 75 76 72 71 62 62 62 75 68 86 85 92 96 85 91 58 62 54 60 63 57
74 74 72 74 74 74 74 74 75 75 78 91 96 95 95 78 63 44 51 54 72 78 83 84 84 84 86 80 76 78 82 73 68 65 73 72 87 95 96 97 71 64 67 67 70 63 54
72 74 73 74 74 75 77 76 74 75 76 94 96 95 96 85 77 63 61 78 89 93 83 84 78 73 82 93 88 88 94 73 80 67 66 62 62 83 94 96 90 63 63 54 58 77 61
70 72 76 74 74 74 75 75 75 76 78 95 95 90 92 95 83 73 76 74 68 66 75 73 64 82 83 94 93 91 87 68 86 87 86 79 79 89 91 85 76 54 56 58 78 67 68
72 73 74 78 74 73 75 75 75 74 76 90 94 88 86 97 92 74 65 72 75 75 83 72 85 84 89 91 92 89 87 75 78 73 80 77 87 93 87 96 90 62 68 75 65 75 73
75 77 78 82 77 74 73 73 75 76 77 83 96 90 76 95 89 85 77 72 69 69 78 80 75 88 93 96 95 97 94 73 80 86 79 79 70 80 79 76 52 59 61 61 63 65 72

GFSGBSN_sfc_rhum_045.txt.gz
RH
65 64 64 63 65 63 61 68 70 72 65 64 64 64 64 64 63 66 66 65 63 61 63 62 63 74 72 79 70 44 51 47 53 62 82 72 90 76 69 91 82 81 62 50 74 75 73
65 64 64 63 64 66 62 60 68 71 72 66 66 66 65 65 64 64 65 63 61 66 60 64 66 67 73 94 43 45 43 57 58 67 79 71 84 63 76 84 84 72 61 70 76 73 70
65 64 64 63 63 66 66 63 61 65 68 68 67 67 68 67 65 65 64 64 63 63 62 60 61 62 75 72 46 49 51 73 56 67 79 72 69 81 79 83 66 70 75 86 84 76 82
66 65 62 64 62 66 68 70 65 60 64 70 70 71 68 69 67 66 67 64 65 65 61 60 59 74 82 48 44 44 51 73 86 82 79 78 65 74 80 72 74 72 77 89 74 75 70
67 65 64 65 64 63 60 65 69 70 63 60 66 72 73 69 70 70 72 67 65 64 62 58 74 79 71 44 58 41 41 71 80 84 90 76 66 77 76 86 92 86 92 81 68 58 66
68 66 64 66 63 65 67 61 62 62 70 65 63 64 72 75 72 73 73 66 65 69 66 64 64 79 57 57 55 57 58 62 80 90 98 80 87 91 89 89 86 89 90 73 67 58 70
68 67 66 64 65 64 71 71 70 67 63 71 68 64 70 76 75 74 82 78 80 75 75 75 72 69 54 49 60 73 64 63 74 84 96 86 93 95 89 80 75 74 75 76 60 52 57
68 68 66 64 68 72 71 71 72 66 67 72 72 66 70 73 73 76 79 80 76 72 85 69 67 68 62 73 80 77 63 77 85 95 92 92 86 76 72 72 69 70 75 79 61 52 54
68 68 65 64 67 72 67 73 72 70 68 69 72 69 66 73 74 80 84 81 77 74 90 79 74 81 87 79 81 85 69 80 89 95 92 98 76 68 72 80 75 78 74 72 70 56 53
69 69 65 64 65 70 70 70 70 69 70 69 70 68 68 77 85 85 86 76 79 78 98 92 83 88 80 83 88 73 74 80 93 96 91 95 70 72 78 79 77 86 60 56 61 67 80
68 69 65 66 69 72 71 63 72 68 72 72 71 70 71 76 90 92 76 79 80 82 97 96 90 83 83 83 82 82 78 80 92 92 90 97 89 83 84 74 60 71 55 58 69 74 73
68 68 65 68 70 71 65 68 66 72 67 69 71 71 75 87 90 87 79 78 78 90 96 99 91 89 88 77 81 81 77 81 82 85 88 93 84 77 80 64 53 58 63 68 78 74 92
68 68 66 68 68 65 64 67 64 66 69 71 73 76 76 83 91 82 78 91 96 94 80 99 98 87 81 89 83 78 80 96 98 99 100 96 93 82 84 74 66 59 71 95 96 96 91
68 68 67 64 64 68 68 68 66 69 70 73 76 83 81 83 82 83 86 88 93 82 100 78 94 90 93 82 72 75 76 92 88 94 94 99 99 94 88 80 79 72 66 90 89 97 87
67 68 66 66 66 69 70 66 69 69 74 77 79 96 98 92 80 83 83 95 84 88 78 84 98 100 99 87 67 72 75 80 87 87 95 97 99 85 91 86 79 79 82 64 81 85 91
67 65 66 65 70 71 69 68 69 70 74 75 97 95 94 88 75 84 91 89 92 79 78 82 79 70 98 88 78 87 90 80 85 79 78 83 98 95 85 83 82 80 67 82 92 84 85
67 63 65 69 70 72 67 69 70 72 72 75 96 96 91 85 79 92 97 96 84 72 76 74 75 68 69 97 89 86 84 78 69 82 80 83 84 97 87 94 93 85 93 88 83 83 82
67 64 68 70 69 72 72 73 71 74 71 85 96 98 92 92 100 95 96 85 74 71 72 70 68 66 72 65 78 75 92 86 71 72 83 79 84 94 91 84 76 82 89 83 93 90 92
68 66 69 69 71 72 71 73 75 72 69 96 97 97 92 92 99 93 78 76 76 71 69 64 64 61 63 66 78 79 72 66 73 72 80 75 94 98 95 93 86 94 92 84 78 85 90
67 68 69 70 71 70 72 75 75 71 67 94 96 96 92 98 96 92 90 78 81 71 69 62 65 58 63 62 68 80 79 66 61 59 64 62 83 82 84 78 88 97 88 88 80 98 84
70 70 69 70 72 72 73 75 76 72 66 86 97 97 91 97 87 82 86 85 76 69 71 64 67 66 66 71 74 83 80 72 64 62 70 64 85 86 72 70 86 91 88 83 91 77 88
71 70 71 71 73 74 75 76 76 78 61 91 96 96 95 94 75 79 82 83 83 76 80 77 79 73 74 79 80 78 73 78 72 76 78 76 92 82 83 71 79 82 81 88 86 77 74
74 72 72 72 73 74 76 76 76 76 71 91 96 92 96 70 57 81 72 81 73 77 78 78 82 77 76 76 76 78 71 62 66 69 79 80 92 91 88 82 74 78 68 74 81 75 77
75 74 72 72 73 75 76 76 74 76 77 91 97 96 85 69 57 48 51 53 63 76 77 77 85 79 82 85 83 75 65 67 67 77 74 83 85 90 95 84 94 62 56 60 64 65 69
77 74 74 73 74 76 76 75 74 77 78 95 97 94 87 78 74 52 57 74 77 79 78 87 85 84 90 82 76 78 83 79 76 74 78 72 87 95 95 97 73 58 74 70 67 62 56
77 75 75 75 75 76 75 75 75 76 78 94 97 96 92 78 88 75 71 78 83 76 80 76 71 64 81 90 87 89 93 81 86 74 64 65 64 84 96 96 93 59 73 60 64 80 66
76 78 76 76 74 75 75 76 76 75 75 92 96 91 90 92 89 84 87 83 71 67 67 69 59 84 85 93 92 94 90 79 89 85 89 84 82 94 90 90 81 60 57 63 83 62 74
73 77 80 77 75 75 74 75 76 76 76 89 96 94 92 96 89 80 76 84 80 80 75 68 85 86 91 92 94 90 91 81 82 80 82 84 91 90 89 94 92 57 76 78 64 75 72
74 78 81 82 76 76 73 75 76 74 74 82 94 90 83 92 86 90 85 81 76 74 82 78 77 88 91 92 92 96 96 87 83 86 80 81 70 77 82 81 56 55 66 60 68 70 68

GFSGBSN_sfc_rhum_048.txt.gz
RH
66 66 64 64 66 67 68 65 60 62 68 68 67 62 64 64 64 64 65 65 63 64 64 63 64 72 73 83 81 51 56 47 52 65 78 76 86 85 82 74 88 86 70 61 59 70 74
68 66 64 62 67 68 66 66 64 60 61 66 68 68 64 63 65 65 65 64 64 65 63 64 65 68 78 89 67 54 52 55 60 69 76 71 78 78 68 74 75 74 65 72 73 76 72
68 66 66 64 63 62 62 64 70 70 64 58 71 71 72 67 67 66 67 64 65 65 65 62 61 64 74 72 49 53 47 70 61 65 86 66 67 75 83 86 77 74 80 86 79 79 80
68 67 65 64 63 69 67 64 63 65 65 66 57 69 72 72 68 69 70 70 64 64 64 61 61 77 74 48 54 50 50 80 64 63 77 73 71 72 86 79 75 82 89 98 86 76 86
69 68 66 64 63 62 67 71 70 67 68 63 68 60 69 72 74 71 73 71 63 62 63 60 72 79 69 45 57 48 48 75 80 79 76 74 75 79 84 90 93 89 98 89 98 70 87
69 68 67 65 67 70 70 69 71 69 70 70 68 70 66 74 76 75 74 68 68 70 66 64 66 77 56 56 52 58 61 70 77 84 87 97 87 91 93 91 90 95 93 86 84 87 85
69 69 68 64 66 69 71 72 71 70 72 70 68 75 65 72 73 75 83 77 79 73 76 78 78 72 59 55 63 73 62 68 79 82 95 87 99 93 92 78 78 76 78 87 70 64 80
70 70 69 65 67 69 67 66 73 72 72 70 67 74 66 68 73 74 79 82 79 74 80 71 69 71 66 80 78 77 62 80 87 95 93 97 98 82 74 69 71 71 81 83 70 60 64
69 70 68 65 64 68 70 69 70 71 71 72 72 74 64 70 73 84 83 80 78 74 92 79 75 87 91 82 87 86 72 82 90 96 100 97 77 72 75 77 75 81 81 80 77 63 54
69 70 69 63 65 68 67 70 69 72 73 75 71 72 68 75 86 89 87 78 81 76 98 90 82 82 83 84 91 78 80 88 89 98 96 95 80 77 82 83 74 84 66 61 67 74 90
69 70 69 65 66 70 66 68 70 70 72 72 68 68 67 79 91 93 78 84 82 81 97 97 92 80 83 84 82 92 72 75 94 92 94 98 87 85 86 80 59 72 57 60 70 76 72
70 69 69 66 68 68 64 70 72 72 74 70 69 70 74 85 88 88 83 80 80 90 98 99 89 88 90 83 88 86 85 80 90 88 89 94 84 80 80 66 57 62 65 70 74 79 93
69 70 68 66 66 67 68 69 70 72 69 68 71 79 79 86 92 86 79 89 94 94 79 100 98 84 82 89 85 79 91 97 98 99 100 97 95 88 83 74 67 66 78 97 96 96 93
70 69 69 67 67 67 69 70 69 70 68 70 75 87 75 83 87 84 90 81 94 82 100 86 78 84 84 77 75 66 85 99 87 90 99 99 99 94 89 82 80 73 68 91 90 97 89
70 69 66 67 67 66 68 69 68 70 71 74 79 97 97 86 77 79 84 96 85 87 76 96 93 100 88 79 68 68 74 82 88 88 90 99 99 87 91 90 75 80 86 67 83 87 92
70 67 65 67 70 69 68 69 69 71 73 77 97 95 95 91 76 87 88 91 92 76 76 92 99 97 95 80 70 68 76 68 87 84 80 86 98 94 86 86 80 75 64 81 91 86 88
72 65 66 69 70 71 68 70 72 73 72 78 96 94 91 84 80 90 99 96 85 72 78 78 74 71 89 81 66 77 86 83 77 88 80 84 85 98 88 94 92 83 94 86 80 82 85
70 66 67 69 70 71 72 74 74 72 70 84 96 97 93 85 100 95 99 87 76 73 76 75 68 65 66 88 94 90 92 87 72 76 81 81 84 96 98 86 87 88 87 82 92 89 93
71 70 68 68 70 71 74 75 74 70 72 97 97 98 90 94 96 94 83 79 79 72 73 66 65 63 63 73 81 76 81 73 74 74 76 78 92 97 98 90 93 93 91 89 82 88 92
71 72 69 69 72 72 75 75 74 69 73 94 96 97 91 98 94 96 92 87 84 75 72 67 68 61 62 71 75 83 79 69 66 62 67 64 86 83 88 79 86 97 94 89 81 96 79
73 72 71 70 72 74 76 76 74 69 72 85 97 97 93 97 95 91 88 90 86 70 75 72 74 72 70 76 80 86 82 73 62 70 77 70 89 88 79 70 92 93 88 88 94 86 89
74 73 72 72 72 74 76 76 76 69 66 92 93 95 95 92 80 90 85 92 89 82 80 86 89 79 79 81 84 82 77 80 78 77 82 74 92 82 82 71 87 89 82 89 82 81 86
74 74 73 73 73 74 75 76 76 72 69 92 96 93 94 69 72 82 65 74 70 82 83 82 84 71 79 87 87 84 77 69 69 72 82 80 91 92 90 83 77 83 71 74 87 84 78
75 75 74 74 74 75 74 76 76 76 78 93 98 95 81 67 60 50 58 60 76 80 84 81 84 76 88 90 86 78 69 71 69 80 76 84 84 88 92 86 92 63 63 60 69 62 73
76 75 74 74 76 74 74 75 76 79 74 96 98 93 78 78 75 62 68 75 77 79 78 87 81 74 70 84 76 78 84 80 79 79 83 73 86 97 94 97 71 57 75 73 71 64 63
76 76 75 75 76 75 75 74 75 76 80 95 98 96 88 77 91 86 79 80 82 77 81 70 66 65 84 88 84 88 92 83 88 81 67 65 65 81 97 96 90 56 75 63 65 78 60
76 76 76 75 76 75 76 76 76 76 78 92 97 91 89 95 90 87 90 86 74 72 72 73 60 86 87 92 93 94 92 80 89 85 89 86 84 95 95 96 84 64 64 64 82 64 70
78 77 77 75 76 74 76 77 77 75 77 89 97 96 89 94 90 85 80 86 81 82 79 73 86 83 94 95 94 92 93 86 85 82 85 86 92 92 92 94 92 63 77 79 61 75 75
79 80 80 78 77 75 75 77 76 73 77 80 96 91 86 90 87 92 87 85 84 77 84 78 80 86 95 90 88 89 97 91 88 87 81 85 73 72 81 78 61 64 71 64 69 74 73

GFSGBSN_sfc_rhum_054.txt.gz
RH
70 68 68 66 64 63 62 65 64 64 64 64 68 57 63 70 65 58 63 63 64 63 64 62 65 68 58 61 56 47 53 65 76 73 81 82 57 47 49 47 63 70 69 56 46 62 55
72 70 68 67 62 63 64 63 67 68 67 66 66 67 57 66 68 69 64 65 64 62 64 63 63 62 61 68 42 44 48 50 78 67 76 85 48 43 40 45 53 48 63 64 53 64 67
76 73 68 67 66 62 65 63 67 67 68 65 66 67 65 60 68 70 67 66 68 63 65 61 60 49 64 52 40 40 47 51 68 62 76 81 55 48 39 49 43 49 62 64 61 55 62
80 77 70 68 66 64 68 68 70 71 70 69 69 69 66 63 66 72 74 70 70 63 64 62 59 51 53 39 38 48 45 55 52 55 65 75 65 51 49 45 47 51 57 77 58 63 60
85 81 74 69 67 63 66 67 72 70 71 71 67 69 67 66 64 72 72 74 70 64 62 61 54 56 54 44 59 62 49 70 62 59 59 75 68 56 57 52 58 57 57 64 83 54 64
88 85 77 70 69 65 64 66 72 73 69 66 69 69 71 69 65 73 71 74 65 61 53 50 50 60 41 52 81 64 50 72 69 60 77 83 86 60 51 49 53 45 44 55 80 73 67
90 87 81 73 69 67 65 63 70 70 66 69 70 72 71 70 64 72 73 57 63 59 53 57 58 55 48 50 53 55 54 82 74 59 75 96 96 77 52 41 34 36 44 55 72 68 76
92 88 82 74 69 66 64 65 70 66 68 70 69 71 69 70 64 73 69 58 53 60 53 56 58 58 55 65 63 60 60 83 86 81 83 93 98 49 43 47 47 48 46 46 48 63 75
92 89 82 72 69 65 65 68 67 66 71 69 72 70 69 70 67 73 67 56 62 60 67 64 62 68 71 69 66 69 74 88 85 78 94 95 85 54 54 55 52 45 45 47 44 54 55
92 88 78 71 69 66 64 66 67 68 68 71 70 69 68 66 75 70 64 60 63 61 96 78 63 66 65 67 70 72 74 85 85 82 94 95 73 56 50 52 42 54 42 47 50 47 47
89 86 73 72 68 67 65 66 69 69 70 70 72 70 70 64 68 71 66 64 62 62 90 89 72 59 64 66 64 66 64 84 76 79 84 97 88 62 59 53 41 52 48 45 44 42 49
89 78 74 72 68 68 64 67 68 69 69 68 72 74 72 82 70 68 66 62 67 95 94 98 68 67 69 65 70 69 78 65 61 71 76 92 75 65 56 53 48 47 47 49 50 47 70
87 78 74 72 69 68 66 67 68 67 65 64 75 74 68 62 72 67 63 66 98 95 98 89 67 71 67 77 92 95 81 90 97 99 100 96 92 72 58 58 50 43 45 82 78 85 60
84 77 74 72 70 67 65 64 66 66 68 70 76 72 76 70 70 66 68 68 95 95 97 75 63 68 65 70 78 82 84 98 87 79 99 100 100 83 65 55 57 53 38 54 63 61 47
82 77 76 72 70 68 67 66 67 68 72 74 81 73 74 78 71 72 70 99 91 96 87 66 67 69 61 61 58 64 79 69 72 74 99 92 97 75 70 58 48 64 72 42 60 56 58
82 78 74 72 71 70 68 70 70 71 72 76 76 72 77 81 72 75 74 92 89 68 75 57 85 65 62 58 54 60 65 65 75 62 58 66 98 71 69 58 53 52 42 61 74 80 54
84 78 73 71 73 72 70 71 72 72 68 79 74 72 75 77 71 79 96 92 72 60 71 92 96 88 61 51 48 54 60 66 64 67 55 56 60 94 66 67 67 60 61 58 50 56 52
82 78 72 74 73 72 71 73 73 70 74 78 78 89 78 79 94 80 94 74 73 63 64 65 80 70 60 52 48 62 63 67 58 56 57 55 60 90 98 76 58 54 47 45 60 72 57
84 76 74 74 74 73 73 73 72 68 71 70 77 88 83 86 87 68 67 66 66 59 59 55 57 81 77 74 71 70 70 61 62 57 56 52 72 97 100 85 70 70 59 51 51 61 72
88 78 75 75 75 74 74 73 72 66 70 67 76 96 92 94 86 81 75 70 68 62 62 55 52 46 61 62 58 71 73 68 61 57 66 59 60 70 60 72 62 77 65 62 60 78 54
88 79 75 75 75 75 74 73 70 64 79 62 65 74 75 92 79 71 74 75 68 66 56 57 59 59 50 61 63 67 67 72 67 71 59 55 92 80 55 59 68 65 62 65 87 63 67
83 80 75 76 75 76 74 73 67 69 76 59 64 74 71 63 63 71 72 72 72 75 73 66 64 65 54 58 63 64 64 69 72 70 72 60 90 72 83 61 68 72 61 62 63 60 60
86 81 76 75 76 76 76 74 67 68 57 61 73 72 59 59 59 67 62 62 70 72 68 71 68 59 71 81 76 68 56 50 52 67 82 77 79 87 76 62 59 64 49 51 55 59 58
88 81 77 76 76 76 76 74 68 70 60 54 67 66 50 53 51 54 55 59 70 74 75 66 61 60 71 59 71 48 47 50 50 56 52 64 68 75 82 62 65 44 39 44 47 45 42
86 80 77 76 76 76 76 75 72 74 74 65 74 53 46 52 49 57 60 63 63 65 75 69 55 53 58 60 56 60 60 58 60 58 52 47 54 76 75 60 47 53 52 49 50 54 45
85 82 76 78 77 76 76 75 75 71 76 72 79 72 49 48 60 68 55 60 79 71 71 59 45 55 66 62 59 68 66 61 70 67 58 54 49 54 63 72 60 41 41 44 46 56 55
83 80 78 77 77 77 77 76 75 74 74 75 85 76 55 60 68 61 53 55 53 56 64 57 58 68 63 69 70 69 69 58 64 63 67 66 68 74 69 68 48 49 47 47 63 66 56
85 81 78 77 77 77 76 76 74 74 75 71 85 81 57 64 72 72 70 60 55 51 64 56 69 67 70 77 70 70 62 61 61 59 63 62 64 63 64 69 69 47 52 60 60 43 41
83 82 80 78 78 77 77 76 75 71 73 71 77 78 62 64 68 69 66 66 64 61 54 67 74 78 75 76 70 72 77 69 69 58 56 69 62 59 60 59 57 43 56 48 47 53 50

GFSGBSN_sfc_rhum_057.txt.gz
RH
77 74 70 68 68 64 64 65 64 68 69 67 64 67 66 59 66 68 65 63 66 62 64 64 63 64 57 53 45 45 51 65 68 71 79 77 61 55 49 60 75 90 49 46 67 48 44
79 78 74 70 69 68 64 66 65 69 66 66 67 68 66 64 60 68 71 65 66 66 61 63 62 67 57 56 35 35 42 48 64 72 81 75 58 40 38 45 77 63 58 50 45 48 50
80 80 78 75 70 69 66 67 69 72 69 68 70 68 66 66 62 65 71 71 66 68 61 64 60 46 52 53 33 34 39 49 60 65 74 70 56 47 39 37 43 54 69 58 52 46 45
85 83 82 81 74 72 66 68 69 72 69 69 68 69 67 67 63 62 72 71 71 69 61 63 60 43 53 35 32 39 40 46 49 59 66 73 74 74 42 32 46 72 83 87 55 49 42
89 90 86 84 78 74 68 66 67 72 71 68 66 69 69 68 68 63 71 70 73 68 62 60 51 45 49 46 52 49 46 56 55 60 70 81 90 58 49 48 56 51 72 67 53 42 47
92 93 90 87 83 75 70 68 65 70 69 65 68 70 70 69 69 65 73 71 63 66 52 39 36 55 37 51 82 66 48 56 67 72 83 95 89 60 52 55 61 43 30 39 50 54 52
91 95 92 87 87 76 71 67 66 70 66 67 70 68 70 67 68 64 70 55 61 60 45 47 45 43 39 44 57 68 58 84 73 75 97 90 98 68 40 35 26 27 26 37 38 49 62
92 95 92 89 86 77 69 68 67 67 65 71 69 71 70 69 66 66 66 55 49 56 48 46 46 45 41 54 65 73 59 89 87 82 79 94 98 44 33 31 34 26 29 42 48 54 63
94 96 91 88 86 72 67 67 68 66 68 68 70 70 68 67 62 71 57 46 50 49 60 58 50 52 54 60 57 75 73 88 68 63 83 95 87 65 39 43 41 34 31 33 50 60 57
94 97 90 88 77 71 69 66 66 68 69 70 70 69 67 70 76 56 55 47 52 51 96 65 54 58 55 54 70 66 68 84 89 77 71 81 83 80 48 44 37 41 29 34 39 52 54
94 96 90 84 74 72 70 67 67 68 69 70 69 69 74 72 64 60 57 51 50 55 98 70 64 45 52 60 59 83 60 85 71 73 68 92 92 77 52 43 33 40 37 38 39 42 29
94 94 89 80 76 73 71 66 68 66 70 67 69 75 76 66 63 57 53 50 57 94 94 95 55 56 56 56 61 71 88 86 43 61 86 91 86 71 42 36 36 43 40 39 38 36 60
97 93 84 82 76 72 71 67 67 67 64 69 74 71 69 56 64 54 52 59 97 96 95 79 56 53 52 82 82 85 88 93 75 92 100 97 95 78 56 53 46 40 44 72 68 81 60
96 93 86 82 76 72 71 67 65 64 68 70 74 72 74 60 54 54 60 70 96 80 90 58 51 55 60 72 90 68 95 94 65 50 94 100 100 77 56 43 48 47 37 52 55 53 42
96 91 88 84 75 73 71 69 66 67 70 74 79 64 64 67 60 61 66 100 92 95 59 49 53 57 56 57 62 66 95 85 57 58 86 84 100 79 57 51 42 48 57 38 50 39 46
96 92 89 84 75 73 72 70 70 70 70 79 64 65 65 68 64 70 79 91 77 76 67 42 63 47 54 52 52 54 79 64 65 64 64 63 93 78 68 57 48 45 37 52 66 72 42
95 92 87 87 76 75 73 72 72 71 68 78 65 72 70 63 67 77 95 82 69 59 57 64 84 60 43 43 43 47 62 61 58 60 52 50 50 86 76 67 55 56 59 50 43 51 54
94 91 91 84 82 75 74 74 74 70 78 76 70 83 72 64 94 63 86 65 70 60 61 78 72 61 40 36 41 48 58 57 48 49 59 47 56 78 70 65 52 47 42 41 55 65 44
94 93 88 85 79 76 75 76 75 72 81 60 70 67 76 73 91 64 59 59 56 55 55 55 70 66 58 48 53 54 57 53 54 50 57 47 67 98 93 62 52 57 47 43 39 56 63
94 93 88 86 80 76 76 77 76 72 72 63 65 90 85 87 74 61 58 57 59 55 52 47 46 53 54 53 52 60 63 60 53 51 67 51 50 62 64 65 46 61 49 48 51 74 50
93 92 89 88 82 76 77 77 76 70 71 62 57 56 57 90 69 60 62 56 53 56 50 46 48 48 47 54 55 62 62 64 59 65 51 49 85 75 49 55 60 58 49 48 69 57 60
93 90 90 88 77 76 77 77 71 70 79 60 52 54 58 54 54 58 68 60 54 62 58 53 52 49 43 48 55 58 61 63 64 57 56 52 85 68 90 53 57 64 51 49 50 51 50
94 91 90 83 76 76 77 75 71 80 70 50 54 54 50 59 55 52 54 56 60 59 61 56 50 49 59 69 58 50 45 47 48 58 61 62 71 88 77 53 52 59 43 44 48 45 46
94 91 88 81 76 77 77 72 73 80 67 39 49 48 46 55 51 48 51 55 61 64 62 57 50 51 61 51 50 39 40 43 44 50 50 64 68 71 81 60 70 44 36 39 44 39 39
93 90 86 82 77 77 76 71 72 71 68 45 54 47 40 49 46 53 53 58 59 62 64 58 52 52 53 55 51 58 55 52 52 48 45 42 50 67 74 54 38 50 46 44 47 61 50
94 90 86 81 78 78 76 74 75 74 72 52 55 54 40 47 51 47 54 55 60 60 58 55 42 48 60 56 54 68 71 57 64 62 49 48 43 50 53 60 50 48 42 41 43 56 52
93 90 85 82 78 78 77 76 72 74 70 56 64 63 43 53 55 48 51 57 57 58 53 51 52 56 54 59 65 58 62 49 64 74 67 62 59 70 66 63 46 48 45 44 65 63 46
93 91 87 81 78 78 77 76 75 73 68 58 69 60 47 56 64 57 54 49 50 46 53 53 58 59 59 70 69 63 56 49 51 51 54 58 62 61 54 68 66 42 48 57 54 47 48
93 90 84 82 80 77 77 73 74 74 72 60 64 54 45 54 65 55 56 55 57 56 48 59 64 65 64 66 59 62 62 56 50 55 49 60 51 53 52 56 48 40 43 44 44 51 52

GFSGBSN_sfc_rhum_060.txt.gz
RH
78 80 80 76 73 71 69 66 68 67 69 68 66 70 69 65 64 60 65 71 64 66 64 62 63 65 62 58 52 48 48 60 60 69 79 73 74 77 72 62 82 78 64 71 71 65 64
83 82 84 81 76 74 71 68 68 70 71 70 67 72 68 65 66 64 64 70 69 64 68 62 64 65 62 70 35 33 38 44 55 69 76 78 77 62 53 58 78 73 79 71 79 67 70
88 87 86 87 80 80 72 73 69 71 71 70 66 66 69 67 67 64 62 71 70 68 67 61 63 50 52 54 33 31 36 45 54 66 77 71 76 91 56 50 55 69 70 78 71 67 56
90 90 90 90 87 85 81 77 71 69 72 71 68 67 70 69 68 68 62 70 70 72 68 61 63 52 57 35 37 36 38 44 47 59 77 72 79 85 76 43 67 76 81 95 78 82 67
89 91 91 93 92 85 86 79 74 69 70 71 66 68 70 68 68 70 63 70 70 71 68 61 61 54 51 46 51 53 47 54 53 60 84 66 91 81 62 65 82 81 94 96 82 54 56
89 89 90 92 95 85 85 82 74 68 70 68 66 71 69 69 68 69 64 70 67 68 61 42 38 55 46 50 72 63 53 53 66 70 92 87 94 85 75 70 88 92 80 80 85 62 52
90 91 91 92 93 87 86 84 71 66 70 65 72 70 71 70 69 67 68 69 75 72 52 47 42 41 37 52 61 62 59 69 75 81 97 90 97 95 71 58 46 48 56 67 64 61 56
90 92 92 94 91 86 86 78 69 67 67 69 69 70 70 67 67 62 70 70 57 60 60 42 42 41 36 46 69 66 58 81 91 97 93 98 99 76 63 46 38 35 42 59 54 56 62
91 92 91 94 92 89 85 71 68 68 68 70 70 70 68 66 64 68 67 53 52 48 75 54 44 49 49 59 81 82 71 84 92 95 98 98 85 77 64 43 51 44 36 67 66 66 61
91 93 92 95 91 91 79 72 68 67 68 70 70 68 66 69 73 67 60 46 55 54 99 73 56 53 51 53 88 63 76 89 92 96 77 92 77 80 73 56 42 44 29 44 65 74 86
90 92 93 95 90 87 79 72 68 67 68 71 69 67 71 72 76 63 60 54 55 68 97 60 56 42 51 60 64 74 68 80 72 69 65 95 89 94 79 45 38 48 41 56 66 61 59
92 92 92 94 94 81 80 72 68 67 67 67 71 75 75 66 75 61 56 58 65 98 96 87 51 51 54 53 64 76 88 79 58 72 77 87 90 88 78 43 42 43 45 44 46 51 83
92 92 93 94 91 84 81 72 68 67 65 66 74 72 70 58 76 58 58 69 99 94 85 70 55 50 58 74 73 86 84 84 83 95 100 97 95 80 72 62 55 46 57 92 92 92 86
90 94 94 94 90 88 83 73 68 66 67 70 74 72 70 59 60 60 70 90 96 67 90 49 47 52 64 64 75 82 89 84 62 58 100 100 99 90 64 58 64 56 53 82 73 86 72
91 92 94 94 92 91 82 73 70 69 72 75 76 74 66 71 61 69 93 100 93 91 52 48 50 62 64 56 58 76 96 70 61 62 89 99 100 86 65 53 56 63 80 48 72 59 80
90 93 96 93 92 89 78 74 71 73 74 80 75 76 67 66 67 79 98 90 78 72 64 41 60 49 65 55 58 66 85 63 67 61 65 66 99 82 68 63 58 62 43 70 88 77 58
90 93 96 93 93 89 85 74 74 75 74 79 81 83 78 65 74 92 97 80 66 62 52 61 76 55 45 48 47 53 75 61 60 66 59 59 73 90 78 84 69 65 75 65 61 77 89
85 94 95 94 93 90 85 76 76 76 74 83 81 96 78 70 97 86 89 62 69 65 67 70 76 65 44 42 48 54 71 62 51 57 62 60 67 95 90 76 60 62 58 51 86 80 70
86 86 95 94 93 90 86 77 77 75 79 76 80 80 75 76 97 76 65 60 54 57 62 71 67 64 58 46 60 54 62 55 53 58 63 53 79 97 92 71 62 70 56 55 57 72 81
87 88 94 94 92 90 83 78 78 76 79 88 75 91 83 87 76 84 64 58 63 62 52 47 55 56 54 48 54 60 68 59 58 54 66 66 62 84 93 80 65 76 59 55 66 90 72
86 93 94 92 91 88 84 78 78 75 81 88 76 73 66 94 80 68 66 53 57 60 54 48 53 52 50 58 56 57 61 62 65 66 62 62 85 84 59 60 71 69 59 56 76 69 81
85 92 93 91 90 88 85 82 81 76 78 88 74 70 68 63 57 61 68 60 55 61 62 54 56 50 50 60 64 62 61 60 71 69 68 64 93 83 89 60 65 79 60 54 53 56 56
86 90 93 92 90 88 86 82 81 76 77 78 70 64 66 67 62 62 64 60 60 63 64 57 52 57 69 74 58 56 54 54 55 61 65 71 87 93 85 65 66 80 57 57 59 57 56
85 92 93 92 91 88 83 80 74 81 81 64 62 63 70 70 60 55 54 56 64 67 66 58 54 61 68 58 58 53 51 52 53 59 55 71 79 93 92 83 89 58 51 48 49 49 54
85 86 92 92 89 86 82 76 73 83 82 68 69 71 66 62 59 54 57 64 69 66 63 61 58 60 61 64 64 70 68 66 61 56 58 53 71 90 96 88 60 63 57 58 62 72 60
83 81 92 91 89 85 79 74 73 80 80 68 70 71 71 60 68 51 63 64 75 73 68 60 54 60 73 71 70 86 81 65 74 72 60 53 55 73 74 81 75 64 55 52 55 89 55
83 91 93 90 89 82 75 73 73 75 75 71 77 73 68 68 66 60 69 74 66 68 66 63 65 71 70 81 83 78 83 59 80 83 82 74 72 85 84 85 70 56 51 55 83 82 60
86 91 92 90 88 83 78 75 75 73 68 72 82 71 71 71 75 60 60 65 64 61 71 65 74 73 77 84 84 82 77 68 73 73 70 77 80 83 80 90 85 52 60 72 68 59 60
83 88 92 91 89 86 78 74 74 72 68 67 80 59 58 74 77 58 58 58 63 63 71 74 75 74 80 75 77 80 79 74 68 78 71 79 77 86 71 79 57 50 52 54 60 69 72

GFSGBSN_sfc_rhum_063.txt.gz
RH
85 86 85 83 85 83 77 78 72 70 70 70 71 67 72 70 66 66 64 63 68 66 64 68 61 64 73 80 67 52 48 53 61 72 70 82 90 86 87 73 80 81 87 66 71 70 69
88 89 89 88 87 88 82 81 81 74 70 71 70 67 67 69 67 68 64 62 70 70 65 67 60 64 78 87 39 41 43 44 54 71 74 78 89 82 82 70 83 85 85 84 77 83 70
88 89 90 90 90 91 87 86 84 79 70 71 71 70 67 70 70 68 65 61 68 69 69 66 60 59 70 70 39 36 40 51 60 67 79 80 85 90 89 75 72 80 89 86 92 87 87
89 89 88 90 91 92 92 87 85 82 72 70 71 68 68 70 68 69 68 62 67 70 70 66 60 73 79 44 47 50 48 51 53 70 74 84 82 89 93 68 69 85 91 94 80 82 69
88 89 89 89 90 90 94 86 86 84 72 69 70 66 71 70 68 68 69 64 66 69 68 65 72 82 67 47 59 62 60 59 56 78 80 66 78 92 86 85 92 84 98 93 80 85 83
89 88 88 89 90 91 94 85 87 83 70 69 66 70 71 71 69 70 66 66 69 72 64 58 52 66 54 61 73 64 63 64 66 80 80 81 90 94 91 91 97 94 96 86 81 87 74
87 90 89 90 91 91 90 88 88 79 67 69 67 70 70 70 66 66 74 87 88 87 76 62 52 51 43 64 66 63 70 73 77 79 95 89 96 99 91 73 67 65 72 70 74 71 91
83 87 90 90 91 93 90 89 85 73 68 67 70 70 69 66 65 59 77 92 72 71 86 48 50 47 42 53 81 69 62 84 90 96 94 96 97 81 70 65 61 63 66 66 58 58 79
79 87 89 90 90 92 90 90 82 71 68 68 70 69 66 65 63 76 83 78 63 63 89 63 54 56 59 64 77 81 73 83 93 96 94 91 80 80 77 72 64 70 67 64 67 68 69
75 84 88 91 87 93 91 90 79 70 69 70 69 67 66 66 78 81 78 63 63 66 99 77 65 60 58 77 85 70 72 79 90 98 96 95 79 79 84 75 60 65 52 58 68 87 92
71 78 87 91 90 93 92 90 80 70 70 70 70 65 68 70 91 76 68 64 64 78 97 62 68 50 58 67 72 88 83 93 94 92 85 97 90 91 86 66 64 72 48 64 78 74 83
73 79 85 91 93 94 93 90 79 72 70 69 69 71 73 76 78 71 64 67 75 95 93 87 62 61 61 63 78 83 90 87 69 73 86 94 88 90 92 68 54 56 78 80 69 69 83
77 81 86 86 93 95 93 89 81 74 71 68 73 75 75 62 82 67 68 83 99 93 79 76 69 60 72 83 78 75 86 86 90 90 99 97 96 82 77 69 57 57 66 98 96 91 82
76 86 84 89 94 96 90 88 84 74 71 73 76 75 72 63 76 69 84 93 93 69 92 58 56 58 78 73 79 80 87 88 65 84 100 99 99 91 80 66 68 66 61 85 86 95 81
85 89 85 84 92 96 91 89 86 73 74 76 78 91 78 83 72 79 94 99 96 79 63 59 61 77 77 66 74 89 82 80 72 68 92 99 100 82 79 69 60 66 81 54 73 71 86
88 91 81 84 87 95 91 88 83 77 77 78 97 93 80 78 78 93 98 90 84 78 74 56 78 65 82 67 71 78 86 70 75 69 71 80 98 88 74 68 58 60 48 72 89 72 69
87 84 79 82 91 94 90 88 86 78 77 81 95 93 86 77 89 97 99 87 72 70 71 78 84 71 62 63 61 70 91 71 69 71 71 68 84 95 76 88 80 70 74 68 68 81 88
76 78 74 79 94 94 90 87 86 78 78 88 96 98 82 88 98 94 95 74 63 68 71 80 87 81 74 52 61 78 82 78 61 67 72 75 79 94 87 83 70 73 67 59 85 76 79
68 78 78 84 91 94 90 85 86 80 82 98 97 97 80 83 98 84 71 68 61 65 68 76 76 73 69 68 70 66 71 61 56 67 78 66 81 97 96 77 71 76 64 60 64 74 84
71 74 80 84 90 94 90 85 88 79 80 89 86 99 96 95 89 94 80 78 76 62 60 54 68 70 59 66 60 67 77 64 57 64 69 66 75 79 86 81 76 84 66 62 72 91 71
70 75 80 84 93 94 91 86 87 81 81 95 89 91 79 97 98 90 73 69 74 72 62 58 62 70 62 71 60 69 62 69 68 68 66 71 85 83 68 66 70 71 64 66 76 69 77
69 76 84 88 94 92 90 89 89 82 83 98 94 89 87 90 80 79 79 67 69 75 69 63 61 65 63 78 80 67 59 59 64 80 76 73 92 82 90 62 67 78 67 64 63 65 66
68 78 85 86 87 93 91 89 88 83 86 98 88 78 79 83 85 83 82 69 73 73 71 66 60 76 84 79 67 62 60 63 66 74 79 78 86 94 91 68 68 76 64 61 65 61 60
68 80 83 85 87 93 90 87 88 83 82 79 80 84 83 91 81 77 66 70 74 75 75 68 64 74 74 67 65 56 60 62 62 58 60 80 84 94 92 82 81 60 57 53 67 68 66
64 79 85 90 93 92 89 88 85 83 82 80 85 81 81 90 78 63 64 81 77 74 71 70 67 71 69 76 74 79 79 74 70 66 62 71 86 92 94 93 71 68 63 64 71 82 62
69 81 86 86 87 94 90 88 83 78 80 83 86 85 82 76 85 71 75 82 91 88 80 68 64 71 82 81 80 87 90 70 85 82 64 59 63 79 86 86 80 69 61 55 58 94 58
67 83 86 89 86 92 89 88 77 80 80 80 88 85 77 85 86 76 85 85 79 82 86 74 72 80 79 90 88 87 90 69 87 86 86 82 80 86 88 91 80 61 55 60 81 84 71
69 86 89 90 89 89 88 85 74 83 82 74 88 80 78 94 90 78 76 80 74 79 84 73 76 77 87 85 89 89 85 74 79 80 78 81 87 90 89 94 92 56 63 76 74 75 78
74 86 88 88 91 90 88 78 74 84 71 74 81 65 67 86 85 70 69 69 72 77 80 84 81 85 89 85 87 89 85 86 80 88 75 82 75 84 79 82 59 61 80 79 78 84 86

GFSGBSN_sfc_rhum_066.txt.gz
RH
88 88 89 89 90 89 90 89 84 84 77 73 71 69 68 67 68 66 66 63 63 68 67 65 66 63 74 84 81 53 48 46 62 67 76 82 86 85 83 78 79 88 74 77 68 78 77
88 88 88 89 89 90 91 92 88 87 80 78 71 70 71 66 69 70 69 61 61 70 70 67 62 64 81 96 43 47 51 49 58 64 83 83 91 88 87 77 81 86 76 72 77 83 86
86 90 86 88 89 89 90 91 93 90 83 81 70 70 70 67 68 67 69 64 61 66 69 68 60 62 79 76 46 49 50 53 59 70 79 84 84 85 87 90 70 88 91 86 84 86 88
82 87 89 88 87 89 89 91 95 90 86 83 70 71 67 70 70 67 65 67 63 67 70 68 59 77 89 48 54 52 55 58 55 64 76 84 73 80 92 87 84 89 85 97 80 82 87
75 80 83 87 89 88 88 90 95 89 88 83 70 67 67 73 69 69 69 68 65 65 68 65 78 87 85 49 59 64 67 66 63 77 78 76 71 85 86 90 92 94 99 93 93 86 88
64 69 78 86 89 89 89 90 93 89 88 78 70 65 73 68 70 68 67 66 71 71 64 62 61 79 59 62 72 66 67 68 71 81 78 84 88 91 89 94 91 92 99 96 96 89 82
62 65 72 78 87 89 89 89 91 90 88 75 70 70 68 69 67 65 74 88 84 85 80 71 63 64 48 69 68 66 69 76 77 84 90 91 98 99 92 85 75 66 77 86 83 86 87
60 63 67 74 76 87 89 91 91 90 87 73 68 70 67 66 64 63 80 93 74 73 84 64 48 52 46 62 84 71 64 82 90 95 90 94 98 86 87 80 62 59 63 74 78 80 78
64 62 64 70 75 80 88 92 91 90 86 73 72 71 67 64 62 80 86 80 67 65 91 71 58 59 60 65 81 78 74 84 90 92 91 88 79 79 87 75 70 69 60 71 75 74 78
64 71 69 72 74 79 88 92 93 90 83 76 73 71 67 66 77 84 88 69 67 68 95 71 70 65 61 75 89 74 70 82 93 99 86 85 80 80 90 71 64 77 60 64 66 81 87
64 65 69 74 78 81 86 90 94 90 83 76 74 70 68 69 89 88 70 69 67 70 86 58 68 51 63 83 80 93 76 83 95 95 94 92 89 90 88 77 63 65 60 82 80 89 89
63 65 68 73 78 83 85 91 95 88 84 74 73 70 72 82 86 77 68 71 78 88 82 86 69 66 72 74 89 87 94 93 75 91 86 93 89 88 88 68 66 68 85 88 82 91 98
61 69 68 76 81 86 87 89 94 87 85 77 73 74 77 68 84 73 74 87 91 88 72 73 74 63 77 82 77 81 85 92 91 97 99 97 96 92 84 74 65 68 76 99 98 98 86
60 68 71 82 84 87 86 87 92 86 84 75 77 78 76 67 79 75 88 87 90 74 86 61 61 61 83 80 84 83 84 90 75 82 98 99 99 95 81 77 86 62 66 94 88 90 74
62 65 69 83 88 92 82 90 89 86 84 77 81 93 89 84 74 87 96 97 89 82 64 65 64 83 83 70 85 87 87 86 79 72 96 97 100 83 80 73 61 64 79 54 77 72 82
66 66 67 78 90 82 84 91 89 86 83 82 94 96 93 80 84 94 97 86 87 73 72 67 81 69 85 75 79 85 86 68 71 74 73 85 97 85 82 67 61 59 52 72 84 78 74
66 64 66 71 85 82 90 94 86 86 82 83 94 98 91 81 90 99 99 89 80 74 73 75 80 77 70 67 68 89 92 70 72 71 70 83 83 93 79 94 91 71 72 71 71 81 81
67 64 65 71 80 82 92 92 87 83 85 92 96 98 92 89 98 96 96 76 68 73 76 82 86 84 71 58 75 91 86 82 68 71 77 80 86 96 95 82 79 74 72 68 82 75 84
65 66 69 72 80 83 89 91 88 85 85 98 94 94 88 90 98 93 72 69 65 76 82 83 78 73 76 74 82 74 77 68 66 72 83 70 85 98 88 76 72 76 69 61 65 76 83
65 65 70 71 80 84 87 93 88 88 85 93 94 98 98 96 90 90 82 77 76 68 69 71 72 74 72 70 67 73 75 67 60 67 70 67 81 79 86 80 80 87 72 67 71 89 75
65 65 68 70 83 83 91 92 90 89 86 89 86 93 79 96 95 97 81 79 77 76 68 63 71 76 69 75 72 79 69 73 69 68 69 71 85 84 76 72 76 75 72 71 75 68 73
65 65 65 69 88 84 94 91 92 90 88 98 95 96 90 95 89 97 86 80 75 80 70 71 69 66 67 76 76 77 64 72 82 78 80 77 94 83 90 65 67 76 70 70 72 70 68
66 66 65 68 85 84 87 93 90 89 91 99 95 85 80 88 93 91 82 68 76 75 75 68 66 80 79 77 74 70 66 70 74 79 82 81 88 92 93 73 65 76 65 68 68 68 68
67 67 66 72 83 85 91 92 91 89 85 81 84 86 86 95 88 80 74 74 77 75 77 72 68 74 78 72 66 60 64 66 65 68 71 84 86 92 92 75 84 61 60 64 74 72 70
68 67 65 78 87 92 93 89 88 90 80 81 91 83 84 95 87 76 79 86 78 77 74 73 72 78 72 72 76 81 83 76 73 68 61 76 88 94 91 92 69 69 71 70 79 85 65
68 68 66 84 85 89 93 90 90 90 86 82 87 90 82 83 89 80 84 72 89 89 81 72 68 77 80 81 83 88 96 85 91 84 70 66 74 79 88 88 83 68 67 62 64 88 79
68 68 67 85 82 91 86 91 90 88 83 78 87 88 77 88 93 89 87 86 84 87 89 81 82 81 81 92 88 90 91 73 92 90 85 83 86 88 90 92 81 65 60 63 76 72 79
68 66 72 84 88 86 89 88 88 84 78 72 85 84 79 95 89 82 80 82 78 83 86 79 78 80 91 87 90 90 86 77 84 82 82 84 90 92 90 95 96 63 67 76 79 85 82
68 64 82 85 89 91 89 87 83 80 74 72 80 69 69 85 87 76 76 75 75 79 83 88 81 87 90 89 92 92 88 88 85 92 80 85 76 84 81 84 75 87 81 86 80 85 88

GFSGBSN_sfc_rhum_069.txt.gz
RH
81 84 87 89 89 88 88 88 90 92 90 89 84 79 74 72 68 67 70 69 63 61 70 68 65 62 75 90 86 53 49 46 63 79 74 81 88 89 87 81 85 82 78 74 75 83 83
74 77 79 83 85 89 89 89 87 89 94 90 86 85 77 73 67 68 67 70 64 62 68 71 66 62 85 98 49 48 56 49 58 68 78 83 84 89 92 85 80 70 74 76 82 88 89
67 68 71 75 81 85 88 89 88 87 92 90 88 85 77 69 68 69 66 66 66 63 65 69 65 64 86 80 50 52 51 59 62 70 83 78 79 92 92 87 73 80 88 90 87 86 87
64 65 67 69 72 79 86 88 89 89 91 91 89 85 76 67 71 69 67 65 66 65 67 69 63 79 94 53 55 56 59 59 63 70 71 80 78 85 97 90 79 85 92 96 87 83 86
59 60 61 64 68 72 75 84 89 90 91 91 90 83 75 68 72 70 70 68 65 66 65 68 82 88 90 49 61 66 69 70 67 74 82 72 78 89 90 96 91 88 100 95 92 80 91
59 63 65 61 63 66 71 77 86 89 93 91 90 83 72 73 68 68 66 66 70 71 68 67 66 88 62 64 72 68 70 68 75 76 78 85 89 89 94 93 98 94 98 89 94 92 89
62 59 66 68 65 65 66 71 79 86 93 90 89 81 76 70 68 67 76 88 86 88 83 78 70 68 56 73 70 69 70 77 76 83 94 86 99 96 86 90 89 77 95 95 87 87 86
56 57 60 63 70 69 68 72 75 81 91 91 86 84 73 70 66 64 84 93 75 73 81 69 64 57 53 68 83 69 67 81 87 88 91 96 100 82 80 82 86 78 93 97 88 87 78
56 57 57 60 65 66 71 72 75 79 88 93 85 82 73 68 64 79 86 83 72 68 91 74 60 61 67 63 72 80 74 85 89 96 92 83 85 81 81 89 94 71 91 96 93 88 84
54 56 58 62 68 67 74 77 75 81 86 93 86 84 73 67 78 86 86 73 72 66 91 64 71 67 72 73 90 80 73 86 91 94 87 86 78 82 90 100 72 74 60 66 82 79 94
55 55 56 56 62 69 71 77 77 81 85 91 89 80 71 70 88 89 72 73 71 60 72 49 68 56 74 82 84 91 75 86 94 95 89 95 89 85 96 93 63 79 70 63 69 89 90
63 59 57 58 61 67 71 76 79 84 91 90 88 78 73 81 84 78 74 72 71 87 62 81 71 70 82 83 89 87 91 92 85 86 85 90 84 86 88 71 70 69 83 90 86 97 99
63 63 62 62 61 72 78 79 84 84 90 89 87 80 78 73 81 79 75 86 90 86 67 68 74 66 76 83 80 88 85 93 97 98 96 96 93 83 93 80 73 70 75 99 98 99 97
65 63 64 66 66 66 77 84 89 85 92 88 86 79 76 69 78 78 86 80 82 66 88 61 67 67 84 81 85 82 80 94 84 88 100 96 100 96 79 87 88 78 72 89 90 95 90
66 64 64 68 69 66 73 88 92 89 90 87 87 91 88 83 79 85 90 99 83 84 69 70 67 85 82 73 85 83 84 92 83 78 98 98 99 87 80 79 74 86 84 61 75 79 81
66 65 66 68 68 70 70 88 86 92 88 89 96 93 91 84 84 92 96 91 89 68 71 65 80 73 86 81 85 89 87 74 74 79 80 84 98 83 81 66 63 60 54 72 85 80 74
67 65 65 68 71 74 74 85 88 87 88 89 96 94 93 85 88 96 98 93 84 75 74 68 80 81 78 76 82 92 90 76 76 74 79 85 83 87 80 91 93 68 73 72 73 79 82
66 66 66 69 72 73 76 86 89 87 90 95 97 98 93 89 99 94 98 81 72 80 78 86 84 86 69 63 85 93 89 85 67 74 84 83 87 89 94 84 84 86 80 68 80 77 84
62 67 67 70 72 73 80 86 93 89 90 98 98 97 93 89 99 98 77 76 72 80 85 84 83 79 81 76 88 82 87 72 68 75 83 74 89 95 81 70 73 82 75 72 71 79 84
64 67 66 70 70 73 78 85 92 88 91 98 98 98 99 99 96 89 81 86 83 74 78 77 74 77 77 73 79 80 86 76 67 69 71 68 84 78 88 76 82 88 80 72 75 88 82
68 69 66 67 70 68 81 84 90 87 92 99 83 90 76 97 98 94 83 76 82 82 71 73 80 75 68 82 82 75 73 80 71 72 74 69 87 86 81 78 81 82 80 72 81 67 75
67 70 69 68 68 65 86 87 89 89 91 99 98 93 83 84 93 92 87 84 76 80 71 73 72 70 69 73 75 78 66 79 84 76 81 79 96 82 89 68 71 80 74 75 75 73 71
68 69 71 70 68 68 83 86 88 90 91 99 96 87 84 84 98 95 91 83 77 76 79 71 68 79 80 79 79 77 69 73 80 82 84 81 88 90 93 76 65 78 71 77 76 80 78
72 72 72 69 66 75 83 88 87 92 91 96 92 91 88 96 94 92 76 75 82 78 79 78 71 75 82 73 69 62 65 68 67 70 76 83 88 90 93 78 81 68 73 66 78 72 71
72 71 71 69 66 86 86 91 93 89 92 82 90 88 88 98 90 86 78 83 75 79 78 77 76 80 75 68 77 81 85 73 74 74 80 78 87 94 88 91 70 74 73 76 79 82 69
69 70 70 69 68 86 87 92 88 92 89 78 86 96 84 83 92 86 78 80 89 89 84 78 77 80 79 84 82 89 94 86 90 84 64 69 74 83 90 89 86 68 75 66 73 83 76
71 70 70 67 80 84 90 92 90 89 92 73 89 90 80 93 95 84 82 79 78 87 91 86 84 81 81 91 88 90 92 81 92 88 86 82 86 88 89 92 79 68 63 67 77 70 80
70 70 69 69 82 83 90 89 88 88 88 68 85 84 80 97 93 84 78 78 83 85 87 82 79 79 91 87 89 91 86 85 87 84 83 85 90 91 91 94 88 67 72 76 77 87 85
67 70 68 75 82 89 89 88 87 86 78 67 72 72 71 88 88 79 79 80 80 82 86 90 81 87 90 90 93 93 89 89 87 92 84 84 75 84 82 84 82 90 84 86 83 85 88

GFSGBSN_sfc_rhum_072.txt.gz
RH
66 68 69 70 73 76 79 84 89 89 88 88 88 90 85 85 81 71 67 69 69 64 61 70 73 64 76 93 88 55 53 48 68 84 82 86 84 84 85 86 74 93 77 65 62 64 79
61 62 64 64 67 70 73 75 83 86 87 88 89 89 85 88 81 72 68 66 69 64 62 66 71 62 86 94 50 51 58 55 55 73 82 88 78 85 84 82 79 82 75 66 70 64 74
57 59 61 62 62 63 68 72 78 81 85 87 89 91 86 89 82 72 68 64 64 66 63 65 68 66 92 77 54 54 55 61 61 72 82 81 75 90 89 88 73 65 86 86 74 72 76
64 65 64 60 62 62 61 66 69 74 77 87 89 92 88 88 82 72 69 67 66 66 64 66 65 80 92 53 60 57 62 61 60 72 75 77 79 90 91 84 86 90 83 95 71 83 95
52 56 56 62 66 64 64 62 64 69 72 81 89 90 88 87 76 74 70 68 67 66 65 67 81 87 92 51 66 65 71 72 71 74 74 67 78 89 84 92 96 89 96 100 91 83 90
56 56 57 58 59 61 66 63 66 66 71 79 88 92 88 83 82 71 67 66 68 72 70 69 68 89 64 61 70 69 72 72 76 79 79 83 90 95 92 96 98 94 98 95 97 89 85
57 56 56 58 59 59 61 64 66 68 69 78 84 93 89 84 77 70 73 87 89 86 84 76 78 75 60 70 72 70 67 78 79 82 89 84 99 99 96 99 76 73 79 100 94 86 86
56 56 56 56 55 56 58 63 68 66 69 73 81 93 88 83 76 68 84 94 73 68 80 73 71 67 58 70 78 72 70 90 89 92 89 97 100 85 84 86 77 74 83 93 87 86 82
55 58 61 60 56 56 57 59 66 68 70 78 81 93 89 83 74 80 85 83 72 70 86 75 68 64 70 71 79 79 77 84 89 94 97 99 92 78 79 85 85 84 89 95 99 87 84
57 64 65 62 62 58 61 60 66 66 72 79 83 91 89 81 86 84 85 70 74 67 90 65 71 68 76 78 88 76 84 82 92 94 95 91 80 77 89 98 86 88 74 78 93 84 97
61 65 66 59 63 66 68 65 65 69 71 80 84 89 86 77 88 87 72 77 75 59 73 44 67 59 79 81 85 89 79 87 90 88 94 97 89 92 93 95 87 92 70 75 79 88 91
65 68 67 65 64 68 65 68 68 74 75 81 84 91 85 91 90 78 76 70 68 85 63 74 74 73 84 82 88 81 88 86 80 88 88 88 83 89 89 88 86 75 85 87 92 93 96
65 67 67 66 65 67 67 68 69 76 80 82 86 89 86 84 89 77 76 78 89 86 65 71 74 68 76 83 86 90 90 97 99 98 99 95 93 88 88 90 74 78 87 99 98 98 97
60 67 67 66 66 66 70 71 69 76 84 87 88 87 87 80 82 76 80 79 90 63 82 61 67 71 84 76 89 88 93 95 88 90 99 94 97 92 84 84 91 78 71 88 90 95 96
64 67 65 64 66 67 71 74 75 80 85 86 91 96 95 92 78 79 87 97 82 80 70 73 71 82 84 76 84 92 88 97 81 77 98 99 99 88 91 80 72 80 83 66 77 72 94
67 67 64 67 65 68 71 74 81 87 87 91 97 94 92 86 81 87 93 86 87 69 69 66 74 77 85 84 87 87 90 75 78 77 81 92 98 91 77 70 63 71 60 72 85 82 84
71 66 65 67 69 72 73 73 92 88 88 84 93 97 96 85 83 93 98 93 85 73 73 69 81 80 82 80 88 93 91 68 72 77 76 80 85 95 83 91 88 68 73 72 74 82 79
70 69 68 68 71 71 73 73 82 88 89 88 96 100 95 89 98 91 95 88 75 84 81 85 79 82 73 73 90 94 92 85 73 77 85 84 85 97 94 86 85 83 81 67 83 75 81
68 70 71 68 70 71 74 72 88 92 85 98 98 98 93 92 98 96 90 79 75 79 85 82 84 80 83 79 91 89 89 76 69 77 82 74 89 93 80 72 76 85 80 74 71 80 83
71 70 71 68 72 72 72 74 86 92 90 96 97 100 98 98 91 92 91 88 85 78 84 78 76 78 79 83 83 90 90 78 69 76 70 66 85 76 84 74 80 86 82 76 73 85 82
72 70 71 66 70 70 70 78 88 90 85 96 97 98 90 98 95 97 87 84 86 87 76 82 82 78 70 84 82 87 87 83 73 73 78 70 89 89 82 82 83 82 82 77 82 74 74
72 74 73 72 71 71 67 86 90 90 90 97 97 97 81 71 93 95 86 85 83 82 80 83 78 80 76 77 77 78 77 84 87 77 84 80 96 83 87 71 72 84 81 82 80 75 71
73 72 75 72 71 71 71 83 85 90 92 99 99 85 76 78 96 95 88 78 77 75 80 72 71 79 79 81 78 81 82 83 82 84 84 83 88 90 90 76 66 77 75 80 83 86 76
73 74 73 72 71 70 72 85 87 87 90 98 98 86 85 85 95 92 84 80 83 80 82 82 74 78 83 74 75 67 67 69 70 79 80 83 87 90 92 78 84 68 80 69 80 78 79
74 75 72 71 71 68 83 84 87 81 88 96 88 83 88 85 92 87 84 89 81 82 82 81 83 84 75 73 78 82 86 78 76 79 82 78 85 94 88 91 68 76 84 81 80 78 71
73 73 71 72 71 75 86 87 89 91 88 84 86 90 95 92 84 96 79 82 90 89 87 86 81 82 77 84 80 88 95 86 91 85 76 72 77 84 89 87 81 74 79 73 76 77 76
73 75 68 72 69 76 86 91 92 87 81 75 84 88 86 96 96 92 82 85 83 88 93 89 85 81 80 90 88 90 93 84 91 91 89 86 89 89 90 92 78 73 74 71 77 68 84
75 71 71 72 70 77 89 90 92 91 81 72 79 84 83 98 92 80 77 82 83 86 87 83 80 80 90 87 87 91 88 88 89 85 86 86 91 92 92 93 84 76 77 74 74 88 86
75 72 74 71 76 84 88 87 88 90 80 64 77 76 74 88 87 74 71 72 84 84 89 90 81 86 90 91 93 93 87 90 88 88 85 84 76 82 81 81 81 90 87 87 84 86 88

GFSGBSN_sfc_rhum_075.txt.gz
RH
60 58 60 63 64 64 64 67 73 75 74 77 81 84 88 87 84 84 79 70 66 65 63 62 71 64 72 87 80 53 52 49 72 79 78 81 84 78 85 74 76 85 69 66 61 59 61
59 61 64 63 63 64 66 63 66 68 70 72 75 83 85 87 87 85 78 70 64 66 63 63 66 64 83 74 47 51 55 58 56 78 80 84 80 74 84 85 80 69 71 73 69 61 63
57 60 58 54 56 61 59 62 60 62 63 67 71 79 90 88 87 81 76 69 63 62 64 64 66 67 89 60 50 54 54 59 59 66 74 79 77 79 76 93 66 69 81 74 73 68 67
59 55 58 56 58 60 56 60 64 63 64 65 70 79 92 89 85 80 78 67 65 65 63 65 67 77 82 52 61 56 58 61 57 65 75 73 74 80 80 78 88 84 78 91 70 72 62
57 61 61 59 58 56 59 56 61 63 64 65 66 75 86 89 84 81 76 67 66 64 63 66 78 82 77 51 65 63 64 69 70 71 76 66 75 82 69 99 99 88 97 93 89 66 79
54 59 59 55 62 57 55 55 55 64 63 66 69 74 82 90 84 83 72 64 67 75 71 68 66 94 62 59 68 67 68 70 79 78 80 86 90 91 96 98 97 97 99 98 86 80 79
56 56 55 63 69 67 63 58 58 59 67 67 68 73 81 89 85 79 76 87 83 85 88 82 74 69 61 64 71 70 67 76 77 83 92 88 98 98 98 99 98 98 91 98 83 73 78
57 61 63 67 68 66 57 60 59 59 62 64 67 72 76 88 86 80 80 90 78 66 78 79 72 73 60 65 73 74 70 85 86 92 88 92 100 82 79 89 96 93 90 94 82 87 83
58 62 66 66 66 62 61 63 62 62 63 65 68 72 75 88 84 89 85 82 74 70 80 74 74 67 66 68 78 80 73 83 87 91 98 99 92 77 84 100 96 78 79 93 99 94 86
54 61 66 69 65 63 64 63 64 64 66 66 70 71 73 90 90 86 90 77 76 64 91 64 74 67 73 78 89 77 82 78 89 95 96 97 79 77 88 94 84 87 72 76 85 96 96
54 59 59 65 64 64 65 64 64 65 71 72 69 73 73 86 89 87 80 78 74 60 89 44 68 62 80 80 84 88 79 94 92 88 97 96 90 85 92 89 84 92 70 77 78 85 92
58 61 61 63 65 65 66 66 66 68 71 73 73 72 75 95 93 86 84 68 64 88 79 72 75 80 85 80 86 81 85 86 80 94 88 87 79 89 90 83 84 77 78 85 88 88 92
56 58 62 66 65 65 68 68 68 69 72 72 75 75 81 84 94 92 82 70 93 94 65 78 78 77 83 85 83 89 96 94 91 94 99 86 88 90 92 95 81 75 83 99 97 96 96
55 59 66 70 65 63 68 71 72 71 77 82 76 85 87 76 92 89 73 86 96 64 79 63 69 73 80 80 95 94 95 98 86 92 95 95 94 94 90 88 94 85 80 86 90 92 98
58 64 68 68 67 66 70 71 73 80 86 85 82 97 92 97 91 87 86 99 87 77 69 74 75 78 83 77 95 98 99 86 77 76 91 99 100 86 88 76 69 74 80 59 90 93 93
62 69 72 69 69 70 71 70 73 82 89 85 96 93 94 94 92 88 94 90 84 69 72 68 76 76 86 82 85 89 93 75 92 76 78 93 98 88 78 70 63 63 57 69 83 91 93
68 71 71 70 69 72 72 72 72 79 89 76 92 97 97 93 94 92 98 94 87 72 71 70 81 83 80 79 87 92 89 74 75 73 77 81 83 91 80 94 89 68 70 71 70 74 75
76 72 73 72 73 74 73 73 71 81 91 87 97 99 99 96 99 93 99 87 78 86 82 85 77 75 70 76 92 94 92 88 77 73 85 82 82 94 94 79 79 87 75 60 75 73 70
68 71 72 72 75 75 75 73 72 87 87 97 98 98 98 94 100 97 86 86 80 82 84 81 84 79 80 82 91 90 85 75 72 79 81 71 86 94 82 70 72 79 75 70 68 71 76
68 72 73 74 75 76 76 72 81 88 84 96 98 100 98 98 90 88 95 88 89 81 86 74 79 76 75 83 83 90 90 78 74 82 70 64 84 76 85 76 78 81 77 70 66 76 68
71 73 72 73 73 73 74 72 87 88 83 95 98 99 95 99 95 94 90 84 88 88 84 77 79 72 73 85 82 91 87 77 72 73 76 72 90 87 78 76 77 78 78 74 75 66 65
68 73 72 72 72 72 73 75 87 84 84 97 98 99 94 79 89 95 85 87 88 85 85 84 82 79 71 76 77 84 80 83 88 76 83 78 94 80 87 67 68 79 76 79 72 70 68
70 72 72 74 73 72 74 76 84 85 92 97 99 92 86 85 91 95 86 86 83 80 82 77 75 77 79 83 77 83 82 85 86 83 82 81 86 89 91 74 65 76 74 79 78 79 70
72 70 70 72 72 73 74 80 85 86 88 97 98 89 78 96 87 86 78 81 82 84 85 85 77 77 85 75 75 72 70 72 75 83 79 81 84 88 92 75 84 64 80 68 74 74 73
72 71 72 73 72 73 75 83 86 87 84 95 88 83 80 86 88 83 79 82 84 84 86 89 88 86 74 73 79 83 85 79 79 80 80 76 81 91 86 89 64 71 79 77 78 73 72
71 69 75 70 77 77 80 87 85 85 74 82 86 91 81 89 89 92 81 80 89 91 90 87 82 82 76 82 78 87 93 88 89 83 75 71 76 78 83 83 73 64 75 69 70 64 70
71 73 73 74 75 74 84 88 88 80 72 76 82 90 85 93 87 86 85 87 87 89 94 90 85 81 80 88 87 89 93 86 89 92 90 88 89 88 90 88 73 67 69 67 72 58 76
71 74 74 76 72 80 90 89 84 79 72 72 79 88 84 97 86 79 83 86 84 87 89 84 82 79 89 86 86 92 88 89 88 86 88 86 90 91 90 91 72 76 76 68 66 86 79
74 75 75 77 73 82 89 88 86 81 70 67 74 74 74 88 86 79 78 81 87 84 90 90 81 86 90 91 93 93 85 91 88 84 86 84 77 80 78 75 71 81 83 83 80 80 83

GFSGBSN_sfc_rhum_078.txt.gz
RH
60 60 58 60 59 57 62 58 65 64 62 66 67 70 79 79 86 88 84 79 66 63 65 60 60 65 55 60 46 34 52 48 51 55 49 49 56 54 57 43 50 59 51 43 37 42 45
60 61 63 62 62 60 61 58 56 67 62 62 62 64 78 82 89 88 83 75 64 61 65 61 60 66 60 73 29 40 44 51 47 54 52 52 49 52 59 57 59 45 51 49 47 47 49
60 59 61 62 62 62 61 61 62 57 63 63 64 61 72 80 89 89 85 72 66 62 62 62 60 62 72 61 31 39 39 44 43 46 52 47 47 58 54 63 50 71 78 61 52 48 55
61 60 60 61 60 61 64 57 56 62 55 63 63 65 69 78 90 85 82 78 69 65 62 61 66 64 67 37 38 46 41 43 43 44 51 48 50 59 65 57 67 76 79 95 51 50 46
60 60 61 61 60 62 68 68 62 60 59 62 64 64 68 72 91 86 83 75 68 66 63 66 66 64 55 40 50 43 43 50 50 50 54 50 59 67 63 87 98 93 98 87 57 42 46
59 54 61 58 67 67 68 67 61 63 58 58 64 66 69 75 87 84 80 72 69 71 66 56 59 65 50 41 45 50 50 55 58 60 63 67 76 77 76 96 94 99 86 69 62 46 49
55 61 59 63 69 69 69 62 61 64 64 65 67 66 71 78 86 84 80 90 82 76 70 57 56 53 46 44 56 54 54 64 62 64 69 68 87 88 63 95 94 100 96 91 58 68 54
59 59 58 60 64 68 69 66 64 62 61 62 69 66 66 72 89 81 78 89 69 56 62 64 63 59 51 46 58 59 58 68 66 67 71 78 86 56 73 85 95 98 95 96 90 71 57
59 59 60 62 63 68 69 67 66 66 64 64 71 68 68 70 87 84 73 81 74 55 59 63 61 57 52 54 62 63 63 66 69 68 76 96 66 71 92 100 98 96 83 79 97 84 75
61 56 61 63 64 66 68 68 68 66 66 67 70 71 68 72 94 84 84 72 73 55 91 65 69 57 62 62 78 58 67 68 74 76 74 89 76 82 93 100 86 86 66 90 96 98 97
66 54 54 60 62 66 65 70 69 66 68 69 71 72 68 68 93 85 66 70 63 54 90 57 66 51 63 71 74 77 70 80 94 85 98 98 86 81 81 97 78 77 78 80 86 68 79
56 55 58 60 67 71 71 67 70 68 67 70 70 71 71 80 88 80 78 68 56 88 86 74 64 71 86 77 75 73 76 77 74 95 96 82 65 77 78 74 79 79 64 72 68 66 91
59 59 61 68 68 70 73 72 68 68 70 77 77 71 74 76 87 89 83 75 95 91 59 78 72 69 70 73 78 83 92 80 95 99 100 73 94 85 85 92 88 84 65 96 90 96 94
62 62 67 73 75 72 71 69 70 71 78 83 85 85 80 77 85 86 90 81 94 66 74 54 57 62 69 71 80 78 78 81 73 75 82 96 100 98 83 86 84 70 67 66 70 84 95
63 65 74 72 73 71 70 71 71 76 83 87 86 95 90 86 88 87 87 97 85 78 51 58 61 64 67 70 75 92 92 74 73 76 93 98 100 91 82 67 63 64 69 48 70 76 63
64 67 68 70 72 72 73 73 74 75 86 75 88 92 95 90 86 92 98 90 73 52 54 51 59 54 62 66 65 75 85 83 90 77 68 71 94 69 65 61 52 50 42 60 70 78 77
64 65 68 68 74 74 74 74 74 78 82 73 84 97 99 93 88 96 98 88 72 53 55 53 56 57 54 61 61 66 94 91 71 62 59 61 63 70 61 73 73 55 51 51 48 58 52
64 68 68 72 74 77 74 76 70 84 88 88 92 99 94 94 99 97 87 73 69 64 63 60 55 51 51 58 67 68 75 77 56 60 63 57 58 82 70 57 58 64 53 42 48 57 53
64 68 67 71 75 78 77 74 79 86 88 96 98 98 98 93 99 94 78 73 62 62 62 59 63 56 50 62 68 68 71 60 58 61 58 50 63 84 70 54 54 56 51 47 45 48 55
67 69 71 73 77 78 76 76 87 84 82 93 96 100 98 96 88 61 93 67 64 65 64 60 63 53 53 58 60 70 67 61 56 62 68 50 57 66 60 69 62 58 53 49 46 58 39
70 69 71 70 73 73 74 76 87 87 87 89 97 98 91 99 93 82 86 62 63 65 66 56 56 50 50 60 62 67 63 56 55 62 54 51 80 75 56 58 61 60 60 54 63 46 46
68 71 68 67 70 72 74 78 84 85 87 96 98 95 88 69 75 96 80 60 63 70 66 60 56 54 47 52 51 60 56 54 63 51 56 53 84 65 81 48 53 61 59 56 52 51 46
70 70 70 70 70 73 77 78 82 85 88 96 96 84 69 74 74 91 78 63 65 61 64 61 51 52 58 62 54 54 52 55 57 56 57 58 68 80 77 52 49 51 54 58 60 56 48
71 68 70 70 72 75 78 79 85 84 82 88 86 67 58 78 62 92 73 62 67 68 65 66 57 54 62 51 49 43 44 47 47 50 51 55 61 72 81 56 66 47 52 56 54 57 55
72 70 70 72 75 75 76 85 86 82 75 82 71 66 58 76 69 78 68 67 61 63 72 76 71 62 50 50 53 57 54 52 55 53 49 47 49 63 64 55 46 51 56 54 53 51 53
70 70 73 75 79 79 88 88 85 71 69 63 69 74 59 61 80 82 71 61 60 65 69 71 62 60 56 51 50 63 60 64 64 60 52 50 46 46 51 53 40 45 52 50 54 43 52
71 74 74 76 74 79 87 88 81 77 64 61 69 73 60 73 73 76 72 71 64 64 69 68 64 60 56 56 58 59 65 63 57 63 66 61 59 61 58 56 47 44 50 50 50 43 52
73 74 76 76 75 85 86 84 82 73 66 59 67 69 62 68 71 70 71 70 63 62 59 65 60 57 58 61 58 62 55 59 58 60 61 60 59 58 60 64 51 49 54 52 47 56 52
73 75 77 76 76 89 85 82 78 72 66 63 62 60 58 64 68 62 64 64 70 67 65 66 61 65 60 56 59 57 55 59 59 48 61 59 52 46 50 43 49 51 53 55 53 51 59

GFSGBSN_sfc_rhum_081.txt.gz
RH
63 63 61 62 62 62 62 59 60 62 61 63 67 64 67 72 77 84 87 84 79 67 68 65 60 67 58 54 42 35 50 47 46 42 39 37 39 41 45 32 33 39 38 34 33 35 30
63 63 63 62 62 62 59 61 62 59 59 61 57 66 60 71 72 82 89 88 73 65 67 66 64 68 55 63 25 26 33 37 40 45 40 41 39 38 44 43 42 34 35 35 35 36 37
60 62 61 59 63 59 62 64 71 64 58 60 59 65 65 65 72 81 91 78 73 70 69 65 63 52 61 48 25 28 34 37 34 39 43 37 37 45 42 50 40 44 56 52 44 44 45
60 60 59 61 55 64 67 68 68 67 65 62 58 61 62 66 74 85 82 81 80 67 65 63 64 52 58 32 26 28 26 30 32 36 42 40 39 46 53 50 51 57 60 84 44 45 45
59 58 58 57 58 66 69 69 68 67 63 63 61 64 66 67 74 90 84 84 74 70 64 67 60 60 49 40 36 28 32 40 35 37 41 37 45 60 56 79 84 65 86 67 54 42 46
64 61 56 59 58 61 63 68 71 67 65 64 65 67 69 67 81 89 85 77 73 67 61 51 50 65 38 37 37 35 35 42 50 51 59 65 75 70 67 75 87 79 95 74 60 46 48
60 68 63 58 59 58 61 68 71 69 67 64 63 64 69 68 74 89 83 82 78 80 72 57 50 38 32 36 40 44 44 54 56 59 73 62 86 89 58 60 55 81 98 96 82 44 45
59 66 67 57 58 60 63 68 68 69 68 67 68 68 71 69 70 87 80 80 70 68 63 52 44 42 41 40 51 50 48 63 57 66 53 67 84 47 53 55 68 79 96 95 76 52 53
55 65 65 55 59 60 67 70 67 69 69 69 68 70 71 70 75 91 72 70 70 63 54 60 50 47 44 46 51 53 56 52 61 55 53 68 53 51 87 99 96 94 83 84 100 73 59
54 57 57 61 62 67 71 70 71 69 68 68 69 70 71 69 86 86 81 63 78 54 92 66 62 51 54 50 66 47 55 68 65 66 63 68 52 81 92 100 96 94 69 89 95 71 86
55 59 62 61 68 74 71 69 70 71 71 70 68 69 71 70 69 88 69 61 80 59 98 56 59 46 54 57 71 70 66 70 77 73 97 92 82 86 94 97 89 96 68 71 85 96 87
56 60 61 67 75 70 72 70 71 70 70 73 73 74 71 73 72 59 70 81 67 95 93 75 60 69 71 66 67 68 78 68 69 92 93 92 59 72 78 66 69 75 81 84 85 95 95
56 60 64 75 69 71 71 70 70 71 72 76 79 78 75 67 74 62 76 91 100 98 54 77 68 64 67 69 80 83 77 84 88 99 98 64 83 80 81 94 80 84 78 97 100 99 98
56 63 65 70 70 72 70 71 73 75 82 87 83 82 78 61 60 77 87 99 100 70 63 49 55 60 83 66 77 73 68 79 66 66 81 99 100 97 82 84 70 86 62 84 94 91 92
60 63 67 70 73 72 73 74 75 81 83 84 81 93 90 75 76 80 98 100 98 73 52 55 56 66 74 60 71 80 82 67 69 73 98 100 100 87 72 58 60 60 66 44 56 45 62
62 63 68 70 70 73 75 74 73 87 76 71 78 92 88 70 85 93 99 99 81 48 42 45 57 53 56 60 69 70 61 72 80 70 68 90 100 81 57 54 50 54 40 63 64 77 74
63 69 71 70 73 78 76 76 82 84 83 78 61 93 98 85 89 98 100 98 59 47 41 46 45 47 45 51 48 56 92 82 66 55 56 57 69 64 53 62 63 53 46 40 41 52 49
66 69 67 71 75 77 77 84 82 83 82 74 70 98 97 88 99 98 100 71 57 53 48 48 44 40 42 47 54 56 75 77 50 51 54 49 54 72 61 48 49 53 40 35 50 53 43
67 69 69 71 77 79 78 82 85 80 85 80 96 99 95 93 99 98 70 58 48 48 52 50 49 46 42 50 60 54 58 50 50 53 53 43 52 81 62 50 43 45 39 35 36 43 47
68 68 68 73 77 77 75 81 81 83 82 80 90 100 98 94 84 63 57 46 54 55 54 50 50 42 43 49 45 56 56 54 49 51 64 52 50 63 65 70 55 52 43 35 43 58 32
72 66 70 72 71 73 75 76 81 84 82 72 86 94 91 98 64 68 54 42 50 57 51 44 44 41 41 53 49 53 47 47 46 55 47 43 70 70 47 48 51 49 47 41 53 36 43
74 70 69 72 70 74 76 78 83 85 84 83 82 78 66 69 74 67 60 44 50 56 55 47 46 40 36 47 42 51 40 41 49 38 45 43 78 60 80 42 46 55 48 44 45 40 36
74 70 70 69 74 75 75 81 85 86 80 78 76 64 51 63 67 59 47 44 52 50 54 44 40 44 57 55 43 41 40 40 43 46 46 49 60 80 70 45 45 48 49 51 53 47 44
74 70 72 72 75 75 78 84 87 80 76 58 68 50 42 57 57 70 51 49 56 52 56 54 47 47 54 40 37 36 37 38 37 39 39 46 52 68 78 54 65 44 43 48 48 49 47
72 72 73 75 75 79 87 87 83 78 70 56 54 53 42 64 58 52 51 54 52 54 62 63 58 45 42 45 46 50 46 47 46 45 41 37 38 52 62 44 38 41 46 46 49 45 44
72 73 74 76 80 90 90 86 73 70 64 52 62 63 46 52 71 67 54 46 47 51 56 58 50 48 50 41 40 50 52 51 51 45 42 42 38 42 41 48 34 40 44 44 46 41 43
74 72 76 76 79 86 85 82 75 70 64 55 62 63 51 64 62 62 57 59 52 50 54 56 53 51 49 44 45 47 52 51 46 47 51 50 47 51 45 48 40 39 44 44 48 47 44
73 74 77 76 80 85 82 82 78 74 66 57 62 57 57 58 64 60 61 58 55 51 48 54 55 51 46 48 47 48 42 44 46 45 46 49 49 45 49 54 52 40 50 49 45 46 43
73 76 77 77 81 85 79 81 78 74 66 62 56 50 47 57 62 53 56 56 63 62 59 54 54 52 48 44 46 44 44 44 45 36 48 47 45 42 43 41 40 39 43 46 45 44 49

GFSGBSN_sfc_rhum_084.txt.gz
RH
62 62 64 64 64 63 63 62 65 68 67 61 60 57 65 63 64 65 73 79 88 78 70 71 63 69 66 61 45 50 56 55 51 41 39 37 39 43 49 39 39 43 41 34 34 35 36
63 64 61 63 62 62 59 67 68 69 70 66 62 61 59 62 63 67 76 82 88 75 73 70 64 69 69 60 27 35 38 41 39 46 42 41 41 41 47 48 50 44 43 41 39 38 38
62 61 61 60 60 57 60 67 70 70 70 66 64 63 60 63 66 70 76 86 80 77 78 71 65 61 58 49 24 28 31 35 37 40 45 39 38 47 48 59 43 49 60 54 50 44 46
56 58 67 68 56 61 57 61 68 70 71 66 64 63 64 68 69 72 82 85 78 76 74 68 64 55 60 34 31 28 28 31 31 36 42 45 44 52 56 49 57 67 70 83 51 49 46
56 56 64 68 67 59 56 59 64 68 72 69 66 65 64 69 69 84 89 87 79 74 70 66 65 60 58 40 32 26 25 35 37 38 44 36 46 57 60 80 91 76 94 78 63 43 46
59 56 60 65 70 63 55 61 62 68 69 69 67 66 68 69 69 75 92 86 76 74 66 54 50 72 49 38 39 34 36 37 45 51 55 62 76 84 78 90 92 86 85 87 89 59 60
61 56 55 63 64 60 54 59 69 70 68 68 67 67 68 69 69 79 86 93 89 90 74 70 60 41 36 36 36 43 41 53 53 56 79 71 95 96 74 76 72 73 77 82 72 58 78
62 60 54 61 61 58 63 70 70 68 68 68 69 69 69 69 69 71 94 87 91 88 87 66 48 39 36 38 53 49 46 61 63 74 64 79 97 59 52 78 80 87 82 88 72 66 75
68 61 54 62 61 69 69 71 77 71 69 70 71 69 69 70 70 86 90 88 82 73 91 67 52 46 43 45 48 60 54 55 63 68 68 90 60 70 86 93 98 91 78 91 97 89 76
71 58 56 62 70 70 69 76 77 70 71 72 72 70 69 71 80 83 87 76 83 74 100 79 64 51 49 49 61 48 52 65 70 65 79 86 62 60 74 100 97 98 72 76 99 96 94
62 57 60 66 66 69 72 72 70 68 70 71 71 72 68 71 81 80 87 83 86 74 98 69 60 43 50 61 69 71 65 71 79 73 93 84 84 86 97 94 90 95 73 91 89 93 87
59 59 62 64 68 70 71 70 69 69 70 72 72 74 74 79 80 70 86 81 86 99 98 78 65 67 70 61 64 72 73 68 68 85 93 92 66 79 73 66 71 73 80 89 95 98 90
60 62 62 65 69 70 69 71 72 73 74 82 84 76 75 68 75 85 86 88 100 99 64 75 68 65 60 72 78 73 76 84 96 100 96 77 86 79 79 92 76 84 95 99 99 99 99
61 62 66 70 70 71 74 81 86 88 86 82 84 82 76 65 73 74 83 99 99 68 71 50 59 63 72 64 75 79 80 91 72 72 100 100 99 96 85 91 95 85 96 99 97 98 98
62 66 67 68 71 73 75 84 82 81 82 80 86 93 90 74 78 83 92 99 99 80 53 56 61 74 76 62 68 78 81 89 69 83 100 100 100 84 82 71 61 73 94 72 99 67 93
64 67 67 68 72 75 81 87 77 78 77 78 93 91 94 74 80 92 98 99 77 53 46 50 66 57 67 61 74 84 84 72 74 76 78 90 100 78 62 69 60 60 46 76 91 98 95
64 67 69 68 74 77 78 81 79 79 76 66 68 95 92 79 87 98 100 99 68 48 46 51 47 55 54 60 90 76 89 78 67 78 74 68 86 71 60 69 69 63 61 54 55 69 81
69 67 70 68 78 79 76 78 81 83 81 67 76 98 95 83 99 99 100 84 54 51 49 50 46 50 57 54 72 69 78 81 53 56 61 58 69 87 68 54 51 63 50 46 82 67 69
71 71 69 72 79 79 77 76 82 81 80 71 97 99 91 94 100 100 87 55 54 49 54 49 51 48 49 56 83 62 64 53 54 56 64 58 68 94 82 68 58 53 43 47 48 70 64
71 72 70 76 76 78 78 77 82 82 79 79 89 100 97 94 92 93 60 54 62 58 53 46 49 46 49 53 51 56 65 60 55 57 68 67 64 79 92 85 68 67 51 47 63 85 67
71 73 70 74 74 77 79 77 82 85 83 80 83 91 86 99 77 65 54 51 60 58 51 45 48 44 45 52 56 58 55 59 53 58 60 58 80 79 56 56 59 59 56 54 60 47 68
71 73 72 73 74 75 79 83 85 88 86 83 81 86 81 69 71 60 61 56 57 58 56 48 51 49 49 57 52 55 50 55 63 50 57 54 82 79 71 50 54 63 57 58 58 53 46
71 74 74 75 76 77 83 87 89 87 85 76 79 70 63 71 65 51 52 54 60 57 56 54 52 59 68 60 50 51 47 47 54 57 57 61 81 92 86 58 56 73 59 61 62 59 60
71 73 73 75 79 84 88 88 87 82 80 70 75 70 63 68 64 57 50 57 64 60 64 59 53 58 62 47 50 49 50 46 47 48 46 56 68 91 92 82 82 59 53 56 57 54 56
72 72 74 76 81 90 88 85 76 74 70 70 69 78 64 68 56 51 51 58 59 62 67 68 61 56 54 59 62 64 62 63 55 55 54 51 57 80 90 76 53 54 58 61 68 64 55
70 72 76 77 86 86 83 77 75 71 71 68 76 78 76 70 80 66 58 54 60 69 69 67 57 58 65 62 54 71 78 62 68 58 53 50 51 67 67 68 63 59 57 54 58 73 57
74 73 77 77 84 86 86 82 80 72 71 71 78 74 83 80 73 68 71 74 65 63 71 70 66 65 64 68 64 72 75 63 68 69 72 67 66 73 70 76 62 58 56 57 72 72 59
74 75 78 77 83 83 80 80 80 77 72 74 76 68 79 79 78 64 63 71 70 70 70 70 71 71 71 69 69 67 68 64 71 68 70 67 77 72 70 78 74 55 62 69 61 63 59
74 76 78 78 82 85 83 84 82 81 75 69 76 62 60 77 78 60 61 62 68 72 82 68 69 65 75 75 68 65 67 64 63 61 69 69 64 70 61 67 54 55 64 66 59 59 71

GFSGBSN_sfc_rhum_087.txt.gz
RH
60 61 59 63 64 60 60 58 64 68 72 70 66 67 65 61 59 59 63 69 73 83 87 80 69 70 74 84 70 57 60 60 54 52 50 48 51 54 61 55 55 60 58 49 46 44 43
58 58 57 60 68 70 58 59 57 66 70 72 68 66 62 61 63 65 65 69 76 82 80 75 69 70 79 83 58 53 53 64 53 54 53 49 51 52 58 58 64 55 58 55 51 47 43
63 61 58 57 65 69 66 61 56 62 70 69 70 66 66 63 65 67 70 79 77 86 81 74 74 63 71 68 36 50 41 50 47 52 56 50 49 57 59 65 55 63 73 65 58 54 57
63 62 60 56 63 67 71 65 58 60 68 68 68 67 66 65 68 68 71 84 87 80 80 75 71 65 77 43 38 36 37 42 38 43 51 51 50 61 69 60 64 74 80 96 60 59 57
72 76 70 57 56 62 65 62 56 61 67 67 66 68 68 67 69 72 82 86 89 81 75 71 74 80 72 39 40 35 33 42 39 45 49 37 51 68 66 80 95 89 98 88 67 54 61
86 86 70 65 57 66 62 60 65 68 69 70 68 68 68 68 70 83 94 85 87 81 68 60 61 81 59 47 43 34 36 44 51 58 57 68 80 86 84 95 97 94 98 81 82 60 59
74 80 76 62 57 68 69 67 66 69 66 69 71 70 69 68 69 69 84 92 91 94 87 82 72 61 51 46 41 48 50 56 61 54 76 82 90 90 90 88 80 86 89 88 71 59 68
70 70 65 56 64 68 68 67 79 80 72 71 70 71 71 67 69 70 90 95 95 95 91 78 68 51 45 45 58 57 53 75 75 86 75 85 91 74 70 70 75 91 97 90 77 64 82
71 65 57 58 66 66 65 66 68 70 71 70 72 72 69 68 70 86 91 96 93 93 94 80 67 52 49 52 58 66 63 68 73 77 78 95 74 67 78 92 93 88 96 90 87 72 84
62 60 59 64 65 64 67 69 66 66 69 69 73 74 71 67 82 88 92 89 89 91 100 98 74 57 53 57 70 54 62 73 82 79 90 90 75 72 78 93 88 99 88 95 93 98 97
61 60 60 63 67 70 71 73 77 73 71 70 69 68 71 70 88 86 87 90 94 88 98 82 69 50 56 67 71 76 71 76 83 73 92 79 90 90 90 96 92 97 84 84 92 95 98
62 62 64 68 70 72 80 86 82 81 82 73 70 71 73 83 91 91 90 80 85 96 98 98 75 72 73 66 71 79 84 76 76 90 89 85 75 82 79 77 73 75 91 94 93 97 100
62 66 70 70 71 77 88 85 78 79 84 78 84 71 77 77 91 90 87 89 93 96 84 83 85 71 66 79 81 83 91 90 94 96 97 82 84 78 80 88 80 88 99 99 99 99 99
67 66 72 70 73 78 84 78 74 77 78 82 87 80 74 76 88 86 91 91 91 95 77 61 64 70 81 72 78 88 89 93 83 88 96 98 94 91 85 88 96 95 98 98 97 98 98
66 68 71 72 76 76 81 82 74 82 80 85 81 91 94 85 83 87 91 97 98 93 60 66 72 88 83 70 78 89 89 87 81 85 100 96 98 82 87 77 73 82 98 88 100 87 97
67 69 72 72 73 74 79 81 73 76 83 75 89 90 97 88 84 90 96 99 92 60 60 68 84 69 80 80 83 89 89 80 82 79 78 90 98 79 71 70 68 68 57 82 96 98 96
64 70 72 74 78 80 80 79 75 66 69 68 91 94 93 87 86 96 99 100 98 70 69 74 61 68 67 87 84 88 92 83 74 77 81 86 94 80 74 72 70 72 72 62 59 77 85
67 70 70 73 79 81 81 79 80 80 74 76 95 96 94 92 99 99 100 95 84 63 56 57 58 65 67 79 92 84 89 85 66 64 76 72 76 93 71 56 57 68 69 58 81 70 82
68 71 71 78 80 81 81 79 82 83 83 90 98 99 89 92 99 100 94 74 68 62 62 60 60 56 58 78 78 77 74 57 59 64 69 64 76 94 79 64 60 64 54 57 59 72 83
68 71 72 78 79 80 81 80 83 84 81 87 96 99 96 96 96 94 82 70 73 61 59 53 54 53 58 65 68 71 69 64 59 61 66 67 72 82 93 80 74 72 63 59 66 86 85
70 72 72 75 77 80 82 83 86 86 84 88 90 95 90 99 96 98 68 71 73 72 62 50 53 50 50 69 66 69 66 66 61 63 66 64 79 81 64 65 64 68 70 68 74 65 78
71 72 73 75 78 80 84 88 88 86 85 94 94 96 94 91 84 78 68 76 72 70 68 71 74 68 65 73 67 69 62 65 72 59 64 65 79 86 75 60 57 65 65 68 68 64 63
71 71 73 75 81 87 89 90 82 78 84 95 94 87 80 79 81 75 74 74 71 66 66 66 69 72 72 69 67 68 57 56 64 70 65 68 85 94 84 68 64 70 65 70 71 68 69
70 69 75 77 84 86 83 79 77 75 79 92 93 94 83 86 75 72 72 74 76 75 76 70 66 70 65 59 60 64 67 58 58 60 57 63 75 94 89 81 77 60 61 61 64 64 66
69 73 76 78 83 82 81 82 77 75 76 88 92 94 90 86 76 66 67 72 75 76 76 76 68 66 68 73 69 72 70 66 61 63 62 61 68 83 85 85 59 61 62 67 71 74 64
71 73 76 77 88 88 83 80 80 75 77 85 92 93 95 80 86 79 77 71 78 83 80 71 64 67 72 76 64 73 82 76 69 58 53 54 61 74 75 70 64 58 64 60 64 78 64
72 74 78 77 86 86 80 84 83 80 75 81 85 84 91 93 89 85 88 85 81 82 85 79 73 70 72 78 74 79 80 71 76 76 71 75 76 77 78 79 65 63 60 60 71 56 62
73 74 78 78 85 82 82 87 85 82 80 76 79 78 85 94 88 76 73 86 81 85 84 76 75 74 81 77 78 77 78 70 76 69 72 73 81 81 78 82 62 60 68 65 59 70 62
72 75 78 79 83 88 85 88 85 82 77 75 82 79 76 86 83 70 71 70 77 79 88 84 78 80 85 88 82 80 74 75 70 65 73 61 63 70 62 65 56 62 68 73 66 64 74

GFSGBSN_sfc_rhum_090.txt.gz
RH
63 63 62 61 58 59 68 70 64 61 59 67 69 70 69 65 62 61 63 64 63 66 73 88 75 72 73 89 76 55 51 51 56 53 53 51 54 62 67 63 58 63 60 55 53 52 50
69 68 69 70 61 56 66 67 71 65 60 66 69 72 68 67 64 63 66 65 67 71 71 88 80 74 78 80 59 57 65 57 55 53 54 50 53 55 62 60 67 64 68 64 61 58 55
75 81 83 84 72 62 56 66 69 68 57 66 67 67 67 67 66 66 68 70 70 74 73 88 80 63 70 60 58 58 65 68 57 55 58 55 56 56 66 68 60 66 72 70 58 58 62
80 84 77 76 69 62 62 66 68 65 60 65 67 66 68 68 67 68 77 85 83 80 82 76 74 64 68 48 55 44 41 47 49 46 51 53 52 61 68 65 66 74 80 96 64 63 59
72 68 68 66 64 57 65 69 69 66 66 69 70 70 68 70 68 71 81 85 88 91 84 83 80 73 72 42 44 40 39 47 42 46 52 39 55 69 70 82 94 91 99 91 76 56 61
69 64 66 62 57 60 67 67 66 69 70 69 70 70 72 71 69 75 87 86 89 90 83 70 63 78 66 51 43 40 38 43 56 59 64 67 83 89 89 93 96 93 88 89 88 66 61
63 59 58 58 60 64 65 65 67 66 72 70 71 70 75 70 68 72 88 92 88 94 94 85 78 73 64 47 43 55 52 58 62 66 82 86 94 91 83 89 80 87 96 94 78 64 71
60 59 58 61 62 63 66 67 67 66 69 72 71 72 70 67 67 71 89 93 98 93 96 82 64 50 43 44 59 63 57 75 77 87 73 88 93 74 71 79 88 92 89 88 76 65 74
59 59 63 63 68 70 80 84 82 82 73 68 74 74 70 68 69 89 91 89 90 92 95 85 74 50 53 53 66 74 65 73 86 87 86 96 75 69 78 88 92 87 85 83 98 84 78
60 64 64 70 70 78 82 84 83 83 81 72 66 72 70 67 79 91 90 89 93 92 100 99 87 63 54 60 73 56 64 74 81 83 82 90 75 76 83 93 84 96 73 89 99 97 96
65 63 67 68 70 76 82 83 79 73 79 78 70 73 70 70 88 88 82 94 94 93 97 98 84 51 59 73 77 76 72 73 86 78 88 80 90 90 94 87 83 84 84 93 89 91 96
67 67 68 69 75 80 83 78 74 74 86 77 74 72 72 87 90 85 88 86 90 94 97 99 80 74 75 69 78 84 83 78 79 92 92 82 76 87 80 76 80 74 84 96 96 97 98
68 68 68 70 75 81 83 76 74 78 77 77 73 68 77 83 89 89 90 87 92 95 96 95 93 75 76 79 88 90 96 83 92 92 89 73 78 79 77 91 83 87 99 99 99 99 98
71 70 70 71 75 81 78 80 77 78 80 81 75 77 82 83 90 84 89 88 90 96 85 68 75 72 80 79 86 89 92 96 91 88 95 99 88 89 82 87 96 96 99 99 97 97 98
69 70 70 73 74 77 74 80 80 81 81 77 77 95 95 95 86 90 93 98 98 93 66 74 88 91 92 75 78 94 91 81 77 80 96 98 92 85 87 79 85 93 100 92 100 91 96
72 70 71 73 75 77 77 70 74 73 73 71 95 95 97 93 89 93 95 95 93 72 65 72 86 76 88 86 85 94 89 80 82 76 75 89 99 82 68 80 76 84 67 94 98 98 96
70 69 71 74 76 79 78 76 66 68 71 69 92 97 91 93 90 94 99 100 98 78 65 78 75 74 71 88 82 82 89 81 78 86 87 92 88 75 73 77 69 76 82 70 67 86 96
65 72 70 74 78 79 79 80 82 81 69 77 87 96 91 94 97 99 100 97 85 82 76 79 65 64 78 89 93 90 90 90 72 75 88 86 83 95 70 59 59 67 75 63 80 73 89
68 73 70 76 80 82 81 81 84 82 79 90 98 98 89 92 97 98 86 89 81 67 66 62 63 60 67 79 84 83 78 62 65 68 77 70 80 94 74 57 61 72 62 66 67 76 88
67 72 71 78 82 84 82 84 85 83 81 88 95 96 95 96 94 95 91 71 73 64 61 56 60 57 63 72 72 78 76 67 62 63 65 66 76 83 88 80 78 77 72 68 68 88 87
70 69 76 78 82 84 84 85 86 84 83 85 94 95 90 98 92 98 96 74 75 78 64 64 64 67 60 74 70 72 66 66 63 64 68 62 77 81 72 68 68 72 74 74 78 76 78
71 70 77 81 84 83 82 80 80 82 80 93 90 93 96 94 87 81 75 79 76 74 74 72 75 72 71 78 81 76 68 70 77 63 71 70 77 86 76 63 60 61 67 72 74 70 76
70 72 77 81 75 76 82 82 79 80 77 95 95 91 82 81 79 83 85 82 74 68 71 72 75 74 73 76 74 72 73 61 72 75 65 73 86 93 77 73 67 62 64 77 78 76 73
72 72 77 83 81 83 82 82 79 80 80 93 95 95 83 84 79 79 77 78 80 80 77 73 70 71 68 68 68 72 70 65 62 68 62 69 81 94 86 77 62 52 68 64 68 72 76
72 73 76 80 82 80 82 82 79 79 73 87 94 92 88 87 89 74 75 82 78 76 80 75 70 68 73 70 67 68 70 62 60 64 70 65 77 84 83 85 52 60 62 68 76 71 70
71 74 77 79 87 85 86 85 84 82 74 88 93 95 91 80 82 86 83 79 82 85 76 71 68 70 72 76 65 74 73 77 68 60 55 60 69 75 81 69 59 53 72 65 65 68 62
70 74 77 77 85 85 86 87 84 82 78 81 84 87 85 90 88 86 87 86 84 85 84 84 76 72 75 78 73 78 82 74 77 77 71 74 79 78 81 80 63 59 64 63 72 40 67
69 75 77 78 81 86 84 87 82 81 78 75 82 86 83 92 88 80 78 86 82 87 84 78 77 74 82 77 80 80 84 73 75 72 71 63 80 83 82 84 60 64 69 58 49 75 65
68 74 77 80 79 84 89 88 82 77 76 76 80 80 80 83 80 73 72 71 76 81 87 87 81 83 89 90 88 88 78 83 75 62 74 74 64 68 64 61 50 68 64 71 65 65 73

GFSGBSN_sfc_rhum_093.txt.gz
RH
70 80 80 82 81 72 70 66 64 68 72 67 63 68 68 75 72 68 64 62 65 64 64 71 84 82 76 87 67 56 56 55 59 58 53 50 60 65 70 69 60 68 65 61 60 60 57
70 70 73 74 76 68 65 61 66 65 63 64 61 68 70 74 69 66 66 65 66 65 66 69 88 76 71 69 55 55 60 56 55 52 52 50 55 56 62 64 67 66 71 67 64 61 59
70 61 63 63 61 60 59 63 68 69 69 67 62 66 67 69 69 67 66 67 69 72 68 70 88 75 74 60 65 66 60 63 57 54 61 58 56 56 66 70 65 67 71 70 64 59 63
70 57 57 61 58 57 62 65 66 68 67 66 69 71 72 70 70 68 71 74 83 84 76 73 79 78 88 53 65 62 55 59 52 48 55 56 53 62 68 66 68 79 82 94 64 64 60
62 57 58 57 59 58 60 65 64 64 65 67 67 74 76 74 71 70 79 79 84 84 78 82 81 69 83 56 63 43 44 49 46 50 51 43 56 68 70 82 90 86 98 92 80 62 64
60 58 59 59 60 63 65 66 70 68 66 69 68 68 73 75 69 73 83 82 82 82 81 78 72 76 69 60 50 42 43 47 54 59 65 70 86 90 92 92 86 89 96 84 94 68 65
59 59 60 64 66 67 70 76 78 86 74 68 70 71 71 71 67 77 82 89 91 93 89 89 83 86 62 52 43 55 54 61 62 64 84 88 94 97 88 88 80 81 92 94 78 65 73
62 62 65 67 66 68 69 76 79 84 75 76 70 71 70 67 67 78 91 92 95 93 98 81 72 69 44 44 63 66 56 70 74 88 79 92 97 78 73 78 89 94 96 90 78 69 80
65 66 67 69 70 71 73 76 82 77 81 76 68 70 69 68 72 86 91 86 94 94 96 92 66 67 55 51 68 75 65 75 84 88 86 91 71 70 78 88 96 92 92 84 90 83 86
69 68 69 71 71 76 76 73 73 76 86 78 72 68 70 68 81 91 94 91 95 93 99 100 87 59 52 63 77 64 67 73 82 88 85 87 74 78 83 92 80 96 67 72 86 98 99
70 72 72 71 76 77 80 71 73 69 84 79 72 70 74 66 88 90 93 93 96 96 96 98 92 60 59 77 82 78 72 72 89 81 82 79 89 93 96 88 71 83 77 86 90 98 90
69 73 71 74 76 81 77 76 77 79 81 75 72 72 72 84 89 91 91 90 98 92 98 99 79 75 80 76 84 85 84 76 81 91 92 88 74 84 85 73 70 73 84 85 96 99 99
69 73 72 74 73 79 72 71 74 74 75 70 70 76 81 86 95 91 85 89 92 95 95 100 95 75 79 89 94 91 95 91 89 94 91 73 77 72 76 88 81 89 98 98 99 99 94
69 76 73 74 73 74 74 72 77 76 73 76 78 80 86 88 92 86 86 86 91 96 98 79 75 77 84 84 92 90 94 94 93 89 98 99 84 89 81 85 89 88 99 99 98 98 98
69 77 74 75 76 70 71 72 73 74 74 73 77 95 96 93 90 89 89 97 98 96 75 81 81 91 91 82 87 94 92 80 77 80 99 97 91 75 88 84 85 96 100 94 100 92 97
67 74 77 76 76 73 68 66 67 67 70 72 93 95 92 92 94 92 95 96 94 88 77 83 88 79 94 91 87 94 88 77 79 74 76 89 98 77 72 84 81 90 88 98 99 98 97
67 73 79 79 80 79 76 79 73 73 70 71 90 92 82 90 91 96 98 99 93 80 75 74 76 76 84 90 87 88 88 81 81 91 83 87 90 74 74 83 72 89 95 95 81 97 97
70 71 79 81 81 81 81 83 82 83 68 78 90 93 80 92 95 94 100 96 83 78 77 80 74 68 80 90 88 87 92 86 75 84 94 87 86 96 72 64 66 72 79 78 86 77 87
69 71 78 83 85 84 83 84 84 82 72 91 97 97 86 89 97 97 86 88 88 74 73 66 65 61 73 85 90 84 81 67 74 76 82 76 84 94 63 55 62 75 71 72 72 79 87
70 73 78 85 87 84 83 83 83 81 79 89 92 92 92 97 94 95 96 81 77 69 67 62 64 60 69 82 79 83 80 69 66 65 65 66 81 83 88 80 79 76 72 74 73 89 87
70 72 80 79 75 75 77 81 82 81 80 83 95 94 92 98 90 95 94 79 79 81 72 68 69 76 69 75 72 76 69 65 67 63 78 65 76 84 76 70 72 70 75 78 86 85 80
71 73 80 77 78 76 78 82 83 83 76 92 89 89 94 93 90 79 81 82 78 77 77 75 77 73 73 81 85 83 79 76 78 68 76 74 75 86 80 67 68 66 61 75 79 79 78
72 72 78 82 80 77 79 80 83 82 75 95 97 93 83 79 82 84 88 83 77 73 77 75 79 75 71 76 76 74 75 74 72 76 70 76 86 92 76 76 69 60 61 78 79 81 79
72 73 77 82 82 81 83 80 82 78 79 90 95 95 81 84 86 86 79 79 80 82 80 72 70 72 70 71 79 80 80 66 68 74 66 74 84 93 88 71 69 46 68 64 72 72 78
69 72 76 79 85 84 86 85 80 73 73 86 95 92 85 87 91 78 79 81 77 78 80 78 73 70 76 69 66 64 71 62 65 70 74 68 80 85 85 85 51 64 61 70 73 65 68
66 73 76 78 85 88 87 89 83 76 72 87 94 96 86 79 76 85 86 86 86 87 70 69 74 72 72 72 66 72 68 76 62 62 64 68 73 77 82 70 51 53 73 72 64 52 67
64 74 76 79 81 86 87 90 88 81 69 80 88 90 83 85 88 87 85 84 86 88 87 84 80 80 76 78 72 77 84 76 72 74 69 70 80 81 83 85 63 58 69 68 59 33 69
64 72 76 80 80 83 85 89 89 87 74 78 89 90 80 89 87 78 77 86 87 90 86 79 78 77 84 80 81 83 86 79 83 71 72 58 76 84 84 85 59 68 72 56 44 76 74
66 70 76 79 81 82 87 89 88 88 80 72 84 84 80 81 78 75 75 75 74 79 87 88 80 84 90 90 91 91 81 87 77 69 70 74 63 62 67 60 48 68 60 68 66 66 72

GFSGBSN_sfc_rhum_096.txt.gz
RH
67 66 60 62 63 62 60 59 60 64 64 63 64 62 62 67 70 74 76 71 65 62 64 67 79 88 70 79 61 53 60 58 60 53 52 56 63 67 71 70 63 70 70 64 64 63 61
68 64 58 58 60 59 57 60 64 65 65 66 65 64 62 67 73 70 79 67 67 64 64 67 77 88 71 81 55 60 57 54 52 52 54 52 56 58 64 69 69 72 72 70 63 59 58
71 60 58 59 56 55 58 62 63 64 64 65 65 65 66 68 71 68 68 67 68 68 72 68 77 74 75 75 68 61 55 58 55 55 61 59 53 58 66 69 67 69 70 71 64 61 60
62 60 59 59 61 63 62 63 64 63 63 63 66 66 70 70 72 70 68 72 73 82 76 73 79 83 94 74 68 56 57 57 50 53 57 57 55 62 68 68 67 81 79 83 55 67 62
61 60 63 65 68 69 69 68 69 70 70 67 66 66 66 69 73 70 78 78 79 79 81 72 93 82 94 78 79 46 47 54 50 53 54 46 58 72 69 80 86 82 95 91 78 64 68
61 64 68 73 75 72 72 70 69 73 76 79 66 67 72 71 72 78 72 81 80 82 81 77 83 79 88 92 63 42 46 48 56 61 67 73 86 90 91 88 78 77 95 82 88 67 66
62 70 70 73 74 73 73 77 80 77 81 69 68 69 71 70 80 71 81 93 94 90 85 91 92 76 73 76 45 57 54 59 59 65 84 88 90 93 83 85 74 83 92 94 78 66 72
66 72 74 75 74 74 74 74 76 84 73 78 72 72 70 68 76 73 87 97 94 96 97 86 72 68 56 54 61 64 52 71 73 87 84 89 94 79 74 80 89 94 96 86 77 71 71
67 74 74 76 75 71 72 73 75 75 77 74 71 71 70 72 77 86 90 87 91 93 97 97 83 79 78 70 65 70 63 76 81 87 87 87 73 72 77 90 95 85 89 89 87 76 78
68 76 77 74 76 70 78 73 73 77 76 74 69 71 70 69 81 93 94 94 95 96 97 100 94 75 55 64 80 67 69 73 83 84 86 88 77 77 90 89 80 91 68 72 81 97 97
68 75 77 74 75 71 77 76 75 76 78 73 72 74 74 67 89 93 93 93 96 98 95 99 91 57 64 79 81 81 75 73 90 86 81 79 88 93 88 81 72 76 67 75 81 95 98
69 75 77 73 73 72 72 73 74 73 72 72 73 71 68 83 91 93 93 93 98 90 98 100 83 74 81 82 84 84 84 75 84 90 91 87 78 84 75 73 70 67 81 86 88 99 99
68 76 78 75 74 71 71 73 71 72 76 79 80 80 85 88 98 89 86 88 90 95 96 100 86 79 84 92 92 91 93 91 88 89 91 81 87 73 71 90 79 88 99 97 96 100 94
69 76 80 76 70 69 70 70 72 72 71 73 77 80 86 87 95 90 87 85 90 96 94 81 76 79 91 87 93 93 95 95 90 92 95 98 87 85 81 86 91 97 98 99 98 98 96
69 74 80 78 74 67 67 66 66 69 74 76 74 94 94 90 91 90 89 95 99 95 80 81 83 87 91 86 92 94 94 83 83 81 97 96 93 76 88 77 82 96 100 93 100 99 97
69 73 79 80 79 78 73 69 72 78 76 73 91 93 88 85 94 90 93 94 97 92 77 78 82 79 94 93 87 96 90 82 85 70 81 90 99 78 82 85 82 91 87 99 99 98 97
70 73 78 81 81 80 81 82 80 81 76 69 91 88 78 90 88 93 97 97 92 81 77 81 83 82 88 90 88 91 92 82 81 85 76 87 90 78 80 90 76 96 93 95 94 99 97
69 74 80 82 83 81 82 83 82 83 72 80 92 91 82 89 95 97 98 95 82 79 79 80 74 73 84 90 82 87 92 84 74 85 95 86 92 98 73 67 66 77 81 83 90 79 89
70 75 80 82 84 84 84 83 82 81 75 88 95 94 85 85 96 98 86 88 87 75 73 71 69 68 81 87 88 90 86 68 76 83 85 82 86 95 62 57 66 76 72 76 79 83 86
71 76 79 75 81 80 78 79 79 78 76 87 90 92 91 96 94 94 94 84 79 73 74 68 73 64 76 81 84 84 82 70 74 76 67 64 82 82 84 74 81 76 72 79 79 91 86
71 75 80 79 80 79 81 81 82 81 75 81 94 94 92 96 90 89 89 82 81 84 74 70 70 78 79 80 79 80 75 67 70 62 80 68 77 86 76 76 75 69 66 79 88 84 75
71 74 79 81 79 80 84 83 84 83 74 93 89 90 93 91 88 82 85 87 83 78 78 77 76 73 76 81 84 82 85 78 77 70 78 77 77 87 88 67 73 70 66 76 83 82 84
69 75 78 82 79 82 88 88 85 81 73 94 98 94 78 82 85 87 91 86 84 82 80 77 82 78 79 80 76 74 77 80 78 77 72 77 85 92 81 70 69 60 60 77 80 80 75
68 73 77 80 83 82 86 90 87 80 76 86 96 93 78 83 89 88 86 84 82 85 83 76 78 77 73 79 82 85 84 79 77 73 72 76 83 93 90 68 59 45 72 73 74 70 76
68 71 76 80 84 86 84 89 89 83 74 89 96 88 83 86 90 80 83 86 79 79 81 81 76 73 80 70 66 64 67 64 73 72 73 73 81 85 85 87 49 62 65 72 74 61 73
69 67 76 79 81 87 87 88 88 88 75 90 95 94 82 76 70 80 85 87 88 90 75 73 75 76 69 71 66 70 62 75 62 59 77 71 77 77 83 71 49 38 73 74 62 49 69
68 66 74 78 81 83 86 88 87 89 76 83 90 91 81 80 86 84 83 80 86 89 87 83 81 82 77 79 72 75 83 78 73 77 69 69 81 81 84 84 66 56 70 69 58 30 72
72 65 71 78 81 82 84 88 87 89 82 81 89 92 87 86 84 84 78 84 90 92 84 76 74 77 83 77 80 82 87 81 86 74 70 60 71 82 86 86 60 66 73 53 42 76 73
77 66 69 76 80 82 85 91 88 85 76 75 85 86 82 85 78 81 78 79 77 78 86 88 77 82 86 88 92 92 84 90 80 70 73 73 59 53 66 61 47 68 57 67 65 64 72

GFSGBSN_sfc_rhum_099.txt.gz
RH
70 66 59 59 59 58 60 56 61 64 64 64 63 62 63 61 66 68 72 78 80 71 60 57 72 83 74 70 66 47 62 60 52 49 52 57 61 61 67 59 56 59 63 59 58 59 58
58 59 60 61 58 62 62 65 64 66 66 63 63 62 61 62 66 74 70 74 84 77 67 59 64 88 87 87 73 58 51 50 48 49 52 49 52 55 60 62 57 62 64 64 58 56 53
60 62 59 65 67 70 74 73 73 69 69 66 66 65 65 66 67 73 72 72 75 71 70 69 67 83 89 87 76 60 49 54 51 52 58 55 50 55 57 65 60 62 60 62 54 52 58
62 64 70 70 71 72 75 74 74 73 72 71 68 65 63 70 66 69 69 73 73 76 74 73 73 87 95 85 72 54 46 50 51 52 56 57 54 61 63 60 59 72 64 58 44 60 56
64 68 71 73 73 73 72 73 72 73 73 73 75 66 64 67 68 75 71 71 71 81 78 72 95 92 97 85 67 47 47 55 53 57 56 47 59 70 66 71 74 67 74 74 64 56 60
66 69 73 72 69 68 72 71 73 82 90 84 87 70 70 70 78 69 68 74 87 80 75 72 88 90 95 96 61 47 48 50 59 61 67 70 81 82 83 75 72 78 80 75 77 60 65
68 72 75 71 70 72 71 73 80 80 77 75 71 71 70 79 71 68 77 89 92 88 85 90 90 90 85 81 55 56 52 56 57 64 81 84 79 69 65 71 62 78 86 96 77 63 73
69 74 73 71 72 71 71 73 75 75 74 71 71 71 69 76 70 70 84 92 90 89 97 87 86 86 75 56 68 62 52 68 68 82 77 79 79 69 68 77 80 87 90 88 74 67 68
70 75 70 71 69 71 72 73 73 73 70 71 72 70 72 75 71 84 88 92 92 93 98 98 90 87 85 56 62 72 62 69 74 80 76 72 74 71 72 87 86 88 86 85 88 71 74
68 75 70 71 71 71 72 71 71 71 72 72 72 70 69 74 82 92 95 94 94 95 97 100 94 86 76 71 78 67 69 71 80 80 81 78 72 75 82 90 80 89 66 69 80 92 94
70 75 74 72 74 70 70 70 70 72 74 73 71 70 75 74 91 94 91 95 95 99 95 98 93 62 70 75 76 78 71 69 88 86 74 77 81 90 88 82 72 79 60 71 76 98 99
70 74 78 69 71 70 70 71 73 75 78 80 78 78 71 85 90 92 93 93 95 90 97 97 92 90 82 83 87 82 79 74 79 85 89 79 75 82 76 72 72 64 80 85 90 99 97
69 74 78 75 67 68 70 69 66 68 71 73 74 75 83 88 95 90 89 87 90 95 98 96 99 80 85 91 91 90 90 87 86 87 90 78 88 75 71 87 79 82 99 97 93 95 92
70 74 78 78 72 67 66 66 69 73 72 74 70 77 87 85 93 93 86 85 91 91 93 83 78 80 90 87 93 93 94 91 88 91 89 98 82 81 82 85 94 97 99 94 99 96 91
72 72 78 78 77 75 72 74 76 78 79 75 70 92 89 82 91 89 88 96 99 95 80 81 82 86 93 86 88 92 94 88 81 86 96 91 92 79 87 74 79 96 97 89 99 86 96
71 76 81 80 80 79 79 80 80 82 85 74 90 90 84 82 92 89 91 92 96 92 79 79 82 79 93 92 86 90 88 80 84 71 80 87 98 74 82 82 80 83 81 96 100 98 92
73 77 79 82 82 82 82 82 81 81 84 70 88 86 76 88 89 92 94 98 91 82 79 79 83 86 88 89 84 91 90 78 76 87 77 85 88 77 82 96 84 93 93 89 94 98 94
73 78 76 77 80 80 80 80 79 82 81 78 88 92 77 86 93 98 96 89 80 79 81 80 72 76 85 89 88 92 89 81 72 84 93 87 84 98 76 66 63 71 73 76 87 79 84
73 77 78 79 84 84 85 83 80 81 78 84 92 91 82 84 95 99 86 89 88 78 79 70 70 72 82 87 87 89 84 68 80 87 86 86 87 93 62 56 63 72 71 72 77 78 82
71 74 80 81 83 84 86 86 85 82 77 84 89 90 90 95 94 90 89 85 79 72 74 72 75 68 78 81 82 85 78 72 80 82 70 70 82 80 80 64 77 79 69 75 80 85 75
70 75 77 81 79 82 86 89 87 84 75 81 93 93 92 93 86 88 88 85 83 85 76 72 74 79 81 80 78 80 76 68 72 64 80 71 82 86 78 75 74 76 67 67 80 73 68
70 74 76 78 80 79 86 89 87 84 77 91 87 90 93 92 87 84 85 87 87 83 81 77 77 77 79 81 81 82 85 78 78 71 79 78 82 88 89 71 69 73 68 66 75 76 79
71 72 77 78 83 83 86 89 89 81 80 93 98 94 75 82 86 87 91 87 84 87 79 80 82 80 78 79 77 75 75 78 80 79 73 78 84 90 81 68 66 66 64 65 70 73 67
71 70 75 78 81 86 86 88 88 83 82 93 95 90 73 81 88 87 86 85 82 83 83 77 80 79 69 83 85 87 89 87 85 78 74 77 82 91 92 67 52 40 67 63 65 65 72
72 69 73 77 81 84 87 87 87 84 79 90 97 87 79 81 87 82 83 85 80 80 81 81 74 72 81 73 67 61 64 63 74 76 79 75 80 84 85 84 44 46 52 65 66 48 66
72 68 71 76 80 83 86 88 88 83 75 88 96 96 84 75 68 74 81 86 83 86 77 68 75 79 75 73 65 67 55 70 61 60 81 76 78 78 83 70 43 28 65 67 57 46 53
76 69 70 75 79 82 83 87 90 87 76 83 92 91 86 80 82 82 83 80 85 90 85 83 78 81 77 78 68 72 77 77 73 73 60 68 80 85 84 82 62 49 66 61 49 24 63
81 73 69 73 78 81 82 88 91 86 77 79 89 92 85 89 83 84 79 82 90 90 81 68 68 72 83 72 75 80 86 79 86 76 68 56 73 83 87 88 59 63 70 48 39 68 63
84 78 71 72 77 81 82 87 89 85 75 74 84 88 85 87 79 82 80 79 78 76 85 88 72 80 84 82 88 91 85 92 79 63 76 66 54 48 60 53 45 67 54 60 53 57 63

GFSGBSN_sfc_rhum_102.txt.gz
RH
59 62 64 68 69 70 70 70 66 64 61 65 63 62 61 61 60 64 68 71 77 79 69 56 69 81 70 84 80 44 60 55 41 38 42 40 36 39 41 40 44 39 47 46 42 43 39
61 67 70 73 73 74 74 74 72 73 73 67 66 61 59 58 61 64 68 72 75 82 81 64 72 77 82 87 66 65 45 40 36 37 40 38 38 37 40 41 36 43 44 38 38 36 34
66 70 72 72 67 68 70 70 72 74 73 69 68 66 66 63 64 64 68 68 69 75 79 72 70 86 84 80 64 43 40 39 37 36 41 37 33 32 36 46 44 46 38 35 38 38 40
71 71 70 66 70 72 69 73 72 73 74 74 84 74 61 65 65 67 71 69 69 70 75 67 72 93 95 91 61 39 34 42 37 38 42 39 33 42 42 42 40 42 39 34 34 43 48
72 73 66 68 70 70 71 74 79 75 76 82 88 74 63 65 66 70 68 67 68 75 72 70 82 96 98 91 59 40 33 44 44 42 40 37 43 49 45 46 57 38 58 43 39 44 47
72 70 67 69 70 70 71 71 74 78 80 78 81 74 69 72 73 68 69 83 74 75 68 53 79 94 97 92 50 41 38 40 46 46 48 50 56 51 49 43 65 56 58 53 52 43 48
72 67 68 68 71 68 68 70 71 72 72 71 70 71 75 68 68 68 67 84 77 84 72 79 87 90 84 68 40 44 39 41 41 48 60 65 53 57 51 50 50 63 63 73 54 48 60
72 68 68 68 65 64 64 67 69 69 70 70 69 70 72 66 67 68 65 79 78 80 94 91 86 87 77 51 60 48 39 47 50 64 59 59 64 52 53 58 60 64 66 68 52 52 56
71 74 66 70 69 67 69 67 68 70 71 70 70 72 69 68 71 77 86 94 84 80 96 97 90 89 87 54 53 56 47 51 53 58 52 58 64 56 58 74 67 59 58 62 80 58 53
73 74 69 69 73 67 69 71 71 73 73 72 72 73 71 72 81 91 94 91 86 88 99 100 97 92 71 52 63 58 57 54 60 60 58 58 57 61 64 83 63 71 51 57 68 75 79
73 74 71 66 67 69 69 67 68 71 75 76 76 67 78 74 88 86 89 85 86 92 90 97 93 72 69 65 54 62 57 53 64 62 64 82 70 73 72 69 58 61 52 59 66 77 88
74 75 76 73 68 70 68 67 69 72 73 73 74 75 66 76 80 81 82 81 82 94 96 99 94 82 66 65 71 64 62 56 59 64 64 59 57 63 57 55 54 53 63 72 67 81 94
71 75 78 76 73 67 67 68 71 74 74 72 71 75 70 71 72 75 72 73 96 90 96 97 97 70 68 73 72 68 69 63 70 92 96 66 69 62 60 68 66 69 86 92 91 94 83
70 76 79 78 78 77 76 77 78 78 80 85 75 71 75 63 69 76 70 81 86 88 96 87 66 64 68 67 72 72 67 66 65 64 84 95 97 65 63 64 76 84 98 95 92 76 73
73 80 78 80 79 79 79 79 79 83 86 85 68 71 68 61 77 76 71 98 94 81 68 67 62 66 74 68 63 71 67 68 66 62 83 84 98 62 67 62 75 96 99 83 98 73 88
75 79 75 77 78 78 77 79 79 83 86 76 64 70 65 70 74 76 78 96 76 71 59 60 61 57 63 63 61 63 62 61 70 60 58 71 94 60 71 68 65 70 67 92 97 92 76
73 78 76 78 80 82 79 77 79 83 85 67 57 67 64 68 78 71 99 91 67 64 63 60 59 59 59 62 60 64 64 59 61 65 60 65 65 64 64 77 64 80 74 72 73 77 74
70 75 77 80 84 85 83 83 80 84 78 61 62 92 63 70 85 85 93 74 74 64 62 58 53 57 58 63 62 65 63 61 54 64 68 67 68 84 60 50 48 53 54 51 67 69 59
70 74 78 81 85 86 85 85 83 84 76 57 74 77 64 62 91 84 67 68 63 60 61 55 57 58 60 64 64 62 63 53 60 64 62 64 70 78 56 51 51 55 53 51 58 61 66
71 71 76 80 83 84 86 87 84 82 77 58 61 94 71 75 75 64 62 64 63 60 58 56 55 52 56 57 57 60 58 59 62 62 70 62 62 62 50 46 50 57 52 54 59 70 49
74 71 74 75 81 80 84 88 85 78 80 59 61 80 76 82 58 63 60 64 64 66 55 51 51 58 57 53 51 54 54 49 61 61 61 58 72 67 53 48 53 54 52 49 67 52 54
75 71 75 75 82 83 84 87 87 80 73 67 56 67 70 63 65 59 64 66 68 64 62 54 54 56 52 51 53 51 56 48 47 49 56 59 75 63 80 50 55 59 49 47 46 49 56
75 73 72 79 82 85 86 87 87 82 69 64 79 67 49 67 60 49 60 62 63 67 59 58 58 55 50 54 53 50 50 52 52 52 51 58 64 72 64 45 44 46 38 42 43 46 44
76 73 71 75 81 84 86 88 88 82 73 63 74 58 45 48 52 54 63 64 60 62 63 55 56 55 54 55 58 58 60 61 60 57 52 55 59 71 80 48 50 28 42 43 42 42 44
77 72 72 72 80 83 86 87 88 81 75 64 73 64 51 46 55 59 63 60 58 56 60 61 51 53 56 49 48 42 42 46 50 56 56 52 53 61 65 48 28 29 35 43 42 28 32
80 73 72 72 77 83 84 87 88 82 74 64 75 75 58 47 42 50 55 61 50 51 52 51 52 55 50 48 45 43 32 40 38 43 55 58 56 55 54 51 22 17 38 42 42 31 32
80 78 71 72 74 80 83 88 90 83 76 65 72 77 59 57 52 56 52 52 60 61 52 56 54 60 53 47 42 43 43 51 42 42 49 55 57 64 56 51 33 27 45 42 33 16 32
82 82 76 72 73 77 81 85 90 85 75 67 74 76 65 62 58 63 59 61 68 63 50 51 54 56 56 49 48 44 50 43 54 44 38 36 44 50 53 58 54 40 53 37 26 31 41
84 84 82 75 74 76 80 82 87 84 75 69 66 72 66 65 61 63 59 57 55 54 55 68 54 58 53 47 54 52 52 56 46 31 46 43 31 28 37 30 31 42 36 34 32 36 43

GFSGBSN_sfc_rhum_105.txt.gz
RH
69 70 68 65 68 69 70 69 69 72 71 64 65 61 63 64 59 62 65 67 69 74 69 57 68 79 77 88 63 47 59 56 36 33 31 27 24 25 27 29 31 27 34 35 32 34 29
70 67 66 67 69 68 70 70 71 71 70 76 66 64 59 58 59 64 66 70 73 74 75 70 73 81 75 92 61 61 56 40 33 34 33 28 26 27 30 31 30 32 34 28 28 28 27
70 64 66 69 68 69 70 76 73 70 71 72 71 71 67 62 62 64 66 64 64 72 71 70 67 70 84 73 68 49 49 34 32 32 35 28 24 26 29 36 31 33 30 29 29 29 31
68 66 65 67 67 69 70 73 75 75 74 74 82 75 64 65 64 63 66 67 69 69 70 67 71 70 77 86 84 76 35 35 32 30 33 29 25 31 30 32 30 32 32 33 29 34 38
68 67 67 68 64 67 68 71 72 74 77 76 81 70 65 66 65 71 67 65 66 68 73 69 69 84 95 82 78 54 30 39 37 35 34 28 32 34 36 39 52 31 60 33 33 35 38
72 66 68 68 62 64 65 68 68 69 72 72 71 71 74 73 70 69 78 73 72 72 68 52 72 91 94 90 68 34 32 32 37 42 40 39 41 35 32 36 70 47 47 40 37 36 39
73 65 69 65 64 65 65 67 68 68 69 70 73 71 69 67 68 67 73 84 74 87 74 80 88 89 84 88 55 43 35 35 34 33 46 48 52 52 37 36 37 43 41 46 39 38 52
72 70 66 67 66 66 67 67 68 68 68 69 71 69 70 71 66 65 61 70 79 75 94 88 86 85 83 73 74 50 32 37 37 47 45 48 55 41 40 44 46 48 47 52 43 43 49
72 72 66 67 68 69 69 70 71 71 72 72 75 71 66 73 68 66 76 84 75 69 96 96 89 88 91 62 59 54 38 38 38 43 39 51 46 46 47 61 53 46 44 46 67 52 44
72 76 73 67 68 69 67 70 71 72 73 75 71 76 70 69 77 78 89 83 81 84 99 100 96 90 77 59 61 48 48 43 45 45 40 48 47 49 51 73 52 58 42 50 60 67 74
72 73 76 74 68 70 69 69 71 74 73 73 74 68 73 62 75 80 76 77 81 84 93 97 95 78 73 69 50 56 49 45 46 48 55 73 57 61 60 62 48 55 48 52 57 70 79
74 76 78 76 76 75 75 75 76 76 78 77 73 73 71 60 61 67 70 68 70 95 96 100 92 90 71 55 62 56 52 46 46 50 48 52 48 53 51 48 48 46 55 62 62 70 86
76 76 77 77 76 76 76 78 77 78 79 82 80 70 63 57 64 62 62 64 96 92 92 96 92 67 52 57 59 53 53 54 62 90 97 60 59 53 52 62 57 60 80 95 91 93 81
78 75 75 76 76 76 74 74 75 79 82 86 77 70 67 51 60 68 65 78 91 83 84 85 54 49 58 52 59 57 56 58 53 50 75 91 97 59 53 60 69 78 85 92 85 75 72
77 79 77 77 77 78 76 76 77 81 87 82 67 55 55 55 64 67 63 98 93 74 53 56 51 56 62 56 52 57 54 54 53 51 72 80 97 54 55 52 59 85 93 70 98 61 84
74 80 76 78 80 79 79 78 79 86 86 71 45 51 59 59 63 65 67 85 68 51 48 48 51 44 52 52 52 52 52 52 58 50 49 57 86 52 59 59 56 56 62 90 99 91 76
70 75 77 77 80 81 81 82 80 83 77 65 48 45 58 60 68 49 96 74 58 53 52 46 44 45 44 50 47 50 52 52 52 54 51 52 54 58 58 62 54 68 66 64 58 65 81
70 74 77 80 81 82 81 84 83 84 80 65 50 86 50 62 75 60 87 64 66 54 50 48 45 46 46 50 51 50 51 51 48 53 56 53 55 67 51 45 45 47 49 42 59 61 53
72 71 75 79 85 85 83 81 79 79 80 54 44 52 46 45 87 73 52 56 52 51 53 48 51 50 50 51 52 48 51 47 50 55 52 50 58 72 54 48 46 53 44 43 44 53 62
75 71 73 77 82 85 86 86 82 77 78 54 45 90 52 48 56 48 50 52 56 53 49 46 47 45 46 45 44 49 49 54 51 53 68 58 52 56 56 45 42 45 43 44 49 67 44
76 72 73 77 78 82 86 88 84 79 75 55 48 66 61 68 46 45 46 50 51 54 44 42 42 46 46 40 40 42 44 46 55 64 55 52 63 61 49 41 39 42 44 40 56 53 50
77 76 72 76 79 83 85 89 87 83 79 51 46 47 50 44 49 41 51 51 52 53 49 44 42 43 38 40 44 43 44 38 38 44 46 50 66 56 79 40 44 49 40 39 40 39 41
79 76 74 74 81 83 86 89 89 82 67 50 54 47 44 57 42 37 40 45 51 54 52 45 45 44 40 45 45 41 41 41 41 41 42 47 57 64 61 38 37 40 30 34 37 33 34
81 77 75 73 78 83 85 88 90 83 74 48 55 50 42 35 39 40 47 48 46 48 51 44 46 45 46 45 43 50 47 46 44 46 43 46 52 59 79 48 54 26 32 36 31 29 28
81 77 74 75 74 82 84 87 88 83 74 52 55 50 45 34 39 41 46 46 43 43 50 50 43 44 43 44 40 35 40 44 45 47 48 45 47 57 67 42 28 20 29 37 39 27 25
80 80 75 74 74 78 83 87 89 83 76 54 60 62 46 43 35 41 41 45 40 34 36 42 44 45 47 39 37 38 26 31 33 42 44 48 48 53 43 48 25 20 29 32 34 30 21
81 81 78 74 75 75 80 85 90 85 76 62 61 67 56 48 40 41 36 40 46 44 39 41 42 50 48 38 36 32 33 40 34 34 53 54 52 63 56 54 34 23 34 36 33 23 25
87 83 83 77 74 75 77 82 88 88 80 67 63 63 67 53 45 50 47 48 53 47 37 44 46 52 48 46 37 33 38 31 40 28 29 32 41 47 43 48 60 34 44 32 25 28 32
90 88 88 84 75 75 75 79 85 87 79 68 59 60 56 64 54 50 43 42 42 40 45 52 48 44 41 40 39 37 38 35 31 25 30 37 24 23 28 30 28 34 25 28 29 30 34

GFSGBSN_sfc_rhum_108.txt.gz
RH
63 61 68 68 70 67 68 69 70 68 67 77 68 62 63 64 62 64 64 64 71 70 68 58 68 81 76 92 66 44 58 54 39 39 33 28 32 35 39 36 40 39 38 36 36 40 34
64 63 64 67 68 67 68 72 74 74 72 75 67 63 62 62 63 65 68 72 72 73 72 61 71 82 75 94 68 57 56 48 33 37 36 31 29 35 33 35 42 39 44 37 36 34 31
64 67 66 64 62 68 68 69 72 75 73 69 70 66 65 66 64 65 64 64 70 72 69 65 65 73 73 85 83 50 46 42 35 38 42 32 31 38 35 44 36 38 43 39 37 37 38
65 67 66 61 62 64 64 68 70 74 76 78 71 69 67 67 64 63 64 67 68 71 71 69 68 76 91 84 84 62 48 41 35 34 37 34 32 37 39 38 35 42 45 52 39 41 46
65 67 63 62 64 64 66 67 68 68 74 71 72 70 70 68 69 70 67 66 68 69 67 65 69 85 96 77 87 72 44 42 40 37 38 27 38 44 44 53 70 44 84 53 48 40 47
65 65 64 65 65 65 65 66 66 67 70 71 70 70 70 70 69 71 78 64 68 76 72 52 70 86 85 93 88 57 40 37 41 47 46 49 51 49 45 62 92 71 64 52 48 48 47
69 66 66 66 67 67 67 67 68 69 70 71 68 71 69 67 68 74 72 79 81 91 81 89 87 88 81 76 65 42 37 39 39 42 58 58 70 76 46 52 44 51 50 64 49 43 60
71 70 65 66 66 67 69 70 68 70 68 72 67 70 72 67 67 64 69 80 91 76 96 89 81 85 86 81 58 44 34 43 46 60 46 64 72 44 40 47 48 53 55 64 52 46 54
68 72 71 67 67 68 69 70 73 70 71 71 76 68 72 70 64 72 79 82 73 66 97 96 90 89 94 71 69 61 42 42 45 50 50 71 50 43 46 72 57 56 54 58 73 58 54
71 74 75 73 72 71 72 73 74 75 75 73 72 73 70 66 75 74 85 79 80 81 99 100 96 88 80 65 75 46 50 50 51 49 52 58 48 47 56 74 58 70 46 52 61 79 94
78 75 74 75 75 75 75 76 75 76 79 80 71 71 68 66 78 82 77 80 81 86 95 98 96 80 81 74 63 55 50 56 49 49 65 76 61 66 63 64 51 64 54 59 65 67 80
77 72 74 74 74 74 73 73 74 78 81 83 78 68 69 68 71 68 72 71 81 99 98 100 93 92 66 55 57 55 52 50 51 55 54 60 53 59 59 48 50 48 60 66 65 75 90
79 73 76 76 76 76 76 76 77 78 81 84 81 67 64 56 75 67 69 78 99 95 95 98 97 84 54 58 57 51 57 64 76 92 95 68 62 57 54 60 60 61 79 91 94 96 93
75 78 74 78 77 76 77 78 80 82 84 84 73 68 70 54 68 71 74 88 91 88 90 85 70 58 62 53 58 57 58 72 62 59 91 85 97 66 58 65 73 79 85 98 88 88 91
75 79 76 78 79 78 77 79 79 83 81 76 73 67 69 68 68 78 85 96 97 86 54 53 49 63 64 56 56 58 53 60 58 57 74 88 96 61 57 49 59 89 96 73 93 78 93
72 75 77 76 80 81 80 78 78 82 81 70 66 67 71 65 69 83 86 80 70 48 45 47 60 49 59 58 60 58 55 58 60 53 55 65 83 59 60 65 63 65 64 92 98 96 92
70 75 75 75 81 82 82 82 80 80 80 66 71 68 74 67 76 70 98 79 59 51 53 53 46 46 48 56 47 54 57 59 54 57 58 58 63 71 70 77 68 68 70 66 63 75 84
74 72 75 77 82 85 85 84 84 83 84 73 74 97 76 73 91 73 96 64 66 53 52 51 51 52 52 52 48 56 58 58 54 58 56 63 71 88 70 57 52 61 63 58 82 81 78
77 72 72 76 83 87 86 86 84 82 81 71 65 68 68 78 97 90 60 58 54 53 54 51 55 53 52 56 63 55 57 52 56 62 70 63 75 90 76 62 57 64 56 56 52 72 85
78 75 73 75 83 86 86 87 86 81 79 79 66 96 75 64 67 61 61 56 60 60 52 47 48 48 48 49 50 57 58 61 57 60 71 68 66 75 87 72 54 63 54 54 60 93 80
78 77 74 75 78 83 86 88 86 81 82 77 66 80 73 91 61 57 58 56 56 58 52 47 50 50 50 49 46 52 53 58 62 69 70 66 79 75 66 57 55 54 52 52 64 64 78
79 77 76 73 78 82 86 89 87 81 83 69 72 68 63 54 52 56 59 58 55 56 55 49 48 46 42 49 50 52 51 49 50 62 63 62 81 77 89 56 52 60 52 47 47 51 56
81 79 76 75 74 82 85 90 90 83 78 68 66 58 58 64 50 51 56 54 55 60 58 50 52 53 50 57 55 55 55 52 54 55 54 59 77 82 86 61 61 65 45 44 49 46 45
82 80 77 77 74 79 84 90 90 83 80 74 72 68 64 54 48 51 51 54 53 56 65 51 53 57 63 50 50 58 64 57 55 56 54 60 68 80 94 78 81 42 43 50 42 37 40
81 82 78 76 77 76 82 87 89 85 77 73 71 77 65 62 47 47 49 51 48 49 58 57 52 56 53 58 63 54 63 63 58 58 59 58 66 85 93 80 51 35 49 48 51 41 36
82 80 81 78 78 77 80 87 88 85 78 76 81 80 76 67 52 44 48 53 56 50 54 53 56 55 66 59 54 66 47 52 63 65 55 56 63 81 75 73 59 38 40 43 45 44 36
87 81 82 80 77 78 77 83 89 86 78 81 82 78 86 78 55 51 52 56 56 59 56 55 54 68 65 64 63 54 59 52 56 61 79 82 83 90 89 83 62 41 41 46 51 34 38
91 88 85 83 79 77 77 78 87 86 80 78 82 76 86 87 74 56 55 61 65 64 53 62 67 71 69 71 57 55 60 50 61 42 54 64 77 82 78 78 76 46 54 41 35 45 45
92 91 89 88 83 77 78 76 83 86 81 79 79 69 67 86 77 62 56 58 61 66 69 63 68 55 60 67 63 58 61 52 48 49 43 48 36 43 52 58 42 48 41 42 37 41 47

GFSGBSN_sfc_rhum_111.txt.gz
RH
66 64 61 64 64 67 66 71 72 72 76 75 63 65 65 65 68 66 64 63 68 68 65 62 70 80 78 84 84 67 69 53 49 49 46 37 40 39 47 46 40 42 46 39 42 40 41
66 62 60 66 65 65 64 67 73 74 72 70 68 64 64 64 66 68 70 73 73 73 65 65 68 76 84 90 77 75 74 53 40 48 44 40 37 39 40 43 48 48 44 39 37 38 36
66 61 58 58 59 60 63 67 72 76 73 72 69 68 68 66 66 66 65 72 71 73 68 64 67 79 81 95 83 76 56 45 41 42 43 40 39 36 42 46 41 40 43 47 45 40 44
65 63 62 62 63 64 64 65 68 72 76 78 69 67 67 65 66 68 70 68 69 70 70 68 66 82 97 88 86 65 59 44 41 39 40 39 37 40 44 45 39 47 45 56 46 44 51
64 62 65 64 65 64 65 67 65 67 69 73 76 71 70 72 70 70 69 68 69 66 70 64 77 86 97 85 80 79 72 46 43 40 36 30 38 44 45 60 76 55 86 59 55 44 52
66 63 64 64 66 68 69 67 67 67 68 68 69 69 68 69 71 77 69 70 65 66 65 53 73 88 81 96 87 73 46 41 46 50 47 48 55 54 54 79 77 72 68 56 54 52 54
70 67 64 62 65 66 67 74 68 66 70 68 72 72 68 68 73 72 79 86 87 90 83 94 90 87 89 86 82 63 45 45 45 50 59 62 72 81 56 56 51 56 55 66 56 53 60
70 71 69 67 66 67 69 73 72 69 68 72 69 72 66 69 67 65 78 90 90 80 98 84 81 87 83 86 82 52 41 48 54 61 54 74 76 51 50 52 52 56 59 70 64 55 58
74 71 72 72 71 72 74 73 75 75 70 70 73 70 70 67 69 80 91 92 90 72 98 95 90 90 94 78 69 61 56 50 54 56 63 77 61 49 58 71 62 64 63 74 77 66 65
74 68 72 72 73 72 73 74 77 76 79 72 72 70 67 66 80 87 91 79 89 90 95 99 95 91 76 74 74 51 54 61 54 61 63 66 56 52 67 74 64 73 56 60 70 82 93
77 72 74 74 75 76 75 74 74 79 82 77 71 68 64 65 88 90 88 88 90 93 92 98 95 85 79 73 69 56 57 62 54 59 68 79 67 70 68 72 57 73 60 66 71 80 88
78 77 73 76 77 77 78 75 74 79 83 85 71 67 70 78 86 86 83 84 86 88 97 99 93 91 85 69 63 56 60 56 59 63 65 67 60 65 69 56 56 59 68 76 73 78 98
74 78 74 76 78 78 78 79 79 80 83 84 75 68 68 66 84 77 80 90 92 95 98 98 98 80 64 66 61 62 66 72 83 82 92 72 71 65 60 71 66 68 87 98 93 99 93
75 75 73 75 78 80 80 78 80 80 81 82 74 71 69 66 76 77 83 93 91 95 99 88 75 62 68 57 62 62 68 78 65 74 97 91 86 76 64 67 82 80 82 96 94 99 93
70 75 73 72 78 80 80 81 80 83 79 72 75 83 85 81 76 86 87 96 95 90 68 78 69 70 71 59 63 66 65 71 66 68 83 91 94 70 64 47 64 90 92 78 95 90 96
71 73 75 75 80 80 80 81 82 81 77 73 89 90 86 79 81 92 89 85 78 59 53 54 69 56 70 68 70 69 72 66 70 60 65 72 92 70 68 67 67 68 68 88 96 97 83
73 71 74 75 80 84 82 81 81 82 76 76 87 85 84 81 89 87 96 84 70 57 60 64 59 57 60 62 62 65 72 68 60 65 68 68 68 79 75 84 76 72 81 78 70 78 87
76 72 73 76 81 84 86 84 81 82 76 75 91 87 84 88 90 95 95 79 69 62 61 59 62 64 65 56 57 72 76 72 62 63 75 72 78 95 77 66 60 68 71 72 88 86 76
77 75 73 76 81 86 87 87 85 81 81 89 80 84 91 90 93 95 77 66 67 64 61 59 64 61 61 64 72 67 71 62 63 69 76 75 83 92 77 65 62 68 65 65 64 78 86
78 77 74 75 81 84 86 88 86 83 81 89 85 86 88 80 84 77 77 69 71 66 60 53 57 57 61 61 57 66 74 66 63 69 69 71 80 81 84 74 68 78 66 67 70 96 84
78 77 77 73 78 82 84 89 85 81 86 80 82 85 80 90 67 75 71 64 65 69 59 54 57 54 60 61 58 63 65 70 70 73 76 74 86 82 73 70 70 68 62 61 78 66 80
81 78 78 76 74 82 85 90 87 81 84 82 79 80 80 71 64 70 68 67 66 64 64 60 60 54 53 62 63 70 62 62 71 82 79 72 80 81 87 66 70 76 65 59 55 60 61
82 79 77 78 74 79 86 91 88 82 82 86 88 74 70 69 65 66 70 70 68 69 66 59 63 64 60 65 67 67 68 68 66 69 71 78 84 85 80 75 73 57 54 54 57 55 51
82 81 78 77 78 76 84 91 89 85 85 94 92 91 78 65 60 60 57 61 60 64 71 62 60 67 65 61 62 75 77 72 70 68 62 69 75 87 92 80 65 32 40 44 48 45 44
83 81 80 78 78 77 80 88 87 84 80 89 94 95 83 81 57 61 59 60 60 63 68 64 60 63 66 71 66 60 72 71 69 70 69 68 76 86 91 90 58 38 49 44 47 34 41
88 82 81 80 79 80 78 85 88 84 80 92 94 94 95 77 60 51 56 61 67 69 70 64 62 65 74 72 64 70 56 50 67 78 60 63 73 85 88 81 64 30 40 46 41 33 32
90 88 83 83 80 79 78 79 88 86 82 90 92 88 95 92 80 66 58 65 64 72 66 68 67 77 72 77 71 65 66 54 49 65 83 87 87 93 94 94 77 51 41 46 28 16 40
92 92 89 86 82 78 78 78 84 86 84 86 91 86 88 94 88 70 60 71 71 70 60 59 56 70 80 74 68 65 65 56 64 55 75 77 91 95 92 95 83 47 53 35 27 55 43
90 93 93 88 87 80 78 78 77 85 84 84 91 82 80 90 73 77 65 73 66 63 71 71 59 68 72 77 74 72 63 66 60 48 57 54 55 68 71 67 46 53 41 43 40 38 47

GFSGBSN_sfc_rhum_114.txt.gz
RH
58 58 58 60 63 59 67 73 74 72 69 66 65 67 69 67 65 65 65 64 66 70 64 65 70 78 86 82 85 76 81 64 50 50 49 40 39 47 53 44 38 48 47 46 45 40 42
60 61 60 61 61 62 64 69 75 72 69 68 65 65 65 66 67 68 69 70 71 72 64 68 68 80 87 92 83 80 74 69 49 48 44 39 43 42 47 46 46 49 48 46 40 39 39
62 62 63 63 64 65 64 66 71 74 71 67 69 68 67 67 67 68 74 74 74 72 68 66 71 81 87 98 82 87 67 59 45 48 44 43 41 40 45 49 43 43 43 46 46 44 47
63 60 63 65 67 71 66 66 66 69 70 73 67 67 66 68 72 72 69 70 69 69 68 68 69 81 97 83 86 72 73 50 40 39 42 42 39 41 45 45 40 44 48 48 48 48 52
63 63 63 65 66 65 78 67 66 65 66 69 71 71 70 70 72 68 70 70 69 67 66 64 78 82 93 79 78 80 84 51 41 40 41 32 37 45 48 62 74 57 73 57 54 48 55
70 68 65 64 65 67 69 73 66 67 67 69 69 67 67 74 75 70 68 66 65 67 67 54 72 81 81 96 85 76 80 53 44 46 42 49 58 57 61 69 66 62 72 57 61 55 56
75 71 70 71 71 71 73 76 67 67 67 70 71 67 70 71 75 72 78 82 83 89 82 96 94 86 88 82 75 70 55 48 48 47 55 64 69 75 59 59 59 54 65 60 61 57 62
72 64 70 71 72 72 72 75 73 68 69 68 70 67 70 73 68 68 81 93 94 80 98 86 83 86 86 86 67 55 49 50 55 58 61 71 77 56 55 54 54 55 64 78 69 61 64
71 68 71 71 71 73 73 74 75 75 70 69 70 70 68 68 70 83 94 98 92 73 97 93 90 90 95 82 81 69 59 54 56 62 70 75 61 56 58 70 62 68 68 77 76 68 70
69 71 71 73 74 75 77 74 76 78 73 72 72 68 66 69 78 90 94 86 89 92 94 99 95 92 84 84 82 57 56 59 53 66 66 68 58 62 72 73 68 78 63 65 76 83 76
73 70 72 74 78 75 79 73 76 80 82 72 70 66 69 64 88 86 82 88 92 88 92 95 94 79 84 80 82 56 52 56 59 62 60 75 68 69 75 72 65 74 65 71 74 85 88
74 72 73 74 76 80 76 76 75 81 83 78 68 68 73 79 89 89 88 90 88 84 97 100 92 88 72 68 62 58 60 55 55 68 68 71 61 68 70 61 62 63 74 78 85 86 91
72 73 71 71 74 79 80 76 77 79 82 81 67 72 71 73 79 81 82 81 90 96 96 99 95 76 76 82 64 66 68 73 80 80 94 77 76 69 64 77 68 70 84 94 85 97 85
71 72 71 76 75 75 79 78 79 82 80 81 74 73 73 72 82 77 82 85 91 94 99 84 82 76 81 71 63 67 72 78 70 80 96 92 83 78 66 73 79 89 85 92 86 98 93
69 70 72 77 79 79 76 78 79 83 76 74 74 86 88 83 76 79 82 96 92 87 78 82 77 74 76 65 66 72 75 77 73 73 85 92 95 73 66 51 67 85 93 83 91 92 97
72 71 74 77 81 81 80 80 80 82 78 76 90 91 90 83 87 90 89 90 84 66 59 64 76 59 74 69 70 70 73 68 70 66 70 76 95 74 71 67 67 77 72 90 92 94 94
72 72 75 77 81 82 82 82 82 82 78 75 87 80 86 85 89 85 96 86 71 62 64 65 72 59 64 68 68 71 76 71 67 69 76 76 77 78 72 87 82 81 90 83 80 91 94
75 74 73 78 82 83 81 82 81 82 76 75 91 88 87 90 89 96 94 80 68 64 64 65 68 67 72 71 75 84 82 72 65 68 82 80 83 98 87 71 69 75 82 79 89 84 88
77 76 74 74 81 84 83 82 80 80 78 92 84 87 93 93 92 95 78 69 68 66 64 63 67 63 63 69 76 77 77 68 66 72 81 76 84 92 83 68 67 75 74 72 72 81 85
79 78 78 74 78 83 84 85 84 79 84 88 81 85 83 84 87 78 79 74 71 66 61 57 59 58 62 60 64 77 79 70 70 74 68 70 84 80 78 68 75 79 74 75 74 93 86
80 78 78 76 74 82 85 88 86 84 86 75 80 84 84 86 69 75 76 70 70 70 63 57 59 57 63 66 64 74 77 76 74 75 79 76 88 86 80 75 76 73 68 71 83 71 73
81 79 78 78 74 79 86 91 88 85 78 83 82 75 86 75 70 73 75 75 69 71 69 66 62 63 59 67 65 66 64 78 78 86 83 80 78 86 87 73 77 81 72 67 64 68 69
82 82 79 78 77 76 86 91 89 85 76 87 94 81 65 64 72 69 69 69 66 69 67 61 64 68 68 64 70 73 74 74 77 77 81 82 86 86 82 74 75 57 55 62 67 64 54
83 82 80 78 79 76 81 89 90 86 85 91 95 94 77 64 67 62 63 63 62 66 73 66 64 72 70 69 72 76 80 79 78 74 68 77 78 89 93 77 54 29 45 49 52 48 47
87 82 81 80 79 80 78 86 87 85 80 89 95 92 84 76 68 63 64 64 68 72 72 63 64 64 70 73 65 58 67 74 79 78 78 71 81 88 92 93 59 31 54 56 51 41 43
89 88 82 83 81 81 80 80 87 84 81 94 95 96 92 68 48 59 62 71 66 75 68 69 67 69 74 74 66 65 47 52 65 83 66 78 78 83 90 88 58 26 41 47 37 27 25
88 89 87 84 83 80 80 79 85 85 82 90 92 90 95 89 81 69 56 59 68 75 67 72 73 78 73 81 71 69 67 64 56 67 83 87 90 95 95 96 83 56 45 47 46 17 36
88 92 92 88 85 82 79 80 79 85 84 85 92 89 82 92 84 77 63 72 72 73 57 51 57 67 84 75 72 66 68 58 68 63 79 82 94 98 94 98 83 54 55 34 29 51 48
88 92 93 93 88 85 80 79 77 80 83 81 89 88 85 86 70 86 78 77 74 69 67 78 54 72 68 77 82 77 67 75 65 47 70 59 54 71 75 70 50 52 42 42 43 38 38

GFSGBSN_sfc_rhum_117.txt.gz
RH
61 60 62 64 65 66 64 72 75 73 66 66 67 66 66 66 65 65 65 66 66 73 66 70 72 81 86 82 96 86 85 70 51 51 49 41 41 51 51 45 46 52 53 48 46 39 40
61 61 64 66 72 67 66 66 73 73 69 66 66 65 66 68 69 72 71 64 70 70 68 66 72 81 85 89 87 87 84 59 47 50 45 38 40 46 49 50 49 53 53 46 40 41 42
62 62 63 66 66 75 69 67 66 70 73 67 65 66 67 68 68 71 72 74 76 73 68 69 72 80 86 95 86 88 73 68 50 49 43 44 40 40 46 50 47 46 47 47 45 45 50
66 66 65 64 66 68 77 68 66 67 70 73 69 70 72 69 70 70 69 71 71 69 70 68 69 79 98 84 88 84 70 46 40 40 42 42 39 43 46 45 45 44 48 44 48 48 55
72 71 70 70 70 72 75 66 67 66 68 68 70 69 69 69 67 70 73 70 69 67 66 63 75 78 97 82 85 80 76 64 54 39 43 33 39 48 51 57 71 56 65 54 56 50 58
69 66 69 69 69 70 74 67 67 67 69 71 67 68 73 72 68 72 70 66 65 67 69 54 72 78 79 95 87 79 80 63 49 43 44 51 56 59 67 57 66 55 76 57 59 57 58
65 68 69 74 76 74 72 77 67 68 68 70 67 70 71 73 69 73 76 83 85 88 83 92 92 83 85 82 75 80 82 70 48 45 59 69 66 76 70 67 56 55 62 62 68 60 66
68 70 72 75 78 78 77 74 75 68 69 71 70 70 73 68 71 73 81 94 96 80 97 83 79 82 80 84 74 75 80 67 51 62 62 70 76 60 60 55 54 58 66 79 74 63 71
68 69 71 73 76 80 80 74 77 72 71 70 68 70 70 71 70 82 96 99 90 73 97 92 90 90 96 86 83 73 73 58 60 67 65 73 64 58 60 66 66 74 75 81 73 72 74
70 69 72 74 74 81 81 79 78 77 73 73 68 68 68 70 75 91 94 89 90 91 94 100 95 94 79 84 74 55 57 59 58 67 67 70 60 65 72 73 70 77 68 71 76 78 68
72 69 69 71 75 79 82 79 77 81 73 72 69 69 74 63 86 83 80 88 92 80 93 93 94 86 85 79 77 58 52 55 63 71 57 73 70 74 76 74 69 74 69 75 78 86 87
70 70 72 72 72 77 80 77 74 82 80 72 69 69 72 76 89 89 89 90 80 84 96 100 91 94 91 70 70 62 62 55 58 69 71 71 62 72 73 67 67 65 76 76 88 86 85
70 69 73 74 77 74 77 76 75 79 82 78 68 72 72 76 74 84 85 80 89 95 93 95 98 92 79 82 63 64 68 71 79 79 93 78 79 71 67 78 70 73 84 89 71 91 77
70 71 73 76 77 78 76 78 77 82 78 82 71 68 75 77 86 78 77 84 91 89 98 82 82 74 80 68 65 66 69 80 72 75 94 90 79 78 69 77 79 89 80 84 53 97 94
72 72 74 78 80 80 80 77 82 84 76 78 74 89 90 86 80 77 79 98 91 87 80 90 84 80 77 66 69 74 80 78 77 78 79 95 91 75 71 66 67 83 93 80 91 93 96
72 73 73 76 80 82 80 80 80 83 79 76 91 92 91 85 88 84 89 91 86 68 70 70 80 66 81 80 81 81 82 78 74 70 76 78 95 77 72 64 72 78 76 88 91 93 95
76 74 74 76 79 82 82 81 81 79 80 74 90 81 86 88 89 84 96 88 73 64 64 66 72 60 66 72 73 76 82 78 73 75 79 79 80 73 67 87 86 88 90 86 84 88 94
78 76 74 75 81 83 84 83 81 79 79 76 92 87 90 90 88 96 95 81 70 68 67 68 72 67 74 71 77 85 82 81 72 74 83 82 86 97 85 79 73 82 84 83 89 82 90
78 78 78 75 79 84 85 84 84 81 73 94 88 89 94 92 91 95 81 72 70 69 66 67 71 68 68 76 78 81 82 74 71 77 80 76 83 92 78 75 80 84 81 78 76 84 88
80 78 79 77 76 82 85 85 85 84 84 88 80 84 81 86 87 79 78 80 72 68 64 61 63 61 63 67 70 80 82 73 78 79 68 68 85 75 69 59 78 86 81 80 76 94 88
81 79 79 79 74 79 86 87 88 87 89 75 81 85 85 85 71 78 78 74 75 71 66 61 61 61 66 73 74 80 82 82 79 76 81 76 82 90 84 80 78 78 75 81 85 74 80
82 80 79 79 77 76 86 89 88 87 84 85 76 71 84 79 74 74 72 78 70 73 74 71 61 65 70 71 61 65 71 78 77 87 84 83 79 86 89 75 84 83 79 76 74 76 75
82 83 80 79 79 76 82 91 89 87 72 90 96 87 58 68 74 70 70 75 69 76 70 65 69 72 75 66 73 74 74 73 77 83 84 86 87 86 83 72 75 60 65 60 69 72 61
85 83 82 80 80 80 78 88 88 87 83 94 96 90 72 60 70 64 65 67 68 73 77 72 71 75 70 74 73 76 80 82 81 80 75 84 80 90 93 75 45 30 45 52 58 53 55
87 85 82 81 80 81 79 81 85 84 79 91 96 92 80 68 68 68 68 68 72 74 74 64 69 67 74 72 64 55 65 77 82 82 83 77 82 88 92 93 54 28 60 57 51 34 49
87 88 85 83 83 82 82 80 83 83 81 90 95 97 90 58 47 63 64 69 65 73 68 74 74 72 73 73 64 54 41 60 73 84 84 82 82 81 90 87 45 25 47 51 44 27 24
86 86 89 85 83 82 81 81 80 83 81 86 92 92 94 83 73 72 59 61 69 76 65 74 75 79 70 78 66 64 66 61 60 71 89 91 93 95 94 95 82 58 45 52 45 17 35
84 90 93 91 85 82 80 82 79 82 82 84 93 91 79 88 79 81 69 76 78 74 56 50 57 64 84 71 70 68 68 62 68 64 80 86 95 98 94 98 75 57 56 34 28 44 53
85 90 93 94 91 86 81 80 79 78 81 79 88 90 88 86 72 89 85 80 76 68 63 80 52 71 71 74 83 77 69 82 70 47 76 59 59 73 78 70 51 59 50 46 49 44 45

GFSGBSN_sfc_rhum_120.txt.gz
RH
62 63 63 61 70 70 68 66 71 72 70 68 65 65 67 68 66 65 68 73 84 81 75 68 77 78 88 90 95 84 79 78 62 53 46 43 45 48 50 47 50 55 58 51 44 41 40
66 65 65 64 65 72 71 67 68 72 71 65 66 67 69 70 70 66 67 68 69 73 68 68 76 82 89 94 91 84 70 70 50 48 46 41 39 47 48 54 53 57 53 46 42 42 45
72 69 69 69 70 73 76 68 67 68 70 70 68 70 71 70 71 74 71 74 74 71 70 68 74 84 86 98 91 84 77 76 52 50 43 47 40 41 48 51 49 47 46 46 47 43 51
68 66 68 69 70 72 74 68 68 68 68 70 72 70 72 70 74 70 70 71 72 70 69 66 70 79 97 91 90 84 78 56 58 42 44 45 40 45 46 48 46 43 46 41 47 46 56
65 70 71 73 73 71 74 69 68 68 70 69 68 72 73 70 74 76 74 68 67 67 65 62 74 80 95 80 88 91 83 74 59 40 46 34 42 53 47 56 70 55 63 57 54 51 56
66 70 74 73 75 74 71 70 68 69 69 71 69 73 74 72 76 74 70 68 63 66 70 56 71 78 82 96 91 88 80 71 57 44 47 48 56 58 64 56 64 53 68 55 63 57 58
66 67 76 74 74 75 74 77 70 69 72 70 70 75 73 71 77 73 79 84 83 86 81 94 92 85 88 84 76 86 85 70 46 54 59 64 68 73 70 71 49 60 59 60 75 62 73
70 67 73 77 74 76 76 73 74 70 71 73 72 74 73 73 72 74 84 94 94 83 97 81 79 78 78 89 80 80 69 63 53 68 60 69 77 65 61 57 58 58 63 80 76 66 76
73 69 69 75 75 76 76 75 76 71 72 72 72 73 72 71 70 82 95 98 91 74 98 90 90 90 95 82 83 82 76 69 61 66 64 71 69 61 59 69 65 80 71 79 71 72 76
71 72 71 70 77 77 77 75 79 72 73 72 70 71 74 72 72 88 91 88 91 91 94 100 94 90 81 86 88 68 73 72 61 70 69 73 63 67 72 74 69 70 74 76 75 73 64
69 70 73 76 71 79 76 75 79 78 71 72 68 71 75 67 84 83 85 89 92 76 92 97 94 82 82 81 81 73 52 60 68 72 60 78 78 77 76 78 70 77 72 78 80 86 85
70 69 71 74 74 73 79 74 72 81 78 70 70 69 73 78 88 90 90 89 71 84 96 100 92 92 81 75 70 62 62 59 61 68 73 73 65 76 75 73 69 69 77 71 84 84 81
70 72 73 74 74 75 74 77 73 79 81 78 68 72 73 77 76 87 86 77 89 95 96 99 99 90 78 73 65 66 71 78 77 69 92 77 80 73 70 75 73 72 83 82 67 86 75
72 74 73 75 76 77 76 76 78 83 77 83 72 70 79 80 90 83 77 83 91 90 100 91 90 82 79 66 66 66 75 83 76 78 95 83 72 80 74 80 78 87 77 79 41 83 91
74 75 75 74 75 78 80 79 81 84 75 81 73 90 90 88 84 78 80 97 93 94 87 92 77 77 78 68 70 72 76 76 80 80 74 94 96 78 75 72 68 88 90 79 91 96 93
77 75 75 78 79 77 78 80 80 83 77 75 92 93 92 89 88 79 89 92 88 74 76 78 79 70 84 83 81 81 83 75 73 73 76 79 96 81 76 72 77 79 75 87 93 84 88
78 76 75 76 82 84 83 79 82 80 78 73 91 84 87 90 89 84 96 88 78 65 63 71 76 73 78 80 81 82 84 80 75 77 78 80 82 83 76 87 86 91 90 88 86 87 91
79 78 78 75 80 84 85 83 81 81 77 78 92 86 91 93 88 96 95 83 71 72 70 71 75 69 77 74 80 86 80 81 74 73 82 83 85 97 85 81 81 82 83 83 87 80 92
80 79 79 78 77 84 85 84 84 80 76 94 90 90 92 82 91 95 82 74 71 70 70 70 74 69 74 78 81 84 84 80 74 80 79 75 84 92 78 78 84 88 85 80 79 85 90
82 80 80 80 76 80 86 85 85 84 83 88 80 83 79 86 88 82 80 80 76 68 66 62 66 64 68 76 76 82 84 76 80 82 69 63 84 72 65 56 82 91 86 84 79 95 87
82 81 80 80 77 76 85 87 86 88 87 77 82 86 85 85 75 80 79 75 78 69 64 61 63 62 72 76 75 83 83 85 79 75 82 71 73 92 85 80 79 78 78 88 87 77 83
82 82 81 80 80 75 82 87 86 87 78 82 76 77 85 80 77 74 73 80 76 77 75 69 63 67 72 74 72 72 78 80 78 87 86 85 76 87 89 77 84 89 82 81 84 81 81
84 83 82 81 80 79 79 89 88 80 73 90 96 89 57 71 76 66 66 72 69 76 75 66 71 71 74 74 74 77 75 77 77 84 85 84 86 86 81 75 77 62 72 77 80 81 70
85 85 82 81 80 81 80 85 86 83 79 92 97 91 71 57 77 66 65 68 68 72 71 76 74 72 71 69 73 74 77 80 79 82 79 87 82 90 94 75 39 29 50 58 64 59 63
84 87 85 82 81 81 82 80 82 82 74 94 97 88 75 59 76 70 75 73 75 73 75 67 70 70 72 71 63 54 64 80 86 81 84 78 83 89 91 92 48 34 62 60 53 33 55
86 79 87 84 84 83 83 80 82 81 78 89 96 97 83 57 41 68 66 73 66 73 70 77 76 76 70 72 62 51 39 61 81 86 87 85 84 82 92 82 40 21 56 62 62 23 26
84 84 88 89 85 82 82 82 80 81 79 85 94 93 89 73 68 68 60 62 72 75 63 75 78 80 72 73 60 60 63 62 61 76 94 93 93 95 93 94 79 58 55 62 39 22 34
85 84 92 93 89 83 80 82 80 81 81 83 94 94 79 82 77 81 72 76 81 73 54 54 59 64 83 67 65 68 68 64 70 65 85 89 96 97 90 98 66 59 62 46 28 46 47
85 85 92 94 94 88 83 80 80 79 80 76 86 92 90 86 68 88 86 84 78 69 63 79 52 68 72 71 81 74 70 86 70 44 79 64 64 76 80 69 53 66 52 48 52 52 53